View Issue Details

IDProjectCategoryView StatusLast Update
0005163Kali Linux[All Projects] Kali Package Bugpublic2018-12-20 08:59
Reporterl0gin.anAssigned Tosbrun 
PrioritynormalSeverityminorReproducibilityhave not tried
Status closedResolutionduplicate 
Product Version2018.4 
Target VersionFixed in Version 
Summary0005163: black screen after full-upgrade
Descriptionafter full-upgrade black screen
https://www.amazon.com/Dell-Inspiron-i15-N5040-15-6-Inch-Laptop/dp/B005XU6C54

Steps To ReproduceScreen Size 15.6 inches
Max Screen Resolution 1366x768
Processor 2.53 GHz Intel Core i3
RAM 4 GB DDR3
Hard Drive 320 GB mechanical_hard_drive
Graphics Coprocessor Intel HD Graphics
Chipset Brand Intel
Card Description Integrated
Wireless Type 802.11bgn
Number of USB 2.0 Ports 3
Series Dell Inspiron
Item model number i15-N5040
Hardware Platform PC
Operating System kali only
Item Weight 6.97 pounds
Product Dimensions 19.9 x 13.9 x 4.2 inches
Item Dimensions L x W x H 19.92 x 13.9 x 4.17 inches
Color Black
Processor Brand intel core I3
Processor Count 2
Computer Memory Type DDR3 SDRAM
Hard Drive Rotational Speed 5400 RPM
Batteries 1 Lithium ion batteries required. (included)

Relationships

duplicate of 0005141 resolvedsbrun latest kernel (4.18.0-kali3) fails to boot 

Activities

l0gin.an

2018-12-17 08:35

reporter  

kern (143,108 bytes)
Dec 16 21:39:03 re kernel: [ 2799.349391] perf: interrupt took too long (3945 > 3940), lowering kernel.perf_event_max_sample_rate to 50500
Dec 16 21:52:22 re kernel: [ 3597.799607] perf: interrupt took too long (4940 > 4931), lowering kernel.perf_event_max_sample_rate to 40250
Dec 16 21:56:29 re kernel: [ 3844.199050] rfkill: input handler enabled
Dec 16 21:58:51 re kernel: [    0.000000] microcode: microcode updated early to revision 0x7, date = 2018-04-23
Dec 16 21:58:51 re kernel: [    0.000000] Linux version 4.18.0-kali3-amd64 (devel@kali.org) (gcc version 7.3.0 (Debian 7.3.0-30)) #1 SMP Debian 4.18.20-2kali2 (2018-11-30)
Dec 16 21:58:51 re kernel: [    0.000000] Command line: BOOT_IMAGE=/boot/vmlinuz-4.18.0-kali3-amd64 root=UUID=0f4a6c80-be10-41d1-b10f-f1c6ca081b1c ro initrd=/install/gtk/initrd.gz quiet
Dec 16 21:58:51 re kernel: [    0.000000] x86/fpu: x87 FPU will use FXSAVE
Dec 16 21:58:51 re kernel: [    0.000000] BIOS-provided physical RAM map:
Dec 16 21:58:51 re kernel: [    0.000000] BIOS-e820: [mem 0x0000000000000000-0x000000000009d3ff] usable
Dec 16 21:58:51 re kernel: [    0.000000] BIOS-e820: [mem 0x000000000009d400-0x000000000009ffff] reserved
Dec 16 21:58:51 re kernel: [    0.000000] BIOS-e820: [mem 0x00000000000e0000-0x00000000000fffff] reserved
Dec 16 21:58:51 re kernel: [    0.000000] BIOS-e820: [mem 0x0000000000100000-0x00000000bb5a8fff] usable
Dec 16 21:58:51 re kernel: [    0.000000] BIOS-e820: [mem 0x00000000bb5a9000-0x00000000bb5f0fff] ACPI NVS
Dec 16 21:58:51 re kernel: [    0.000000] BIOS-e820: [mem 0x00000000bb5f1000-0x00000000bb5fafff] ACPI data
Dec 16 21:58:51 re kernel: [    0.000000] BIOS-e820: [mem 0x00000000bb5fb000-0x00000000bb5fdfff] ACPI NVS
Dec 16 21:58:51 re kernel: [    0.000000] BIOS-e820: [mem 0x00000000bb5fe000-0x00000000bb621fff] reserved
Dec 16 21:58:51 re kernel: [    0.000000] BIOS-e820: [mem 0x00000000bb622000-0x00000000bb62afff] ACPI NVS
Dec 16 21:58:51 re kernel: [    0.000000] BIOS-e820: [mem 0x00000000bb62b000-0x00000000bb62dfff] reserved
Dec 16 21:58:51 re kernel: [    0.000000] BIOS-e820: [mem 0x00000000bb62e000-0x00000000bb631fff] ACPI NVS
Dec 16 21:58:51 re kernel: [    0.000000] BIOS-e820: [mem 0x00000000bb632000-0x00000000bb651fff] reserved
Dec 16 21:58:51 re kernel: [    0.000000] BIOS-e820: [mem 0x00000000bb652000-0x00000000bb694fff] ACPI NVS
Dec 16 21:58:51 re kernel: [    0.000000] BIOS-e820: [mem 0x00000000bb695000-0x00000000bb7fffff] usable
Dec 16 21:58:51 re kernel: [    0.000000] BIOS-e820: [mem 0x00000000bde00000-0x00000000bfffffff] reserved
Dec 16 21:58:51 re kernel: [    0.000000] BIOS-e820: [mem 0x00000000e0000000-0x00000000efffffff] reserved
Dec 16 21:58:51 re kernel: [    0.000000] BIOS-e820: [mem 0x00000000fed1c000-0x00000000fed1ffff] reserved
Dec 16 21:58:51 re kernel: [    0.000000] BIOS-e820: [mem 0x00000000ff000000-0x00000000ffffffff] reserved
Dec 16 21:58:51 re kernel: [    0.000000] BIOS-e820: [mem 0x0000000100000000-0x0000000137ffffff] usable
Dec 16 21:58:51 re kernel: [    0.000000] NX (Execute Disable) protection: active
Dec 16 21:58:51 re kernel: [    0.000000] SMBIOS 2.6 present.
Dec 16 21:58:51 re kernel: [    0.000000] DMI: Dell Inc. Inspiron N5040/024DTD, BIOS A02 05/31/2011
Dec 16 21:58:51 re kernel: [    0.000000] e820: update [mem 0x00000000-0x00000fff] usable ==> reserved
Dec 16 21:58:51 re kernel: [    0.000000] e820: remove [mem 0x000a0000-0x000fffff] usable
Dec 16 21:58:51 re kernel: [    0.000000] last_pfn = 0x138000 max_arch_pfn = 0x400000000
Dec 16 21:58:51 re kernel: [    0.000000] MTRR default type: uncachable
Dec 16 21:58:51 re kernel: [    0.000000] MTRR fixed ranges enabled:
Dec 16 21:58:51 re kernel: [    0.000000]   00000-9FFFF write-back
Dec 16 21:58:51 re kernel: [    0.000000]   A0000-BFFFF uncachable
Dec 16 21:58:51 re kernel: [    0.000000]   C0000-D3FFF write-protect
Dec 16 21:58:51 re kernel: [    0.000000]   D4000-E7FFF uncachable
Dec 16 21:58:51 re kernel: [    0.000000]   E8000-FFFFF write-protect
Dec 16 21:58:51 re kernel: [    0.000000] MTRR variable ranges enabled:
Dec 16 21:58:51 re kernel: [    0.000000]   0 base 000000000 mask F00000000 write-back
Dec 16 21:58:51 re kernel: [    0.000000]   1 base 100000000 mask FC0000000 write-back
Dec 16 21:58:51 re kernel: [    0.000000]   2 base 0BC000000 mask FFC000000 uncachable
Dec 16 21:58:51 re kernel: [    0.000000]   3 base 0C0000000 mask FC0000000 uncachable
Dec 16 21:58:51 re kernel: [    0.000000]   4 base 138000000 mask FF8000000 uncachable
Dec 16 21:58:51 re kernel: [    0.000000]   5 disabled
Dec 16 21:58:51 re kernel: [    0.000000]   6 disabled
Dec 16 21:58:51 re kernel: [    0.000000]   7 disabled
Dec 16 21:58:51 re kernel: [    0.000000] x86/PAT: Configuration [0-7]: WB  WC  UC- UC  WB  WP  UC- WT  
Dec 16 21:58:51 re kernel: [    0.000000] e820: update [mem 0xbc000000-0xffffffff] usable ==> reserved
Dec 16 21:58:51 re kernel: [    0.000000] last_pfn = 0xbb800 max_arch_pfn = 0x400000000
Dec 16 21:58:51 re kernel: [    0.000000] found SMP MP-table at [mem 0x000fcd90-0x000fcd9f] mapped at [(____ptrval____)]
Dec 16 21:58:51 re kernel: [    0.000000] Base memory trampoline at [(____ptrval____)] 97000 size 24576
Dec 16 21:58:51 re kernel: [    0.000000] BRK [0x17c51000, 0x17c51fff] PGTABLE
Dec 16 21:58:51 re kernel: [    0.000000] BRK [0x17c52000, 0x17c52fff] PGTABLE
Dec 16 21:58:51 re kernel: [    0.000000] BRK [0x17c53000, 0x17c53fff] PGTABLE
Dec 16 21:58:51 re kernel: [    0.000000] BRK [0x17c54000, 0x17c54fff] PGTABLE
Dec 16 21:58:51 re kernel: [    0.000000] BRK [0x17c55000, 0x17c55fff] PGTABLE
Dec 16 21:58:51 re kernel: [    0.000000] BRK [0x17c56000, 0x17c56fff] PGTABLE
Dec 16 21:58:51 re kernel: [    0.000000] RAMDISK: [mem 0x33827000-0x35c0afff]
Dec 16 21:58:51 re kernel: [    0.000000] ACPI: Early table checksum verification disabled
Dec 16 21:58:51 re kernel: [    0.000000] ACPI: RSDP 0x00000000000F0410 000024 (v03 DELL  )
Dec 16 21:58:51 re kernel: [    0.000000] ACPI: XSDT 0x00000000BB5F1080 000054 (v01 DELL   WN09     01072009 AMI  00010013)
Dec 16 21:58:51 re kernel: [    0.000000] ACPI: FACP 0x00000000BB5FABC8 0000F4 (v04 DELL   WN09     01072009 AMI  00010013)
Dec 16 21:58:51 re kernel: [    0.000000] ACPI: DSDT 0x00000000BB5F1168 009A5C (v02 DELL   WN09     00005040 INTL 20051117)
Dec 16 21:58:51 re kernel: [    0.000000] ACPI: FACS 0x00000000BB62EF40 000040
Dec 16 21:58:51 re kernel: [    0.000000] ACPI: FACS 0x00000000BB62EF80 000040
Dec 16 21:58:51 re kernel: [    0.000000] ACPI: APIC 0x00000000BB5FACC0 000072 (v01 DELL   WN09     01072009 AMI  00010013)
Dec 16 21:58:51 re kernel: [    0.000000] ACPI: SSDT 0x00000000BB5FAD38 00014E (v01 AMICPU PROC     00000001 MSFT 03000001)
Dec 16 21:58:51 re kernel: [    0.000000] ACPI: MCFG 0x00000000BB5FAE88 00003C (v01 DELL   WN09     01072009 MSFT 00000097)
Dec 16 21:58:51 re kernel: [    0.000000] ACPI: HPET 0x00000000BB5FAEC8 000038 (v01 DELL   WN09     01072009 AMI. 00000003)
Dec 16 21:58:51 re kernel: [    0.000000] ACPI: OSFR 0x00000000BB5FAF00 00008C (v01 DELL   M08      07DB051F ASL  00000061)
Dec 16 21:58:51 re kernel: [    0.000000] ACPI: Local APIC address 0xfee00000
Dec 16 21:58:51 re kernel: [    0.000000] No NUMA configuration found
Dec 16 21:58:51 re kernel: [    0.000000] Faking a node at [mem 0x0000000000000000-0x0000000137ffffff]
Dec 16 21:58:51 re kernel: [    0.000000] NODE_DATA(0) allocated [mem 0x137ff8000-0x137ffcfff]
Dec 16 21:58:51 re kernel: [    0.000000] tsc: Fast TSC calibration using PIT
Dec 16 21:58:51 re kernel: [    0.000000] Zone ranges:
Dec 16 21:58:51 re kernel: [    0.000000]   DMA      [mem 0x0000000000001000-0x0000000000ffffff]
Dec 16 21:58:51 re kernel: [    0.000000]   DMA32    [mem 0x0000000001000000-0x00000000ffffffff]
Dec 16 21:58:51 re kernel: [    0.000000]   Normal   [mem 0x0000000100000000-0x0000000137ffffff]
Dec 16 21:58:51 re kernel: [    0.000000]   Device   empty
Dec 16 21:58:51 re kernel: [    0.000000] Movable zone start for each node
Dec 16 21:58:51 re kernel: [    0.000000] Early memory node ranges
Dec 16 21:58:51 re kernel: [    0.000000]   node   0: [mem 0x0000000000001000-0x000000000009cfff]
Dec 16 21:58:51 re kernel: [    0.000000]   node   0: [mem 0x0000000000100000-0x00000000bb5a8fff]
Dec 16 21:58:51 re kernel: [    0.000000]   node   0: [mem 0x00000000bb695000-0x00000000bb7fffff]
Dec 16 21:58:51 re kernel: [    0.000000]   node   0: [mem 0x0000000100000000-0x0000000137ffffff]
Dec 16 21:58:51 re kernel: [    0.000000] Reserved but unavailable: 18768 pages
Dec 16 21:58:51 re kernel: [    0.000000] Initmem setup node 0 [mem 0x0000000000001000-0x0000000137ffffff]
Dec 16 21:58:51 re kernel: [    0.000000] On node 0 totalpages: 997040
Dec 16 21:58:51 re kernel: [    0.000000]   DMA zone: 64 pages used for memmap
Dec 16 21:58:51 re kernel: [    0.000000]   DMA zone: 21 pages reserved
Dec 16 21:58:51 re kernel: [    0.000000]   DMA zone: 3996 pages, LIFO batch:0
Dec 16 21:58:51 re kernel: [    0.000000]   DMA32 zone: 11933 pages used for memmap
Dec 16 21:58:51 re kernel: [    0.000000]   DMA32 zone: 763668 pages, LIFO batch:31
Dec 16 21:58:51 re kernel: [    0.000000]   Normal zone: 3584 pages used for memmap
Dec 16 21:58:51 re kernel: [    0.000000]   Normal zone: 229376 pages, LIFO batch:31
Dec 16 21:58:51 re kernel: [    0.000000] Reserving Intel graphics memory at [mem 0xbe000000-0xbfffffff]
Dec 16 21:58:51 re kernel: [    0.000000] ACPI: PM-Timer IO Port: 0x408
Dec 16 21:58:51 re kernel: [    0.000000] ACPI: Local APIC address 0xfee00000
Dec 16 21:58:51 re kernel: [    0.000000] ACPI: LAPIC_NMI (acpi_id[0xff] high edge lint[0x1])
Dec 16 21:58:51 re kernel: [    0.000000] IOAPIC[0]: apic_id 0, version 32, address 0xfec00000, GSI 0-23
Dec 16 21:58:51 re kernel: [    0.000000] ACPI: INT_SRC_OVR (bus 0 bus_irq 0 global_irq 2 dfl dfl)
Dec 16 21:58:51 re kernel: [    0.000000] ACPI: INT_SRC_OVR (bus 0 bus_irq 9 global_irq 9 high level)
Dec 16 21:58:51 re kernel: [    0.000000] ACPI: IRQ0 used by override.
Dec 16 21:58:51 re kernel: [    0.000000] ACPI: IRQ9 used by override.
Dec 16 21:58:51 re kernel: [    0.000000] Using ACPI (MADT) for SMP configuration information
Dec 16 21:58:51 re kernel: [    0.000000] ACPI: HPET id: 0x8086a701 base: 0xfed00000
Dec 16 21:58:51 re kernel: [    0.000000] smpboot: Allowing 4 CPUs, 0 hotplug CPUs
Dec 16 21:58:51 re kernel: [    0.000000] PM: Registered nosave memory: [mem 0x00000000-0x00000fff]
Dec 16 21:58:51 re kernel: [    0.000000] PM: Registered nosave memory: [mem 0x0009d000-0x0009dfff]
Dec 16 21:58:51 re kernel: [    0.000000] PM: Registered nosave memory: [mem 0x0009e000-0x0009ffff]
Dec 16 21:58:51 re kernel: [    0.000000] PM: Registered nosave memory: [mem 0x000a0000-0x000dffff]
Dec 16 21:58:51 re kernel: [    0.000000] PM: Registered nosave memory: [mem 0x000e0000-0x000fffff]
Dec 16 21:58:51 re kernel: [    0.000000] PM: Registered nosave memory: [mem 0xbb5a9000-0xbb5f0fff]
Dec 16 21:58:51 re kernel: [    0.000000] PM: Registered nosave memory: [mem 0xbb5f1000-0xbb5fafff]
Dec 16 21:58:51 re kernel: [    0.000000] PM: Registered nosave memory: [mem 0xbb5fb000-0xbb5fdfff]
Dec 16 21:58:51 re kernel: [    0.000000] PM: Registered nosave memory: [mem 0xbb5fe000-0xbb621fff]
Dec 16 21:58:51 re kernel: [    0.000000] PM: Registered nosave memory: [mem 0xbb622000-0xbb62afff]
Dec 16 21:58:51 re kernel: [    0.000000] PM: Registered nosave memory: [mem 0xbb62b000-0xbb62dfff]
Dec 16 21:58:51 re kernel: [    0.000000] PM: Registered nosave memory: [mem 0xbb62e000-0xbb631fff]
Dec 16 21:58:51 re kernel: [    0.000000] PM: Registered nosave memory: [mem 0xbb632000-0xbb651fff]
Dec 16 21:58:51 re kernel: [    0.000000] PM: Registered nosave memory: [mem 0xbb652000-0xbb694fff]
Dec 16 21:58:51 re kernel: [    0.000000] PM: Registered nosave memory: [mem 0xbb800000-0xbddfffff]
Dec 16 21:58:51 re kernel: [    0.000000] PM: Registered nosave memory: [mem 0xbde00000-0xbfffffff]
Dec 16 21:58:51 re kernel: [    0.000000] PM: Registered nosave memory: [mem 0xc0000000-0xdfffffff]
Dec 16 21:58:51 re kernel: [    0.000000] PM: Registered nosave memory: [mem 0xe0000000-0xefffffff]
Dec 16 21:58:51 re kernel: [    0.000000] PM: Registered nosave memory: [mem 0xf0000000-0xfed1bfff]
Dec 16 21:58:51 re kernel: [    0.000000] PM: Registered nosave memory: [mem 0xfed1c000-0xfed1ffff]
Dec 16 21:58:51 re kernel: [    0.000000] PM: Registered nosave memory: [mem 0xfed20000-0xfeffffff]
Dec 16 21:58:51 re kernel: [    0.000000] PM: Registered nosave memory: [mem 0xff000000-0xffffffff]
Dec 16 21:58:51 re kernel: [    0.000000] [mem 0xc0000000-0xdfffffff] available for PCI devices
Dec 16 21:58:51 re kernel: [    0.000000] Booting paravirtualized kernel on bare hardware
Dec 16 21:58:51 re kernel: [    0.000000] clocksource: refined-jiffies: mask: 0xffffffff max_cycles: 0xffffffff, max_idle_ns: 7645519600211568 ns
Dec 16 21:58:51 re kernel: [    0.000000] random: get_random_bytes called from start_kernel+0x94/0x52e with crng_init=0
Dec 16 21:58:51 re kernel: [    0.000000] setup_percpu: NR_CPUS:512 nr_cpumask_bits:512 nr_cpu_ids:4 nr_node_ids:1
Dec 16 21:58:51 re kernel: [    0.000000] percpu: Embedded 44 pages/cpu @(____ptrval____) s142744 r8192 d29288 u524288
Dec 16 21:58:51 re kernel: [    0.000000] pcpu-alloc: s142744 r8192 d29288 u524288 alloc=1*2097152
Dec 16 21:58:51 re kernel: [    0.000000] pcpu-alloc: [0] 0 1 2 3 
Dec 16 21:58:51 re kernel: [    0.000000] Built 1 zonelists, mobility grouping on.  Total pages: 981438
Dec 16 21:58:51 re kernel: [    0.000000] Policy zone: Normal
Dec 16 21:58:51 re kernel: [    0.000000] Kernel command line: BOOT_IMAGE=/boot/vmlinuz-4.18.0-kali3-amd64 root=UUID=0f4a6c80-be10-41d1-b10f-f1c6ca081b1c ro initrd=/install/gtk/initrd.gz quiet
Dec 16 21:58:51 re kernel: [    0.000000] Calgary: detecting Calgary via BIOS EBDA area
Dec 16 21:58:51 re kernel: [    0.000000] Calgary: Unable to locate Rio Grande table in EBDA - bailing!
Dec 16 21:58:51 re kernel: [    0.000000] Memory: 3798176K/3988160K available (10252K kernel code, 1227K rwdata, 3256K rodata, 1568K init, 656K bss, 189984K reserved, 0K cma-reserved)
Dec 16 21:58:51 re kernel: [    0.000000] SLUB: HWalign=64, Order=0-3, MinObjects=0, CPUs=4, Nodes=1
Dec 16 21:58:51 re kernel: [    0.000000] Kernel/User page tables isolation: enabled
Dec 16 21:58:51 re kernel: [    0.000000] ftrace: allocating 31279 entries in 123 pages
Dec 16 21:58:51 re kernel: [    0.000000] Hierarchical RCU implementation.
Dec 16 21:58:51 re kernel: [    0.000000] 	RCU restricting CPUs from NR_CPUS=512 to nr_cpu_ids=4.
Dec 16 21:58:51 re kernel: [    0.000000] RCU: Adjusting geometry for rcu_fanout_leaf=16, nr_cpu_ids=4
Dec 16 21:58:51 re kernel: [    0.000000] NR_IRQS: 33024, nr_irqs: 456, preallocated irqs: 16
Dec 16 21:58:51 re kernel: [    0.000000] Console: colour VGA+ 80x25
Dec 16 21:58:51 re kernel: [    0.000000] console [tty0] enabled
Dec 16 21:58:51 re kernel: [    0.000000] ACPI: Core revision 20180531
Dec 16 21:58:51 re kernel: [    0.000000] clocksource: hpet: mask: 0xffffffff max_cycles: 0xffffffff, max_idle_ns: 133484882848 ns
Dec 16 21:58:51 re kernel: [    0.000000] hpet clockevent registered
Dec 16 21:58:51 re kernel: [    0.000000] APIC: Switch to symmetric I/O mode setup
Dec 16 21:58:51 re kernel: [    0.000000] ..TIMER: vector=0x30 apic1=0 pin1=2 apic2=-1 pin2=-1
Dec 16 21:58:51 re kernel: [    0.020000] tsc: Fast TSC calibration using PIT
Dec 16 21:58:51 re kernel: [    0.024000] tsc: Detected 2526.930 MHz processor
Dec 16 21:58:51 re kernel: [    0.024000] clocksource: tsc-early: mask: 0xffffffffffffffff max_cycles: 0x246c999a660, max_idle_ns: 440795251857 ns
Dec 16 21:58:51 re kernel: [    0.024000] Calibrating delay loop (skipped), value calculated using timer frequency.. 5053.86 BogoMIPS (lpj=10107720)
Dec 16 21:58:51 re kernel: [    0.024000] pid_max: default: 32768 minimum: 301
Dec 16 21:58:51 re kernel: [    0.024000] Security Framework initialized
Dec 16 21:58:51 re kernel: [    0.024000] Yama: disabled by default; enable with sysctl kernel.yama.*
Dec 16 21:58:51 re kernel: [    0.024000] AppArmor: AppArmor initialized
Dec 16 21:58:51 re kernel: [    0.024000] Dentry cache hash table entries: 524288 (order: 10, 4194304 bytes)
Dec 16 21:58:51 re kernel: [    0.024000] Inode-cache hash table entries: 262144 (order: 9, 2097152 bytes)
Dec 16 21:58:51 re kernel: [    0.024000] Mount-cache hash table entries: 8192 (order: 4, 65536 bytes)
Dec 16 21:58:51 re kernel: [    0.024000] Mountpoint-cache hash table entries: 8192 (order: 4, 65536 bytes)
Dec 16 21:58:51 re kernel: [    0.024000] mce: CPU supports 9 MCE banks
Dec 16 21:58:51 re kernel: [    0.024000] CPU0: Thermal monitoring enabled (TM1)
Dec 16 21:58:51 re kernel: [    0.024000] process: using mwait in idle threads
Dec 16 21:58:51 re kernel: [    0.024000] Last level iTLB entries: 4KB 512, 2MB 7, 4MB 7
Dec 16 21:58:51 re kernel: [    0.024000] Last level dTLB entries: 4KB 512, 2MB 32, 4MB 32, 1GB 0
Dec 16 21:58:51 re kernel: [    0.024000] Spectre V2 : Mitigation: Full generic retpoline
Dec 16 21:58:51 re kernel: [    0.024000] Spectre V2 : Spectre v2 / SpectreRSB mitigation: Filling RSB on context switch
Dec 16 21:58:51 re kernel: [    0.024000] Spectre V2 : Spectre v2 mitigation: Enabling Indirect Branch Prediction Barrier
Dec 16 21:58:51 re kernel: [    0.024000] Spectre V2 : Enabling Restricted Speculation for firmware calls
Dec 16 21:58:51 re kernel: [    0.024000] Spectre V2 : Spectre v2 cross-process SMT mitigation: Enabling STIBP
Dec 16 21:58:51 re kernel: [    0.024000] Speculative Store Bypass: Mitigation: Speculative Store Bypass disabled via prctl and seccomp
Dec 16 21:58:51 re kernel: [    0.024000] Freeing SMP alternatives memory: 24K
Dec 16 21:58:51 re kernel: [    0.032000] smpboot: CPU0: Intel(R) Core(TM) i3 CPU       M 380  @ 2.53GHz (family: 0x6, model: 0x25, stepping: 0x5)
Dec 16 21:58:51 re kernel: [    0.032000] Performance Events: PEBS fmt1+, Westmere events, 16-deep LBR, Intel PMU driver.
Dec 16 21:58:51 re kernel: [    0.032000] core: CPUID marked event: 'bus cycles' unavailable
Dec 16 21:58:51 re kernel: [    0.032000] ... version:                3
Dec 16 21:58:51 re kernel: [    0.032000] ... bit width:              48
Dec 16 21:58:51 re kernel: [    0.032000] ... generic registers:      4
Dec 16 21:58:51 re kernel: [    0.032000] ... value mask:             0000ffffffffffff
Dec 16 21:58:51 re kernel: [    0.032000] ... max period:             000000007fffffff
Dec 16 21:58:51 re kernel: [    0.032000] ... fixed-purpose events:   3
Dec 16 21:58:51 re kernel: [    0.032000] ... event mask:             000000070000000f
Dec 16 21:58:51 re kernel: [    0.032000] Hierarchical SRCU implementation.
Dec 16 21:58:51 re kernel: [    0.032000] NMI watchdog: Enabled. Permanently consumes one hw-PMU counter.
Dec 16 21:58:51 re kernel: [    0.032000] smp: Bringing up secondary CPUs ...
Dec 16 21:58:51 re kernel: [    0.032000] x86: Booting SMP configuration:
Dec 16 21:58:51 re kernel: [    0.032000] .... node  #0, CPUs:      #1 #2 #3
Dec 16 21:58:51 re kernel: [    0.036040] smp: Brought up 1 node, 4 CPUs
Dec 16 21:58:51 re kernel: [    0.036040] smpboot: Max logical packages: 1
Dec 16 21:58:51 re kernel: [    0.036040] smpboot: Total of 4 processors activated (20215.44 BogoMIPS)
Dec 16 21:58:51 re kernel: [    0.040018] devtmpfs: initialized
Dec 16 21:58:51 re kernel: [    0.040073] x86/mm: Memory block size: 128MB
Dec 16 21:58:51 re kernel: [    0.040496] PM: Registering ACPI NVS region [mem 0xbb5a9000-0xbb5f0fff] (294912 bytes)
Dec 16 21:58:51 re kernel: [    0.040496] PM: Registering ACPI NVS region [mem 0xbb5fb000-0xbb5fdfff] (12288 bytes)
Dec 16 21:58:51 re kernel: [    0.040496] PM: Registering ACPI NVS region [mem 0xbb622000-0xbb62afff] (36864 bytes)
Dec 16 21:58:51 re kernel: [    0.040496] PM: Registering ACPI NVS region [mem 0xbb62e000-0xbb631fff] (16384 bytes)
Dec 16 21:58:51 re kernel: [    0.040496] PM: Registering ACPI NVS region [mem 0xbb652000-0xbb694fff] (274432 bytes)
Dec 16 21:58:51 re kernel: [    0.040496] clocksource: jiffies: mask: 0xffffffff max_cycles: 0xffffffff, max_idle_ns: 7645041785100000 ns
Dec 16 21:58:51 re kernel: [    0.040496] futex hash table entries: 1024 (order: 4, 65536 bytes)
Dec 16 21:58:51 re kernel: [    0.040496] pinctrl core: initialized pinctrl subsystem
Dec 16 21:58:51 re kernel: [    0.040496] NET: Registered protocol family 16
Dec 16 21:58:51 re kernel: [    0.040496] audit: initializing netlink subsys (disabled)
Dec 16 21:58:51 re kernel: [    0.040496] audit: type=2000 audit(1544968715.040:1): state=initialized audit_enabled=0 res=1
Dec 16 21:58:51 re kernel: [    0.040496] cpuidle: using governor ladder
Dec 16 21:58:51 re kernel: [    0.040496] cpuidle: using governor menu
Dec 16 21:58:51 re kernel: [    0.040496] ACPI: bus type PCI registered
Dec 16 21:58:51 re kernel: [    0.040496] acpiphp: ACPI Hot Plug PCI Controller Driver version: 0.5
Dec 16 21:58:51 re kernel: [    0.040496] PCI: MMCONFIG for domain 0000 [bus 00-ff] at [mem 0xe0000000-0xefffffff] (base 0xe0000000)
Dec 16 21:58:51 re kernel: [    0.040496] PCI: MMCONFIG at [mem 0xe0000000-0xefffffff] reserved in E820
Dec 16 21:58:51 re kernel: [    0.040496] pmd_set_huge: Cannot satisfy [mem 0xe0000000-0xe0200000] with a huge-page mapping due to MTRR override.
Dec 16 21:58:51 re kernel: [    0.040685] PCI: Using configuration type 1 for base access
Dec 16 21:58:51 re kernel: [    0.040842] HugeTLB registered 2.00 MiB page size, pre-allocated 0 pages
Dec 16 21:58:51 re kernel: [    0.040842] ACPI: Added _OSI(Module Device)
Dec 16 21:58:51 re kernel: [    0.040842] ACPI: Added _OSI(Processor Device)
Dec 16 21:58:51 re kernel: [    0.040842] ACPI: Added _OSI(3.0 _SCP Extensions)
Dec 16 21:58:51 re kernel: [    0.040842] ACPI: Added _OSI(Processor Aggregator Device)
Dec 16 21:58:51 re kernel: [    0.040842] ACPI: Added _OSI(Linux-Dell-Video)
Dec 16 21:58:51 re kernel: [    0.048002] ACPI: 2 ACPI AML tables successfully acquired and loaded
Dec 16 21:58:51 re kernel: [    0.048139] ACPI: [Firmware Bug]: BIOS _OSI(Linux) query ignored
Dec 16 21:58:51 re kernel: [    0.053152] ACPI: Dynamic OEM Table Load:
Dec 16 21:58:51 re kernel: [    0.053158] ACPI: SSDT 0xFFFF93B132B56800 0003A4 (v01 AMI    IST      00000001 MSFT 03000001)
Dec 16 21:58:51 re kernel: [    0.053952] ACPI: Interpreter enabled
Dec 16 21:58:51 re kernel: [    0.053973] ACPI: (supports S0 S3 S4 S5)
Dec 16 21:58:51 re kernel: [    0.053974] ACPI: Using IOAPIC for interrupt routing
Dec 16 21:58:51 re kernel: [    0.054009] PCI: Using host bridge windows from ACPI; if necessary, use "pci=nocrs" and report a bug
Dec 16 21:58:51 re kernel: [    0.056142] ACPI: Enabled 9 GPEs in block 00 to 3F
Dec 16 21:58:51 re kernel: [    0.068509] ACPI: PCI Root Bridge [PCI0] (domain 0000 [bus 00-ff])
Dec 16 21:58:51 re kernel: [    0.068515] acpi PNP0A08:00: _OSC: OS supports [ExtendedConfig ASPM ClockPM Segments MSI]
Dec 16 21:58:51 re kernel: [    0.068653] acpi PNP0A08:00: _OSC: platform does not support [PME LTR]
Dec 16 21:58:51 re kernel: [    0.068781] acpi PNP0A08:00: _OSC: OS now controls [PCIeHotplug SHPCHotplug AER PCIeCapability]
Dec 16 21:58:51 re kernel: [    0.069012] PCI host bridge to bus 0000:00
Dec 16 21:58:51 re kernel: [    0.069015] pci_bus 0000:00: root bus resource [io  0x0000-0x0cf7 window]
Dec 16 21:58:51 re kernel: [    0.069016] pci_bus 0000:00: root bus resource [io  0x0d00-0xffff window]
Dec 16 21:58:51 re kernel: [    0.069018] pci_bus 0000:00: root bus resource [mem 0x000a0000-0x000bffff window]
Dec 16 21:58:51 re kernel: [    0.069020] pci_bus 0000:00: root bus resource [mem 0xc0000000-0xffffffff window]
Dec 16 21:58:51 re kernel: [    0.069021] pci_bus 0000:00: root bus resource [bus 00-ff]
Dec 16 21:58:51 re kernel: [    0.069031] pci 0000:00:00.0: [8086:0044] type 00 class 0x060000
Dec 16 21:58:51 re kernel: [    0.069054] DMAR: BIOS has allocated no shadow GTT; disabling IOMMU for graphics
Dec 16 21:58:51 re kernel: [    0.069129] pci 0000:00:02.0: [8086:0046] type 00 class 0x030000
Dec 16 21:58:51 re kernel: [    0.069141] pci 0000:00:02.0: reg 0x10: [mem 0xfb000000-0xfb3fffff 64bit]
Dec 16 21:58:51 re kernel: [    0.069146] pci 0000:00:02.0: reg 0x18: [mem 0xc0000000-0xcfffffff 64bit pref]
Dec 16 21:58:51 re kernel: [    0.069150] pci 0000:00:02.0: reg 0x20: [io  0xf080-0xf087]
Dec 16 21:58:51 re kernel: [    0.069270] pci 0000:00:16.0: [8086:3b64] type 00 class 0x078000
Dec 16 21:58:51 re kernel: [    0.069303] pci 0000:00:16.0: reg 0x10: [mem 0xfbf09000-0xfbf0900f 64bit]
Dec 16 21:58:51 re kernel: [    0.069393] pci 0000:00:16.0: PME# supported from D0 D3hot D3cold
Dec 16 21:58:51 re kernel: [    0.069488] pci 0000:00:1a.0: [8086:3b3c] type 00 class 0x0c0320
Dec 16 21:58:51 re kernel: [    0.069514] pci 0000:00:1a.0: reg 0x10: [mem 0xfbf08000-0xfbf083ff]
Dec 16 21:58:51 re kernel: [    0.069615] pci 0000:00:1a.0: PME# supported from D0 D3hot D3cold
Dec 16 21:58:51 re kernel: [    0.069705] pci 0000:00:1b.0: [8086:3b56] type 00 class 0x040300
Dec 16 21:58:51 re kernel: [    0.069737] pci 0000:00:1b.0: reg 0x10: [mem 0xfbf00000-0xfbf03fff 64bit]
Dec 16 21:58:51 re kernel: [    0.069844] pci 0000:00:1b.0: PME# supported from D0 D3hot D3cold
Dec 16 21:58:51 re kernel: [    0.069933] pci 0000:00:1c.0: [8086:3b42] type 01 class 0x060400
Dec 16 21:58:51 re kernel: [    0.070042] pci 0000:00:1c.0: PME# supported from D0 D3hot D3cold
Dec 16 21:58:51 re kernel: [    0.070143] pci 0000:00:1c.1: [8086:3b44] type 01 class 0x060400
Dec 16 21:58:51 re kernel: [    0.070253] pci 0000:00:1c.1: PME# supported from D0 D3hot D3cold
Dec 16 21:58:51 re kernel: [    0.070352] pci 0000:00:1c.2: [8086:3b46] type 01 class 0x060400
Dec 16 21:58:51 re kernel: [    0.070460] pci 0000:00:1c.2: PME# supported from D0 D3hot D3cold
Dec 16 21:58:51 re kernel: [    0.070563] pci 0000:00:1c.4: [8086:3b4a] type 01 class 0x060400
Dec 16 21:58:51 re kernel: [    0.070669] pci 0000:00:1c.4: PME# supported from D0 D3hot D3cold
Dec 16 21:58:51 re kernel: [    0.070777] pci 0000:00:1d.0: [8086:3b34] type 00 class 0x0c0320
Dec 16 21:58:51 re kernel: [    0.070804] pci 0000:00:1d.0: reg 0x10: [mem 0xfbf07000-0xfbf073ff]
Dec 16 21:58:51 re kernel: [    0.070905] pci 0000:00:1d.0: PME# supported from D0 D3hot D3cold
Dec 16 21:58:51 re kernel: [    0.070991] pci 0000:00:1e.0: [8086:2448] type 01 class 0x060401
Dec 16 21:58:51 re kernel: [    0.072059] pci 0000:00:1f.0: [8086:3b0b] type 00 class 0x060100
Dec 16 21:58:51 re kernel: [    0.072243] pci 0000:00:1f.2: [8086:3b2f] type 00 class 0x010601
Dec 16 21:58:51 re kernel: [    0.072270] pci 0000:00:1f.2: reg 0x10: [io  0xf070-0xf077]
Dec 16 21:58:51 re kernel: [    0.072280] pci 0000:00:1f.2: reg 0x14: [io  0xf060-0xf063]
Dec 16 21:58:51 re kernel: [    0.072291] pci 0000:00:1f.2: reg 0x18: [io  0xf050-0xf057]
Dec 16 21:58:51 re kernel: [    0.072301] pci 0000:00:1f.2: reg 0x1c: [io  0xf040-0xf043]
Dec 16 21:58:51 re kernel: [    0.072312] pci 0000:00:1f.2: reg 0x20: [io  0xf020-0xf03f]
Dec 16 21:58:51 re kernel: [    0.072323] pci 0000:00:1f.2: reg 0x24: [mem 0xfbf06000-0xfbf067ff]
Dec 16 21:58:51 re kernel: [    0.072383] pci 0000:00:1f.2: PME# supported from D3hot
Dec 16 21:58:51 re kernel: [    0.072469] pci 0000:00:1f.3: [8086:3b30] type 00 class 0x0c0500
Dec 16 21:58:51 re kernel: [    0.072496] pci 0000:00:1f.3: reg 0x10: [mem 0xfbf05000-0xfbf050ff 64bit]
Dec 16 21:58:51 re kernel: [    0.072525] pci 0000:00:1f.3: reg 0x20: [io  0xf000-0xf01f]
Dec 16 21:58:51 re kernel: [    0.072629] pci 0000:00:1f.6: [8086:3b32] type 00 class 0x118000
Dec 16 21:58:51 re kernel: [    0.072660] pci 0000:00:1f.6: reg 0x10: [mem 0xfbf04000-0xfbf04fff 64bit]
Dec 16 21:58:51 re kernel: [    0.072885] pci 0000:00:1c.0: PCI bridge to [bus 11]
Dec 16 21:58:51 re kernel: [    0.073000] pci 0000:12:00.0: [14e4:4727] type 00 class 0x028000
Dec 16 21:58:51 re kernel: [    0.073052] pci 0000:12:00.0: reg 0x10: [mem 0xfbe00000-0xfbe03fff 64bit]
Dec 16 21:58:51 re kernel: [    0.073134] pci 0000:12:00.0: enabling Extended Tags
Dec 16 21:58:51 re kernel: [    0.073256] pci 0000:12:00.0: supports D1 D2
Dec 16 21:58:51 re kernel: [    0.073258] pci 0000:12:00.0: PME# supported from D0 D3hot D3cold
Dec 16 21:58:51 re kernel: [    0.073410] pci 0000:00:1c.1: PCI bridge to [bus 12]
Dec 16 21:58:51 re kernel: [    0.073417] pci 0000:00:1c.1:   bridge window [mem 0xfbe00000-0xfbefffff]
Dec 16 21:58:51 re kernel: [    0.073513] pci 0000:13:00.0: [10ec:8136] type 00 class 0x020000
Dec 16 21:58:51 re kernel: [    0.073542] pci 0000:13:00.0: reg 0x10: [io  0xe000-0xe0ff]
Dec 16 21:58:51 re kernel: [    0.073569] pci 0000:13:00.0: reg 0x18: [mem 0xd0b04000-0xd0b04fff 64bit pref]
Dec 16 21:58:51 re kernel: [    0.073588] pci 0000:13:00.0: reg 0x20: [mem 0xd0b00000-0xd0b03fff 64bit pref]
Dec 16 21:58:51 re kernel: [    0.073687] pci 0000:13:00.0: supports D1 D2
Dec 16 21:58:51 re kernel: [    0.073688] pci 0000:13:00.0: PME# supported from D0 D1 D2 D3hot D3cold
Dec 16 21:58:51 re kernel: [    0.073805] pci 0000:00:1c.2: PCI bridge to [bus 13]
Dec 16 21:58:51 re kernel: [    0.073810] pci 0000:00:1c.2:   bridge window [io  0xe000-0xefff]
Dec 16 21:58:51 re kernel: [    0.073819] pci 0000:00:1c.2:   bridge window [mem 0xd0b00000-0xd0bfffff 64bit pref]
Dec 16 21:58:51 re kernel: [    0.073898] pci 0000:00:1c.4: PCI bridge to [bus 15]
Dec 16 21:58:51 re kernel: [    0.073903] pci 0000:00:1c.4:   bridge window [io  0xd000-0xdfff]
Dec 16 21:58:51 re kernel: [    0.073907] pci 0000:00:1c.4:   bridge window [mem 0xfb400000-0xfbdfffff]
Dec 16 21:58:51 re kernel: [    0.073914] pci 0000:00:1c.4:   bridge window [mem 0xd0000000-0xd09fffff 64bit pref]
Dec 16 21:58:51 re kernel: [    0.073938] pci_bus 0000:20: extended config space not accessible
Dec 16 21:58:51 re kernel: [    0.073998] pci 0000:00:1e.0: PCI bridge to [bus 20] (subtractive decode)
Dec 16 21:58:51 re kernel: [    0.074010] pci 0000:00:1e.0:   bridge window [io  0x0000-0x0cf7 window] (subtractive decode)
Dec 16 21:58:51 re kernel: [    0.074011] pci 0000:00:1e.0:   bridge window [io  0x0d00-0xffff window] (subtractive decode)
Dec 16 21:58:51 re kernel: [    0.074013] pci 0000:00:1e.0:   bridge window [mem 0x000a0000-0x000bffff window] (subtractive decode)
Dec 16 21:58:51 re kernel: [    0.074015] pci 0000:00:1e.0:   bridge window [mem 0xc0000000-0xffffffff window] (subtractive decode)
Dec 16 21:58:51 re kernel: [    0.074368] ACPI: PCI Interrupt Link [LNKA] (IRQs 3 4 5 6 7 10 *11 12 14 15)
Dec 16 21:58:51 re kernel: [    0.074424] ACPI: PCI Interrupt Link [LNKB] (IRQs 3 4 *5 6 7 10 11 12 14 15)
Dec 16 21:58:51 re kernel: [    0.074479] ACPI: PCI Interrupt Link [LNKC] (IRQs *3 4 5 6 10 11 12 14 15)
Dec 16 21:58:51 re kernel: [    0.074533] ACPI: PCI Interrupt Link [LNKD] (IRQs 3 *4 5 6 10 11 12 14 15)
Dec 16 21:58:51 re kernel: [    0.074588] ACPI: PCI Interrupt Link [LNKE] (IRQs 3 4 5 6 7 10 11 12 14 15) *0
Dec 16 21:58:51 re kernel: [    0.074643] ACPI: PCI Interrupt Link [LNKF] (IRQs 3 4 5 6 7 10 11 12 14 15) *0
Dec 16 21:58:51 re kernel: [    0.074698] ACPI: PCI Interrupt Link [LNKG] (IRQs 3 4 5 6 7 *10 11 12 14 15)
Dec 16 21:58:51 re kernel: [    0.074753] ACPI: PCI Interrupt Link [LNKH] (IRQs 3 4 5 6 *7 10 11 12 14 15)
Dec 16 21:58:51 re kernel: [    0.076019] pci 0000:00:02.0: vgaarb: setting as boot VGA device
Dec 16 21:58:51 re kernel: [    0.076019] pci 0000:00:02.0: vgaarb: VGA device added: decodes=io+mem,owns=io+mem,locks=none
Dec 16 21:58:51 re kernel: [    0.076019] pci 0000:00:02.0: vgaarb: bridge control possible
Dec 16 21:58:51 re kernel: [    0.076019] vgaarb: loaded
Dec 16 21:58:51 re kernel: [    0.076087] pps_core: LinuxPPS API ver. 1 registered
Dec 16 21:58:51 re kernel: [    0.076088] pps_core: Software ver. 5.3.6 - Copyright 2005-2007 Rodolfo Giometti <giometti@linux.it>
Dec 16 21:58:51 re kernel: [    0.076090] PTP clock support registered
Dec 16 21:58:51 re kernel: [    0.076097] EDAC MC: Ver: 3.0.0
Dec 16 21:58:51 re kernel: [    0.076187] PCI: Using ACPI for IRQ routing
Dec 16 21:58:51 re kernel: [    0.086508] PCI: Discovered peer bus ff
Dec 16 21:58:51 re kernel: [    0.086508] PCI: root bus ff: using default resources
Dec 16 21:58:51 re kernel: [    0.086509] PCI: Probing PCI hardware (bus ff)
Dec 16 21:58:51 re kernel: [    0.086534] PCI host bridge to bus 0000:ff
Dec 16 21:58:51 re kernel: [    0.086537] pci_bus 0000:ff: root bus resource [io  0x0000-0xffff]
Dec 16 21:58:51 re kernel: [    0.086538] pci_bus 0000:ff: root bus resource [mem 0x00000000-0xfffffffff]
Dec 16 21:58:51 re kernel: [    0.086540] pci_bus 0000:ff: No busn resource found for root bus, will use [bus ff-ff]
Dec 16 21:58:51 re kernel: [    0.086542] pci_bus 0000:ff: busn_res: can not insert [bus ff] under domain [bus 00-ff] (conflicts with (null) [bus 00-ff])
Dec 16 21:58:51 re kernel: [    0.086548] pci 0000:ff:00.0: [8086:2c62] type 00 class 0x060000
Dec 16 21:58:51 re kernel: [    0.086592] pci 0000:ff:00.1: [8086:2d01] type 00 class 0x060000
Dec 16 21:58:51 re kernel: [    0.086634] pci 0000:ff:02.0: [8086:2d10] type 00 class 0x060000
Dec 16 21:58:51 re kernel: [    0.086674] pci 0000:ff:02.1: [8086:2d11] type 00 class 0x060000
Dec 16 21:58:51 re kernel: [    0.086713] pci 0000:ff:02.2: [8086:2d12] type 00 class 0x060000
Dec 16 21:58:51 re kernel: [    0.086752] pci 0000:ff:02.3: [8086:2d13] type 00 class 0x060000
Dec 16 21:58:51 re kernel: [    0.086799] pci_bus 0000:ff: busn_res: [bus ff] end is updated to ff
Dec 16 21:58:51 re kernel: [    0.086802] pci_bus 0000:ff: busn_res: can not insert [bus ff] under domain [bus 00-ff] (conflicts with (null) [bus 00-ff])
Dec 16 21:58:51 re kernel: [    0.086804] PCI: pci_cache_line_size set to 64 bytes
Dec 16 21:58:51 re kernel: [    0.086865] e820: reserve RAM buffer [mem 0x0009d400-0x0009ffff]
Dec 16 21:58:51 re kernel: [    0.086866] e820: reserve RAM buffer [mem 0xbb5a9000-0xbbffffff]
Dec 16 21:58:51 re kernel: [    0.086868] e820: reserve RAM buffer [mem 0xbb800000-0xbbffffff]
Dec 16 21:58:51 re kernel: [    0.086991] hpet0: at MMIO 0xfed00000, IRQs 2, 8, 0, 0, 0, 0, 0, 0
Dec 16 21:58:51 re kernel: [    0.086991] hpet0: 8 comparators, 64-bit 14.318180 MHz counter
Dec 16 21:58:51 re kernel: [    0.089036] clocksource: Switched to clocksource tsc-early
Dec 16 21:58:51 re kernel: [    0.099715] VFS: Disk quotas dquot_6.6.0
Dec 16 21:58:51 re kernel: [    0.099736] VFS: Dquot-cache hash table entries: 512 (order 0, 4096 bytes)
Dec 16 21:58:51 re kernel: [    0.099867] AppArmor: AppArmor Filesystem Enabled
Dec 16 21:58:51 re kernel: [    0.099893] pnp: PnP ACPI init
Dec 16 21:58:51 re kernel: [    0.100076] system 00:00: [mem 0xfed14000-0xfed19fff] has been reserved
Dec 16 21:58:51 re kernel: [    0.100079] system 00:00: [mem 0xe0000000-0xefffffff] has been reserved
Dec 16 21:58:51 re kernel: [    0.100081] system 00:00: [mem 0xfed90000-0xfed93fff] has been reserved
Dec 16 21:58:51 re kernel: [    0.100082] system 00:00: [mem 0xfed20000-0xfed3ffff] has been reserved
Dec 16 21:58:51 re kernel: [    0.100084] system 00:00: [mem 0xfee00000-0xfee0ffff] has been reserved
Dec 16 21:58:51 re kernel: [    0.100091] system 00:00: Plug and Play ACPI device, IDs PNP0c01 (active)
Dec 16 21:58:51 re kernel: [    0.100135] pnp 00:01: Plug and Play ACPI device, IDs PNP0b00 (active)
Dec 16 21:58:51 re kernel: [    0.100194] system 00:02: [io  0x04d0-0x04d1] has been reserved
Dec 16 21:58:51 re kernel: [    0.100197] system 00:02: [mem 0xfe800000-0xfe8001ff] has been reserved
Dec 16 21:58:51 re kernel: [    0.100201] system 00:02: Plug and Play ACPI device, IDs PNP0c02 (active)
Dec 16 21:58:51 re kernel: [    0.100235] pnp 00:03: Plug and Play ACPI device, IDs DLL0505 SYN0600 SYN0002 PNP0f13 (active)
Dec 16 21:58:51 re kernel: [    0.100268] pnp 00:04: Plug and Play ACPI device, IDs PNP0303 (active)
Dec 16 21:58:51 re kernel: [    0.100426] system 00:05: [io  0x0400-0x047f] has been reserved
Dec 16 21:58:51 re kernel: [    0.100428] system 00:05: [io  0x1180-0x119f] has been reserved
Dec 16 21:58:51 re kernel: [    0.100430] system 00:05: [io  0x0500-0x057f] has been reserved
Dec 16 21:58:51 re kernel: [    0.100432] system 00:05: [mem 0xfed1c000-0xfed1ffff] has been reserved
Dec 16 21:58:51 re kernel: [    0.100434] system 00:05: [mem 0xfec00000-0xfecfffff] could not be reserved
Dec 16 21:58:51 re kernel: [    0.100436] system 00:05: [mem 0xfed08000-0xfed08fff] has been reserved
Dec 16 21:58:51 re kernel: [    0.100438] system 00:05: [mem 0xff000000-0xffffffff] has been reserved
Dec 16 21:58:51 re kernel: [    0.100443] system 00:05: Plug and Play ACPI device, IDs PNP0c01 (active)
Dec 16 21:58:51 re kernel: [    0.100706] pnp: PnP ACPI: found 6 devices
Dec 16 21:58:51 re kernel: [    0.106601] clocksource: acpi_pm: mask: 0xffffff max_cycles: 0xffffff, max_idle_ns: 2085701024 ns
Dec 16 21:58:51 re kernel: [    0.106620] pci 0000:00:1c.0: bridge window [io  0x1000-0x0fff] to [bus 11] add_size 1000
Dec 16 21:58:51 re kernel: [    0.106623] pci 0000:00:1c.0: bridge window [mem 0x00100000-0x000fffff 64bit pref] to [bus 11] add_size 200000 add_align 100000
Dec 16 21:58:51 re kernel: [    0.106625] pci 0000:00:1c.0: bridge window [mem 0x00100000-0x000fffff] to [bus 11] add_size 200000 add_align 100000
Dec 16 21:58:51 re kernel: [    0.106635] pci 0000:00:1c.1: bridge window [io  0x1000-0x0fff] to [bus 12] add_size 1000
Dec 16 21:58:51 re kernel: [    0.106637] pci 0000:00:1c.1: bridge window [mem 0x00100000-0x000fffff 64bit pref] to [bus 12] add_size 200000 add_align 100000
Dec 16 21:58:51 re kernel: [    0.106649] pci 0000:00:1c.2: bridge window [mem 0x00100000-0x000fffff] to [bus 13] add_size 400000 add_align 100000
Dec 16 21:58:51 re kernel: [    0.106674] pci 0000:00:1c.0: BAR 14: assigned [mem 0xd0c00000-0xd0dfffff]
Dec 16 21:58:51 re kernel: [    0.106679] pci 0000:00:1c.0: BAR 15: assigned [mem 0xd0e00000-0xd0ffffff 64bit pref]
Dec 16 21:58:51 re kernel: [    0.106683] pci 0000:00:1c.1: BAR 15: assigned [mem 0xd1000000-0xd11fffff 64bit pref]
Dec 16 21:58:51 re kernel: [    0.106685] pci 0000:00:1c.2: BAR 14: assigned [mem 0xd1200000-0xd15fffff]
Dec 16 21:58:51 re kernel: [    0.106687] pci 0000:00:1c.0: BAR 13: assigned [io  0x2000-0x2fff]
Dec 16 21:58:51 re kernel: [    0.106689] pci 0000:00:1c.1: BAR 13: assigned [io  0x3000-0x3fff]
Dec 16 21:58:51 re kernel: [    0.106692] pci 0000:00:1c.0: PCI bridge to [bus 11]
Dec 16 21:58:51 re kernel: [    0.106696] pci 0000:00:1c.0:   bridge window [io  0x2000-0x2fff]
Dec 16 21:58:51 re kernel: [    0.106702] pci 0000:00:1c.0:   bridge window [mem 0xd0c00000-0xd0dfffff]
Dec 16 21:58:51 re kernel: [    0.106706] pci 0000:00:1c.0:   bridge window [mem 0xd0e00000-0xd0ffffff 64bit pref]
Dec 16 21:58:51 re kernel: [    0.106713] pci 0000:00:1c.1: PCI bridge to [bus 12]
Dec 16 21:58:51 re kernel: [    0.106715] pci 0000:00:1c.1:   bridge window [io  0x3000-0x3fff]
Dec 16 21:58:51 re kernel: [    0.106721] pci 0000:00:1c.1:   bridge window [mem 0xfbe00000-0xfbefffff]
Dec 16 21:58:51 re kernel: [    0.106725] pci 0000:00:1c.1:   bridge window [mem 0xd1000000-0xd11fffff 64bit pref]
Dec 16 21:58:51 re kernel: [    0.106732] pci 0000:00:1c.2: PCI bridge to [bus 13]
Dec 16 21:58:51 re kernel: [    0.106735] pci 0000:00:1c.2:   bridge window [io  0xe000-0xefff]
Dec 16 21:58:51 re kernel: [    0.106741] pci 0000:00:1c.2:   bridge window [mem 0xd1200000-0xd15fffff]
Dec 16 21:58:51 re kernel: [    0.106745] pci 0000:00:1c.2:   bridge window [mem 0xd0b00000-0xd0bfffff 64bit pref]
Dec 16 21:58:51 re kernel: [    0.106753] pci 0000:00:1c.4: PCI bridge to [bus 15]
Dec 16 21:58:51 re kernel: [    0.106755] pci 0000:00:1c.4:   bridge window [io  0xd000-0xdfff]
Dec 16 21:58:51 re kernel: [    0.106761] pci 0000:00:1c.4:   bridge window [mem 0xfb400000-0xfbdfffff]
Dec 16 21:58:51 re kernel: [    0.106765] pci 0000:00:1c.4:   bridge window [mem 0xd0000000-0xd09fffff 64bit pref]
Dec 16 21:58:51 re kernel: [    0.106773] pci 0000:00:1e.0: PCI bridge to [bus 20]
Dec 16 21:58:51 re kernel: [    0.106787] pci_bus 0000:00: resource 4 [io  0x0000-0x0cf7 window]
Dec 16 21:58:51 re kernel: [    0.106789] pci_bus 0000:00: resource 5 [io  0x0d00-0xffff window]
Dec 16 21:58:51 re kernel: [    0.106790] pci_bus 0000:00: resource 6 [mem 0x000a0000-0x000bffff window]
Dec 16 21:58:51 re kernel: [    0.106792] pci_bus 0000:00: resource 7 [mem 0xc0000000-0xffffffff window]
Dec 16 21:58:51 re kernel: [    0.106794] pci_bus 0000:11: resource 0 [io  0x2000-0x2fff]
Dec 16 21:58:51 re kernel: [    0.106795] pci_bus 0000:11: resource 1 [mem 0xd0c00000-0xd0dfffff]
Dec 16 21:58:51 re kernel: [    0.106797] pci_bus 0000:11: resource 2 [mem 0xd0e00000-0xd0ffffff 64bit pref]
Dec 16 21:58:51 re kernel: [    0.106798] pci_bus 0000:12: resource 0 [io  0x3000-0x3fff]
Dec 16 21:58:51 re kernel: [    0.106800] pci_bus 0000:12: resource 1 [mem 0xfbe00000-0xfbefffff]
Dec 16 21:58:51 re kernel: [    0.106801] pci_bus 0000:12: resource 2 [mem 0xd1000000-0xd11fffff 64bit pref]
Dec 16 21:58:51 re kernel: [    0.106803] pci_bus 0000:13: resource 0 [io  0xe000-0xefff]
Dec 16 21:58:51 re kernel: [    0.106804] pci_bus 0000:13: resource 1 [mem 0xd1200000-0xd15fffff]
Dec 16 21:58:51 re kernel: [    0.106806] pci_bus 0000:13: resource 2 [mem 0xd0b00000-0xd0bfffff 64bit pref]
Dec 16 21:58:51 re kernel: [    0.106807] pci_bus 0000:15: resource 0 [io  0xd000-0xdfff]
Dec 16 21:58:51 re kernel: [    0.106809] pci_bus 0000:15: resource 1 [mem 0xfb400000-0xfbdfffff]
Dec 16 21:58:51 re kernel: [    0.106810] pci_bus 0000:15: resource 2 [mem 0xd0000000-0xd09fffff 64bit pref]
Dec 16 21:58:51 re kernel: [    0.106812] pci_bus 0000:20: resource 4 [io  0x0000-0x0cf7 window]
Dec 16 21:58:51 re kernel: [    0.106814] pci_bus 0000:20: resource 5 [io  0x0d00-0xffff window]
Dec 16 21:58:51 re kernel: [    0.106815] pci_bus 0000:20: resource 6 [mem 0x000a0000-0x000bffff window]
Dec 16 21:58:51 re kernel: [    0.106816] pci_bus 0000:20: resource 7 [mem 0xc0000000-0xffffffff window]
Dec 16 21:58:51 re kernel: [    0.106871] pci_bus 0000:ff: resource 4 [io  0x0000-0xffff]
Dec 16 21:58:51 re kernel: [    0.106872] pci_bus 0000:ff: resource 5 [mem 0x00000000-0xfffffffff]
Dec 16 21:58:51 re kernel: [    0.106909] NET: Registered protocol family 2
Dec 16 21:58:51 re kernel: [    0.107089] tcp_listen_portaddr_hash hash table entries: 2048 (order: 3, 32768 bytes)
Dec 16 21:58:51 re kernel: [    0.107108] TCP established hash table entries: 32768 (order: 6, 262144 bytes)
Dec 16 21:58:51 re kernel: [    0.107185] TCP bind hash table entries: 32768 (order: 7, 524288 bytes)
Dec 16 21:58:51 re kernel: [    0.107293] TCP: Hash tables configured (established 32768 bind 32768)
Dec 16 21:58:51 re kernel: [    0.107339] UDP hash table entries: 2048 (order: 4, 65536 bytes)
Dec 16 21:58:51 re kernel: [    0.107356] UDP-Lite hash table entries: 2048 (order: 4, 65536 bytes)
Dec 16 21:58:51 re kernel: [    0.107411] NET: Registered protocol family 1
Dec 16 21:58:51 re kernel: [    0.107458] pci 0000:00:02.0: Video device with shadowed ROM at [mem 0x000c0000-0x000dffff]
Dec 16 21:58:51 re kernel: [    0.239005] pci 0000:00:1a.0: quirk_usb_early_handoff+0x0/0x6b0 took 128452 usecs
Dec 16 21:58:51 re kernel: [    0.370997] pci 0000:00:1d.0: quirk_usb_early_handoff+0x0/0x6b0 took 128875 usecs
Dec 16 21:58:51 re kernel: [    0.371024] PCI: CLS mismatch (64 != 32), using 64 bytes
Dec 16 21:58:51 re kernel: [    0.371083] Unpacking initramfs...
Dec 16 21:58:51 re kernel: [    0.976989] Freeing initrd memory: 36752K
Dec 16 21:58:51 re kernel: [    0.977016] PCI-DMA: Using software bounce buffering for IO (SWIOTLB)
Dec 16 21:58:51 re kernel: [    0.977019] software IO TLB [mem 0xb75a9000-0xbb5a9000] (64MB) mapped at [(____ptrval____)-(____ptrval____)]
Dec 16 21:58:51 re kernel: [    0.977801] Initialise system trusted keyrings
Dec 16 21:58:51 re kernel: [    0.977889] workingset: timestamp_bits=40 max_order=20 bucket_order=0
Dec 16 21:58:51 re kernel: [    0.979200] zbud: loaded
Dec 16 21:58:51 re kernel: [    0.979459] pstore: using deflate compression
Dec 16 21:58:51 re kernel: [    1.388517] Key type asymmetric registered
Dec 16 21:58:51 re kernel: [    1.388519] Asymmetric key parser 'x509' registered
Dec 16 21:58:51 re kernel: [    1.388567] Block layer SCSI generic (bsg) driver version 0.4 loaded (major 248)
Dec 16 21:58:51 re kernel: [    1.388600] io scheduler noop registered
Dec 16 21:58:51 re kernel: [    1.388601] io scheduler deadline registered
Dec 16 21:58:51 re kernel: [    1.388631] io scheduler cfq registered (default)
Dec 16 21:58:51 re kernel: [    1.388632] io scheduler mq-deadline registered
Dec 16 21:58:51 re kernel: [    1.389572] pciehp 0000:00:1c.0:pcie004: Slot #0 AttnBtn- PwrCtrl- MRL- AttnInd- PwrInd- HotPlug+ Surprise+ Interlock- NoCompl+ LLActRep+
Dec 16 21:58:51 re kernel: [    1.389625] pciehp 0000:00:1c.1:pcie004: Slot #0 AttnBtn- PwrCtrl- MRL- AttnInd- PwrInd- HotPlug+ Surprise+ Interlock- NoCompl+ LLActRep+
Dec 16 21:58:51 re kernel: [    1.389668] pciehp 0000:00:1c.2:pcie004: Slot #0 AttnBtn- PwrCtrl- MRL- AttnInd- PwrInd- HotPlug+ Surprise+ Interlock- NoCompl+ LLActRep+
Dec 16 21:58:51 re kernel: [    1.389709] pciehp 0000:00:1c.4:pcie004: Slot #0 AttnBtn- PwrCtrl- MRL- AttnInd- PwrInd- HotPlug+ Surprise+ Interlock- NoCompl+ LLActRep+
Dec 16 21:58:51 re kernel: [    1.389752] shpchp: Standard Hot Plug PCI Controller Driver version: 0.4
Dec 16 21:58:51 re kernel: [    1.389768] intel_idle: MWAIT substates: 0x1120
Dec 16 21:58:51 re kernel: [    1.389769] intel_idle: v0.4.1 model 0x25
Dec 16 21:58:51 re kernel: [    1.389910] intel_idle: lapic_timer_reliable_states 0xffffffff
Dec 16 21:58:51 re kernel: [    1.390472] Serial: 8250/16550 driver, 4 ports, IRQ sharing enabled
Dec 16 21:58:51 re kernel: [    1.390947] Linux agpgart interface v0.103
Dec 16 21:58:51 re kernel: [    1.391063] AMD IOMMUv2 driver by Joerg Roedel <jroedel@suse.de>
Dec 16 21:58:51 re kernel: [    1.391063] AMD IOMMUv2 functionality not available on this system
Dec 16 21:58:51 re kernel: [    1.391365] i8042: PNP: PS/2 Controller [PNP0303:KBC,PNP0f13:PS2] at 0x60,0x64 irq 1,12
Dec 16 21:58:51 re kernel: [    1.419431] serio: i8042 KBD port at 0x60,0x64 irq 1
Dec 16 21:58:51 re kernel: [    1.419436] serio: i8042 AUX port at 0x60,0x64 irq 12
Dec 16 21:58:51 re kernel: [    1.419606] mousedev: PS/2 mouse device common for all mice
Dec 16 21:58:51 re kernel: [    1.420591] rtc_cmos 00:01: RTC can wake from S4
Dec 16 21:58:51 re kernel: [    1.420805] rtc_cmos 00:01: registered as rtc0
Dec 16 21:58:51 re kernel: [    1.420823] rtc_cmos 00:01: alarms up to one year, y3k, 114 bytes nvram, hpet irqs
Dec 16 21:58:51 re kernel: [    1.421158] ledtrig-cpu: registered to indicate activity on CPUs
Dec 16 21:58:51 re kernel: [    1.421689] NET: Registered protocol family 10
Dec 16 21:58:51 re kernel: [    1.427971] Segment Routing with IPv6
Dec 16 21:58:51 re kernel: [    1.427996] mip6: Mobile IPv6
Dec 16 21:58:51 re kernel: [    1.427998] NET: Registered protocol family 17
Dec 16 21:58:51 re kernel: [    1.428012] mpls_gso: MPLS GSO support
Dec 16 21:58:51 re kernel: [    1.428544] microcode: sig=0x20655, pf=0x10, revision=0x7
Dec 16 21:58:51 re kernel: [    1.428632] microcode: Microcode Update Driver: v2.2.
Dec 16 21:58:51 re kernel: [    1.428657] sched_clock: Marking stable (1428616361, 0)->(1521812914, -93196553)
Dec 16 21:58:51 re kernel: [    1.428951] registered taskstats version 1
Dec 16 21:58:51 re kernel: [    1.428952] Loading compiled-in X.509 certificates
Dec 16 21:58:51 re kernel: [    1.453411] input: AT Translated Set 2 keyboard as /devices/platform/i8042/serio0/input/input0
Dec 16 21:58:51 re kernel: [    1.485050] Loaded X.509 cert 'secure-boot-test-key-lfaraone: 97c1b25cddf9873ca78a58f3d73bf727d2cf78ff'
Dec 16 21:58:51 re kernel: [    1.485077] zswap: loaded using pool lzo/zbud
Dec 16 21:58:51 re kernel: [    1.485228] AppArmor: AppArmor sha1 policy hashing enabled
Dec 16 21:58:51 re kernel: [    1.485719] rtc_cmos 00:01: setting system clock to 2018-12-16 13:58:37 UTC (1544968717)
Dec 16 21:58:51 re kernel: [    1.487780] Freeing unused kernel image memory: 1568K
Dec 16 21:58:51 re kernel: [    1.508091] Write protecting the kernel read-only data: 16384k
Dec 16 21:58:51 re kernel: [    1.508938] Freeing unused kernel image memory: 2028K
Dec 16 21:58:51 re kernel: [    1.509288] Freeing unused kernel image memory: 840K
Dec 16 21:58:51 re kernel: [    1.518075] x86/mm: Checked W+X mappings: passed, no W+X pages found.
Dec 16 21:58:51 re kernel: [    1.518076] x86/mm: Checking user space page tables
Dec 16 21:58:51 re kernel: [    1.526219] x86/mm: Checked W+X mappings: passed, no W+X pages found.
Dec 16 21:58:51 re kernel: [    1.668896] r8169 Gigabit Ethernet driver 2.3LK-NAPI loaded
Dec 16 21:58:51 re kernel: [    1.673982] i801_smbus 0000:00:1f.3: SMBus using PCI interrupt
Dec 16 21:58:51 re kernel: [    1.676813] r8169 0000:13:00.0 eth0: RTL8105e, 18:03:73:78:2a:62, XID 40a00000, IRQ 28
Dec 16 21:58:51 re kernel: [    1.677404] ACPI: bus type USB registered
Dec 16 21:58:51 re kernel: [    1.677439] usbcore: registered new interface driver usbfs
Dec 16 21:58:51 re kernel: [    1.677453] usbcore: registered new interface driver hub
Dec 16 21:58:51 re kernel: [    1.677491] usbcore: registered new device driver usb
Dec 16 21:58:51 re kernel: [    1.683098] SCSI subsystem initialized
Dec 16 21:58:51 re kernel: [    1.684873] ehci_hcd: USB 2.0 'Enhanced' Host Controller (EHCI) Driver
Dec 16 21:58:51 re kernel: [    1.688739] ehci-pci: EHCI PCI platform driver
Dec 16 21:58:51 re kernel: [    1.689393] libata version 3.00 loaded.
Dec 16 21:58:51 re kernel: [    1.689891] thermal LNXTHERM:00: registered as thermal_zone0
Dec 16 21:58:51 re kernel: [    1.689893] ACPI: Thermal Zone [THM] (72 C)
Dec 16 21:58:51 re kernel: [    1.690399] ehci-pci 0000:00:1a.0: EHCI Host Controller
Dec 16 21:58:51 re kernel: [    1.690409] ehci-pci 0000:00:1a.0: new USB bus registered, assigned bus number 1
Dec 16 21:58:51 re kernel: [    1.690427] ehci-pci 0000:00:1a.0: debug port 2
Dec 16 21:58:51 re kernel: [    1.694432] ehci-pci 0000:00:1a.0: cache line size of 64 is not supported
Dec 16 21:58:51 re kernel: [    1.694455] ehci-pci 0000:00:1a.0: irq 16, io mem 0xfbf08000
Dec 16 21:58:51 re kernel: [    1.695114] ahci 0000:00:1f.2: version 3.0
Dec 16 21:58:51 re kernel: [    1.705462] ahci 0000:00:1f.2: AHCI 0001.0300 32 slots 6 ports 3 Gbps 0x3f impl SATA mode
Dec 16 21:58:51 re kernel: [    1.705466] ahci 0000:00:1f.2: flags: 64bit ncq sntf ilck pm led clo pio slum part ems sxs apst 
Dec 16 21:58:51 re kernel: [    1.708019] ehci-pci 0000:00:1a.0: USB 2.0 started, EHCI 1.00
Dec 16 21:58:51 re kernel: [    1.708079] usb usb1: New USB device found, idVendor=1d6b, idProduct=0002, bcdDevice= 4.18
Dec 16 21:58:51 re kernel: [    1.708081] usb usb1: New USB device strings: Mfr=3, Product=2, SerialNumber=1
Dec 16 21:58:51 re kernel: [    1.708083] usb usb1: Product: EHCI Host Controller
Dec 16 21:58:51 re kernel: [    1.708084] usb usb1: Manufacturer: Linux 4.18.0-kali3-amd64 ehci_hcd
Dec 16 21:58:51 re kernel: [    1.708085] usb usb1: SerialNumber: 0000:00:1a.0
Dec 16 21:58:51 re kernel: [    1.708254] hub 1-0:1.0: USB hub found
Dec 16 21:58:51 re kernel: [    1.708267] hub 1-0:1.0: 2 ports detected
Dec 16 21:58:51 re kernel: [    1.708647] ehci-pci 0000:00:1d.0: EHCI Host Controller
Dec 16 21:58:51 re kernel: [    1.708653] ehci-pci 0000:00:1d.0: new USB bus registered, assigned bus number 2
Dec 16 21:58:51 re kernel: [    1.708668] ehci-pci 0000:00:1d.0: debug port 2
Dec 16 21:58:51 re kernel: [    1.712669] ehci-pci 0000:00:1d.0: cache line size of 64 is not supported
Dec 16 21:58:51 re kernel: [    1.713380] ehci-pci 0000:00:1d.0: irq 23, io mem 0xfbf07000
Dec 16 21:58:51 re kernel: [    1.728112] ehci-pci 0000:00:1d.0: USB 2.0 started, EHCI 1.00
Dec 16 21:58:51 re kernel: [    1.728210] usb usb2: New USB device found, idVendor=1d6b, idProduct=0002, bcdDevice= 4.18
Dec 16 21:58:51 re kernel: [    1.728213] usb usb2: New USB device strings: Mfr=3, Product=2, SerialNumber=1
Dec 16 21:58:51 re kernel: [    1.728215] usb usb2: Product: EHCI Host Controller
Dec 16 21:58:51 re kernel: [    1.728218] usb usb2: Manufacturer: Linux 4.18.0-kali3-amd64 ehci_hcd
Dec 16 21:58:51 re kernel: [    1.728220] usb usb2: SerialNumber: 0000:00:1d.0
Dec 16 21:58:51 re kernel: [    1.728412] hub 2-0:1.0: USB hub found
Dec 16 21:58:51 re kernel: [    1.728432] hub 2-0:1.0: 2 ports detected
Dec 16 21:58:51 re kernel: [    1.768721] scsi host0: ahci
Dec 16 21:58:51 re kernel: [    1.768994] scsi host1: ahci
Dec 16 21:58:51 re kernel: [    1.769146] scsi host2: ahci
Dec 16 21:58:51 re kernel: [    1.769286] scsi host3: ahci
Dec 16 21:58:51 re kernel: [    1.769421] scsi host4: ahci
Dec 16 21:58:51 re kernel: [    1.769547] scsi host5: ahci
Dec 16 21:58:51 re kernel: [    1.769627] ata1: SATA max UDMA/133 abar m2048@0xfbf06000 port 0xfbf06100 irq 29
Dec 16 21:58:51 re kernel: [    1.769630] ata2: SATA max UDMA/133 abar m2048@0xfbf06000 port 0xfbf06180 irq 29
Dec 16 21:58:51 re kernel: [    1.769632] ata3: SATA max UDMA/133 abar m2048@0xfbf06000 port 0xfbf06200 irq 29
Dec 16 21:58:51 re kernel: [    1.769635] ata4: SATA max UDMA/133 abar m2048@0xfbf06000 port 0xfbf06280 irq 29
Dec 16 21:58:51 re kernel: [    1.769638] ata5: SATA max UDMA/133 abar m2048@0xfbf06000 port 0xfbf06300 irq 29
Dec 16 21:58:51 re kernel: [    1.769640] ata6: SATA max UDMA/133 abar m2048@0xfbf06000 port 0xfbf06380 irq 29
Dec 16 21:58:51 re kernel: [    1.788083] tsc: Refined TSC clocksource calibration: 2526.913 MHz
Dec 16 21:58:51 re kernel: [    1.788093] clocksource: tsc: mask: 0xffffffffffffffff max_cycles: 0x246c89686a4, max_idle_ns: 440795245136 ns
Dec 16 21:58:51 re kernel: [    1.788159] clocksource: Switched to clocksource tsc
Dec 16 21:58:51 re kernel: [    2.044087] usb 1-1: new high-speed USB device number 2 using ehci-pci
Dec 16 21:58:51 re kernel: [    2.064077] usb 2-1: new high-speed USB device number 2 using ehci-pci
Dec 16 21:58:51 re kernel: [    2.083644] ata5: SATA link down (SStatus 0 SControl 300)
Dec 16 21:58:51 re kernel: [    2.083683] ata2: SATA link up 1.5 Gbps (SStatus 113 SControl 300)
Dec 16 21:58:51 re kernel: [    2.083719] ata4: SATA link down (SStatus 0 SControl 300)
Dec 16 21:58:51 re kernel: [    2.083758] ata1: SATA link up 3.0 Gbps (SStatus 123 SControl 300)
Dec 16 21:58:51 re kernel: [    2.083789] ata6: SATA link down (SStatus 0 SControl 300)
Dec 16 21:58:51 re kernel: [    2.083814] ata3: SATA link down (SStatus 0 SControl 300)
Dec 16 21:58:51 re kernel: [    2.085486] ata1.00: ATA-8: WDC WD3200BPVT-00ZEST0, 01.01A01, max UDMA/133
Dec 16 21:58:51 re kernel: [    2.085489] ata1.00: 625142448 sectors, multi 16: LBA48 NCQ (depth 32), AA
Dec 16 21:58:51 re kernel: [    2.088128] ata1.00: configured for UDMA/133
Dec 16 21:58:51 re kernel: [    2.088391] scsi 0:0:0:0: Direct-Access     ATA      WDC WD3200BPVT-0 1A01 PQ: 0 ANSI: 5
Dec 16 21:58:51 re kernel: [    2.095169] ata2.00: ATAPI: TSSTcorp DVD+/-RW TS-L633J, D500, max UDMA/100
Dec 16 21:58:51 re kernel: [    2.105638] ata2.00: configured for UDMA/100
Dec 16 21:58:51 re kernel: [    2.118087] scsi 1:0:0:0: CD-ROM            TSSTcorp DVD+-RW TS-L633J D500 PQ: 0 ANSI: 5
Dec 16 21:58:51 re kernel: [    2.150984] sd 0:0:0:0: [sda] 625142448 512-byte logical blocks: (320 GB/298 GiB)
Dec 16 21:58:51 re kernel: [    2.150987] sd 0:0:0:0: [sda] 4096-byte physical blocks
Dec 16 21:58:51 re kernel: [    2.150999] sd 0:0:0:0: [sda] Write Protect is off
Dec 16 21:58:51 re kernel: [    2.151001] sd 0:0:0:0: [sda] Mode Sense: 00 3a 00 00
Dec 16 21:58:51 re kernel: [    2.151015] sd 0:0:0:0: [sda] Write cache: enabled, read cache: enabled, doesn't support DPO or FUA
Dec 16 21:58:51 re kernel: [    2.194816] sr 1:0:0:0: [sr0] scsi3-mmc drive: 24x/24x writer dvd-ram cd/rw xa/form2 cdda tray
Dec 16 21:58:51 re kernel: [    2.194818] cdrom: Uniform CD-ROM driver Revision: 3.20
Dec 16 21:58:51 re kernel: [    2.195059] sr 1:0:0:0: Attached scsi CD-ROM sr0
Dec 16 21:58:51 re kernel: [    2.200543] usb 1-1: New USB device found, idVendor=8087, idProduct=0020, bcdDevice= 0.00
Dec 16 21:58:51 re kernel: [    2.200549] usb 1-1: New USB device strings: Mfr=0, Product=0, SerialNumber=0
Dec 16 21:58:51 re kernel: [    2.201082] hub 1-1:1.0: USB hub found
Dec 16 21:58:51 re kernel: [    2.201122] hub 1-1:1.0: 6 ports detected
Dec 16 21:58:51 re kernel: [    2.224438] usb 2-1: New USB device found, idVendor=8087, idProduct=0020, bcdDevice= 0.00
Dec 16 21:58:51 re kernel: [    2.224443] usb 2-1: New USB device strings: Mfr=0, Product=0, SerialNumber=0
Dec 16 21:58:51 re kernel: [    2.226153] hub 2-1:1.0: USB hub found
Dec 16 21:58:51 re kernel: [    2.226277] hub 2-1:1.0: 8 ports detected
Dec 16 21:58:51 re kernel: [    2.238168]  sda: sda1 < sda5 sda6 > sda2
Dec 16 21:58:51 re kernel: [    2.238762] sd 0:0:0:0: [sda] Attached SCSI disk
Dec 16 21:58:51 re kernel: [    2.488086] usb 1-1.2: new full-speed USB device number 3 using ehci-pci
Dec 16 21:58:51 re kernel: [    2.495825] random: fast init done
Dec 16 21:58:51 re kernel: [    2.512068] usb 2-1.4: new low-speed USB device number 3 using ehci-pci
Dec 16 21:58:51 re kernel: [    2.601090] usb 1-1.2: New USB device found, idVendor=0a5c, idProduct=21bc, bcdDevice= 7.61
Dec 16 21:58:51 re kernel: [    2.601096] usb 1-1.2: New USB device strings: Mfr=1, Product=2, SerialNumber=3
Dec 16 21:58:51 re kernel: [    2.601100] usb 1-1.2: Product: Dell Wireless 1701 Bluetooth
Dec 16 21:58:51 re kernel: [    2.601103] usb 1-1.2: Manufacturer: Broadcom Corp
Dec 16 21:58:51 re kernel: [    2.601107] usb 1-1.2: SerialNumber: CCAF7897F188
Dec 16 21:58:51 re kernel: [    2.624177] usb 2-1.4: New USB device found, idVendor=0000, idProduct=0538, bcdDevice= 1.00
Dec 16 21:58:51 re kernel: [    2.624182] usb 2-1.4: New USB device strings: Mfr=0, Product=1, SerialNumber=0
Dec 16 21:58:51 re kernel: [    2.624186] usb 2-1.4: Product:  USB OPTICAL MOUSE
Dec 16 21:58:51 re kernel: [    2.627078] hidraw: raw HID events driver (C) Jiri Kosina
Dec 16 21:58:51 re kernel: [    2.630120] usbcore: registered new interface driver usbhid
Dec 16 21:58:51 re kernel: [    2.630121] usbhid: USB HID core driver
Dec 16 21:58:51 re kernel: [    2.631163] input:  USB OPTICAL MOUSE as /devices/pci0000:00/0000:00:1d.0/usb2/2-1/2-1.4/2-1.4:1.0/0003:0000:0538.0001/input/input3
Dec 16 21:58:51 re kernel: [    2.631246] hid-generic 0003:0000:0538.0001: input,hidraw0: USB HID v1.11 Mouse [ USB OPTICAL MOUSE] on usb-0000:00:1d.0-1.4/input0
Dec 16 21:58:51 re kernel: [    2.680061] usb 1-1.3: new high-speed USB device number 4 using ehci-pci
Dec 16 21:58:51 re kernel: [    2.801680] usb 1-1.3: New USB device found, idVendor=0bda, idProduct=0138, bcdDevice=38.82
Dec 16 21:58:51 re kernel: [    2.801682] usb 1-1.3: New USB device strings: Mfr=1, Product=2, SerialNumber=3
Dec 16 21:58:51 re kernel: [    2.801684] usb 1-1.3: Product: USB2.0-CRW
Dec 16 21:58:51 re kernel: [    2.801685] usb 1-1.3: Manufacturer: Generic
Dec 16 21:58:51 re kernel: [    2.801686] usb 1-1.3: SerialNumber: 20090516388200000
Dec 16 21:58:51 re kernel: [    2.810122] usbcore: registered new interface driver usb-storage
Dec 16 21:58:51 re kernel: [    2.810747] usbcore: registered new interface driver uas
Dec 16 21:58:51 re kernel: [    2.811236] ums-realtek 1-1.3:1.0: USB Mass Storage device detected
Dec 16 21:58:51 re kernel: [    2.830715] scsi host6: usb-storage 1-1.3:1.0
Dec 16 21:58:51 re kernel: [    2.830844] usbcore: registered new interface driver ums-realtek
Dec 16 21:58:51 re kernel: [    2.848217] PM: Image not found (code -22)
Dec 16 21:58:51 re kernel: [    2.875823] cryptd: max_cpu_qlen set to 1000
Dec 16 21:58:51 re kernel: [    2.976089] usb 1-1.3: USB disconnect, device number 4
Dec 16 21:58:51 re kernel: [    3.144604] EXT4-fs (sda5): mounted filesystem with ordered data mode. Opts: (null)
Dec 16 21:58:51 re kernel: [    3.584024] input: AlpsPS/2 ALPS GlidePoint as /devices/platform/i8042/serio1/input/input2
Dec 16 21:58:51 re kernel: [    7.006086] random: systemd: uninitialized urandom read (16 bytes read)
Dec 16 21:58:51 re kernel: [    7.006277] random: systemd: uninitialized urandom read (16 bytes read)
Dec 16 21:58:51 re kernel: [    7.006386] random: systemd: uninitialized urandom read (16 bytes read)
Dec 16 21:58:51 re kernel: [    7.841255] EXT4-fs (sda5): re-mounted. Opts: errors=remount-ro
Dec 16 21:58:51 re kernel: [   10.246675] random: crng init done
Dec 16 21:58:51 re kernel: [   10.246677] random: 7 urandom warning(s) missed due to ratelimiting
Dec 16 21:58:51 re kernel: [   10.942147] ACPI: AC Adapter [AC] (on-line)
Dec 16 21:58:51 re kernel: [   11.000592] ACPI: Battery Slot [BAT0] (battery present)
Dec 16 21:58:51 re kernel: [   11.031426] wmi_bus wmi_bus-PNP0C14:00: WQBC data block query control method not found
Dec 16 21:58:51 re kernel: [   11.053482] intel ips 0000:00:1f.6: CPU TDP doesn't match expected value (found 25, expected 29)
Dec 16 21:58:51 re kernel: [   11.053672] intel ips 0000:00:1f.6: failed to get i915 symbols, graphics turbo disabled until i915 loads
Dec 16 21:58:51 re kernel: [   11.053784] intel ips 0000:00:1f.6: IPS driver initialized, MCP temp limit 90
Dec 16 21:58:51 re kernel: [   11.154853] input: Power Button as /devices/LNXSYSTM:00/LNXSYBUS:00/PNP0C0C:00/input/input4
Dec 16 21:58:51 re kernel: [   11.154868] ACPI: Power Button [PWRB]
Dec 16 21:58:51 re kernel: [   11.154943] input: Lid Switch as /devices/LNXSYSTM:00/LNXSYBUS:00/PNP0C0D:00/input/input5
Dec 16 21:58:51 re kernel: [   11.154967] ACPI: Lid Switch [LID0]
Dec 16 21:58:51 re kernel: [   11.155047] input: Sleep Button as /devices/LNXSYSTM:00/LNXSYBUS:00/PNP0C0E:01/input/input6
Dec 16 21:58:51 re kernel: [   11.155058] ACPI: Sleep Button [SBTN]
Dec 16 21:58:51 re kernel: [   11.155119] input: Power Button as /devices/LNXSYSTM:00/LNXPWRBN:00/input/input7
Dec 16 21:58:51 re kernel: [   11.155138] ACPI: Power Button [PWRF]
Dec 16 21:58:51 re kernel: [   11.194964] iTCO_vendor_support: vendor-support=0
Dec 16 21:58:51 re kernel: [   11.197022] iTCO_wdt: Intel TCO WatchDog Timer Driver v1.11
Dec 16 21:58:51 re kernel: [   11.197080] iTCO_wdt: Found a HM57 TCO device (Version=2, TCOBASE=0x0460)
Dec 16 21:58:51 re kernel: [   11.197197] iTCO_wdt: initialized. heartbeat=30 sec (nowayout=0)
Dec 16 21:58:51 re kernel: [   11.223837] sd 0:0:0:0: Attached scsi generic sg0 type 0
Dec 16 21:58:51 re kernel: [   11.223884] sr 1:0:0:0: Attached scsi generic sg1 type 5
Dec 16 21:58:51 re kernel: [   11.360783] bcma: bus0: Found chip with id 0x4313, rev 0x01 and package 0x08
Dec 16 21:58:51 re kernel: [   11.360814] bcma: bus0: Core 0 found: ChipCommon (manuf 0x4BF, id 0x800, rev 0x24, class 0x0)
Dec 16 21:58:51 re kernel: [   11.360839] bcma: bus0: Core 1 found: IEEE 802.11 (manuf 0x4BF, id 0x812, rev 0x18, class 0x0)
Dec 16 21:58:51 re kernel: [   11.360888] bcma: bus0: Core 2 found: PCIe (manuf 0x4BF, id 0x820, rev 0x11, class 0x0)
Dec 16 21:58:51 re kernel: [   11.374276] bcma: bus0: Bus registered
Dec 16 21:58:51 re kernel: [   11.459492] input: PC Speaker as /devices/platform/pcspkr/input/input8
Dec 16 21:58:51 re kernel: [   12.209064] pci 0000:00:00.0: Intel HD Graphics Chipset
Dec 16 21:58:51 re kernel: [   12.209086] pci 0000:00:00.0: detected gtt size: 2097152K total, 262144K mappable
Dec 16 21:58:51 re kernel: [   12.209600] pci 0000:00:00.0: detected 32768K stolen memory
Dec 16 21:58:51 re kernel: [   12.209667] [drm] Replacing VGA console driver
Dec 16 21:58:51 re kernel: [   12.210175] Console: switching to colour dummy device 80x25
Dec 16 21:58:51 re kernel: [   12.214526] i801_smbus 0000:00:1f.3: BIOS is accessing SMBus registers
Dec 16 21:58:51 re kernel: [   12.214528] i801_smbus 0000:00:1f.3: Driver SMBus register access inhibited
Dec 16 21:58:51 re kernel: [   12.215861] [drm] Supports vblank timestamp caching Rev 2 (21.10.2013).
Dec 16 21:58:51 re kernel: [   12.215862] [drm] Driver supports precise vblank timestamp query.
Dec 16 21:58:51 re kernel: [   12.216391] i915 0000:00:02.0: vgaarb: changed VGA decodes: olddecodes=io+mem,decodes=io+mem:owns=io+mem
Dec 16 21:58:51 re kernel: [   12.239698] [drm] RC6 disabled, disabling runtime PM support
Dec 16 21:58:51 re kernel: [   12.240824] BUG: unable to handle kernel NULL pointer dereference at 0000000000000008
Dec 16 21:58:51 re kernel: [   12.240830] PGD 0 P4D 0 
Dec 16 21:58:51 re kernel: [   12.240835] Oops: 0000 [#1] SMP PTI
Dec 16 21:58:51 re kernel: [   12.240840] CPU: 1 PID: 381 Comm: systemd-udevd Not tainted 4.18.0-kali3-amd64 #1 Debian 4.18.20-2kali2
Dec 16 21:58:51 re kernel: [   12.240844] Hardware name: Dell Inc. Inspiron N5040/024DTD, BIOS A02 05/31/2011
Dec 16 21:58:51 re kernel: [   12.240920] RIP: 0010:gen4_render_ring_flush+0x55/0xf0 [i915]
Dec 16 21:58:51 re kernel: [   12.240925] Code: 00 be 16 00 00 00 48 89 ef e8 87 fe ff ff 48 3d 00 f0 ff ff 77 69 89 18 c7 40 04 02 40 00 7a 48 8b 55 78 48 8b 92 10 02 00 00 <48> 8b 52 08 48 c7 40 0c 00 00 00 00 83 ca 04 89 50 08 48 8d 50 14 
Dec 16 21:58:51 re kernel: [   12.240966] RSP: 0018:ffffbac600b33a88 EFLAGS: 00010287
Dec 16 21:58:51 re kernel: [   12.240970] RAX: ffffbac630004000 RBX: 0000000002000022 RCX: 000000000001ff68
Dec 16 21:58:51 re kernel: [   12.240974] RDX: 0000000000000000 RSI: 00000000000001a8 RDI: 0000000000000150
Dec 16 21:58:51 re kernel: [   12.240978] RBP: ffff93b13142d8c0 R08: 0000000000000001 R09: 0000000000000004
Dec 16 21:58:51 re kernel: [   12.240982] R10: ffffbac600b33a58 R11: 0000000000000000 R12: ffff93b12f7c0000
Dec 16 21:58:51 re kernel: [   12.240985] R13: ffff93b12996e000 R14: 0000000000000000 R15: ffff93b13142d8c0
Dec 16 21:58:51 re kernel: [   12.240989] FS:  00007f30aefba8c0(0000) GS:ffff93b137c80000(0000) knlGS:0000000000000000
Dec 16 21:58:51 re kernel: [   12.240993] CS:  0010 DS: 0000 ES: 0000 CR0: 0000000080050033
Dec 16 21:58:51 re kernel: [   12.240996] CR2: 0000000000000008 CR3: 000000013265a002 CR4: 00000000000206e0
Dec 16 21:58:51 re kernel: [   12.241000] Call Trace:
Dec 16 21:58:51 re kernel: [   12.241049]  i915_request_alloc+0x243/0x360 [i915]
Dec 16 21:58:51 re kernel: [   12.241095]  i915_gem_init+0x284/0x480 [i915]
Dec 16 21:58:51 re kernel: [   12.241134]  i915_driver_load+0xb22/0xef0 [i915]
Dec 16 21:58:51 re kernel: [   12.241144]  ? mutex_lock+0xe/0x30
Dec 16 21:58:51 re kernel: [   12.241150]  ? acpi_dev_found+0x5f/0x70
Dec 16 21:58:51 re kernel: [   12.241157]  local_pci_probe+0x42/0xa0
Dec 16 21:58:51 re kernel: [   12.241163]  ? pci_assign_irq+0x27/0x130
Dec 16 21:58:51 re kernel: [   12.241168]  pci_device_probe+0x146/0x1b0
Dec 16 21:58:51 re kernel: [   12.241176]  driver_probe_device+0x2fa/0x470
Dec 16 21:58:51 re kernel: [   12.241181]  __driver_attach+0xdc/0x100
Dec 16 21:58:51 re kernel: [   12.241186]  ? driver_probe_device+0x470/0x470
Dec 16 21:58:51 re kernel: [   12.241190]  bus_for_each_dev+0x76/0xc0
Dec 16 21:58:51 re kernel: [   12.241196]  ? klist_add_tail+0x3b/0x70
Dec 16 21:58:51 re kernel: [   12.241201]  bus_add_driver+0x161/0x260
Dec 16 21:58:51 re kernel: [   12.241205]  ? 0xffffffffc0b50000
Dec 16 21:58:51 re kernel: [   12.241210]  driver_register+0x5b/0xe0
Dec 16 21:58:51 re kernel: [   12.241214]  ? 0xffffffffc0b50000
Dec 16 21:58:51 re kernel: [   12.241221]  do_one_initcall+0x46/0x1c8
Dec 16 21:58:51 re kernel: [   12.241226]  ? _cond_resched+0x15/0x40
Dec 16 21:58:51 re kernel: [   12.241232]  ? kmem_cache_alloc_trace+0x15d/0x1c0
Dec 16 21:58:51 re kernel: [   12.241238]  ? do_init_module+0x22/0x201
Dec 16 21:58:51 re kernel: [   12.241243]  do_init_module+0x5b/0x201
Dec 16 21:58:51 re kernel: [   12.241247]  load_module.constprop.56+0x1649/0x1d80
Dec 16 21:58:51 re kernel: [   12.241254]  ? vfs_read+0x113/0x130
Dec 16 21:58:51 re kernel: [   12.241258]  ? vfs_read+0x113/0x130
Dec 16 21:58:51 re kernel: [   12.241263]  ? __do_sys_finit_module+0xe9/0x110
Dec 16 21:58:51 re kernel: [   12.241267]  __do_sys_finit_module+0xe9/0x110
Dec 16 21:58:51 re kernel: [   12.241272]  do_syscall_64+0x55/0x110
Dec 16 21:58:51 re kernel: [   12.241277]  entry_SYSCALL_64_after_hwframe+0x44/0xa9
Dec 16 21:58:51 re kernel: [   12.241281] RIP: 0033:0x7f30afa1ea79
Dec 16 21:58:51 re kernel: [   12.241285] Code: 00 f3 c3 66 2e 0f 1f 84 00 00 00 00 00 0f 1f 40 00 48 89 f8 48 89 f7 48 89 d6 48 89 ca 4d 89 c2 4d 89 c8 4c 8b 4c 24 08 0f 05 <48> 3d 01 f0 ff ff 73 01 c3 48 8b 0d df 43 0c 00 f7 d8 64 89 01 48 
Dec 16 21:58:51 re kernel: [   12.241324] RSP: 002b:00007ffc30446ac8 EFLAGS: 00000246 ORIG_RAX: 0000000000000139
Dec 16 21:58:51 re kernel: [   12.241330] RAX: ffffffffffffffda RBX: 000055ebefcae6c0 RCX: 00007f30afa1ea79
Dec 16 21:58:51 re kernel: [   12.241335] RDX: 0000000000000000 RSI: 00007f30af924cad RDI: 0000000000000011
Dec 16 21:58:51 re kernel: [   12.241339] RBP: 00007f30af924cad R08: 0000000000000000 R09: 0000000000000000
Dec 16 21:58:51 re kernel: [   12.241343] R10: 0000000000000011 R11: 0000000000000246 R12: 0000000000000000
Dec 16 21:58:51 re kernel: [   12.241347] R13: 000055ebefca32b0 R14: 0000000000020000 R15: 000055ebefcae6c0
Dec 16 21:58:51 re kernel: [   12.241352] Modules linked in: snd_hda_core i915(+) kvm snd_hwdep irqbypass dell_wmi_descriptor snd_pcm drm_kms_helper ecdh_generic(+) intel_cstate intel_uncore drm rfkill evdev joydev serio_raw pcspkr snd_timer bcma mei_me snd sg soundcore iTCO_wdt iTCO_vendor_support button i2c_algo_bit intel_ips wmi mei battery ac video pcc_cpufreq acpi_cpufreq binfmt_misc ip_tables x_tables autofs4 ext4 crc16 mbcache jbd2 crc32c_generic fscrypto ecb crypto_simd cryptd glue_helper aes_x86_64 ums_realtek uas usb_storage hid_generic usbhid hid sr_mod cdrom sd_mod ahci libahci crc32c_intel ehci_pci libata psmouse ehci_hcd i2c_i801 scsi_mod lpc_ich r8169 mii usbcore usb_common thermal
Dec 16 21:58:51 re kernel: [   12.241422] CR2: 0000000000000008
Dec 16 21:58:51 re kernel: [   12.241429] ---[ end trace 6d3cebba5a3f6025 ]---
Dec 16 21:58:51 re kernel: [   12.241472] RIP: 0010:gen4_render_ring_flush+0x55/0xf0 [i915]
Dec 16 21:58:51 re kernel: [   12.241479] Code: 00 be 16 00 00 00 48 89 ef e8 87 fe ff ff 48 3d 00 f0 ff ff 77 69 89 18 c7 40 04 02 40 00 7a 48 8b 55 78 48 8b 92 10 02 00 00 <48> 8b 52 08 48 c7 40 0c 00 00 00 00 83 ca 04 89 50 08 48 8d 50 14 
Dec 16 21:58:51 re kernel: [   12.241524] RSP: 0018:ffffbac600b33a88 EFLAGS: 00010287
Dec 16 21:58:51 re kernel: [   12.241528] RAX: ffffbac630004000 RBX: 0000000002000022 RCX: 000000000001ff68
Dec 16 21:58:51 re kernel: [   12.241532] RDX: 0000000000000000 RSI: 00000000000001a8 RDI: 0000000000000150
Dec 16 21:58:51 re kernel: [   12.241536] RBP: ffff93b13142d8c0 R08: 0000000000000001 R09: 0000000000000004
Dec 16 21:58:51 re kernel: [   12.241540] R10: ffffbac600b33a58 R11: 0000000000000000 R12: ffff93b12f7c0000
Dec 16 21:58:51 re kernel: [   12.241544] R13: ffff93b12996e000 R14: 0000000000000000 R15: ffff93b13142d8c0
Dec 16 21:58:51 re kernel: [   12.241549] FS:  00007f30aefba8c0(0000) GS:ffff93b137c80000(0000) knlGS:0000000000000000
Dec 16 21:58:51 re kernel: [   12.241555] CS:  0010 DS: 0000 ES: 0000 CR0: 0000000080050033
Dec 16 21:58:51 re kernel: [   12.241559] CR2: 0000000000000008 CR3: 000000013265a002 CR4: 00000000000206e0
Dec 16 21:58:51 re kernel: [   12.317317] dcdbas dcdbas: Dell Systems Management Base Driver (version 5.6.0-3.2)
Dec 16 21:58:51 re kernel: [   12.321634] dell-smbios A80593CE-A997-11DA-B012-B622A1EF5492: WMI SMBIOS userspace interface not supported(0), try upgrading to a newer BIOS
Dec 16 21:58:51 re kernel: [   12.321877] kvm: VM_EXIT_LOAD_IA32_PERF_GLOBAL_CTRL does not work properly. Using workaround
Dec 16 21:58:51 re kernel: [   12.322742] input: Dell WMI hotkeys as /devices/platform/PNP0C14:00/wmi_bus/wmi_bus-PNP0C14:00/9DBB5994-A997-11DA-B012-B622A1EF5492/input/input9
Dec 16 21:58:51 re kernel: [   12.559929] Bluetooth: Core ver 2.22
Dec 16 21:58:51 re kernel: [   12.559962] NET: Registered protocol family 31
Dec 16 21:58:51 re kernel: [   12.559966] Bluetooth: HCI device and connection manager initialized
Dec 16 21:58:51 re kernel: [   12.559977] Bluetooth: HCI socket layer initialized
Dec 16 21:58:51 re kernel: [   12.559982] Bluetooth: L2CAP socket layer initialized
Dec 16 21:58:51 re kernel: [   12.560025] Bluetooth: SCO socket layer initialized
Dec 16 21:58:51 re kernel: [   12.869300] usbcore: registered new interface driver btusb
Dec 16 21:58:51 re kernel: [   13.980267] Adding 3986428k swap on /dev/sda6.  Priority:-2 extents:1 across:3986428k FS
Dec 16 21:58:51 re kernel: [   14.194214] Support for cores revisions 0x17 and 0x18 disabled by module param allhwsupport=0. Try b43.allhwsupport=1
Dec 16 21:58:51 re kernel: [   14.194228] b43: probe of bcma0:1 failed with error -524
Dec 16 21:58:51 re kernel: [   14.194249] Broadcom 43xx driver loaded [ Features: PNLS ]
Dec 16 21:58:51 re kernel: [   14.941909] brcmsmac bcma0:1: mfg 4bf core 812 rev 24 class 0 irq 17
Dec 16 21:58:51 re kernel: [   15.612500] ieee80211 phy0: Selected rate control algorithm 'minstrel_ht'
Dec 16 21:59:00 re kernel: [   24.157590] IPv6: ADDRCONF(NETDEV_UP): eth0: link is not ready
Dec 16 21:59:00 re kernel: [   24.550449] r8169 0000:13:00.0: firmware: direct-loading firmware rtl_nic/rtl8105e-1.fw
Dec 16 21:59:00 re kernel: [   24.778009] r8169 0000:13:00.0 eth0: link down
Dec 16 21:59:00 re kernel: [   24.778031] r8169 0000:13:00.0 eth0: link down
Dec 16 21:59:00 re kernel: [   24.778119] IPv6: ADDRCONF(NETDEV_UP): eth0: link is not ready
Dec 16 21:59:00 re kernel: [   24.782740] IPv6: ADDRCONF(NETDEV_UP): wlan0: link is not ready
Dec 16 21:59:02 re kernel: [   26.469326] r8169 0000:13:00.0 eth0: link up
Dec 16 21:59:02 re kernel: [   26.469359] IPv6: ADDRCONF(NETDEV_CHANGE): eth0: link becomes ready
Dec 16 21:59:03 re kernel: [   27.133210] PPP generic driver version 2.4.2
Dec 16 21:59:03 re kernel: [   27.285876] NET: Registered protocol family 24
Dec 16 22:04:44 re kernel: [    0.000000] microcode: microcode updated early to revision 0x7, date = 2018-04-23
Dec 16 22:04:44 re kernel: [    0.000000] Linux version 4.18.0-kali2-amd64 (devel@kali.org) (gcc version 7.3.0 (Debian 7.3.0-29)) #1 SMP Debian 4.18.10-2kali1 (2018-10-09)
Dec 16 22:04:44 re kernel: [    0.000000] Command line: BOOT_IMAGE=/boot/vmlinuz-4.18.0-kali2-amd64 root=UUID=0f4a6c80-be10-41d1-b10f-f1c6ca081b1c ro initrd=/install/gtk/initrd.gz quiet
Dec 16 22:04:44 re kernel: [    0.000000] x86/fpu: x87 FPU will use FXSAVE
Dec 16 22:04:44 re kernel: [    0.000000] BIOS-provided physical RAM map:
Dec 16 22:04:44 re kernel: [    0.000000] BIOS-e820: [mem 0x0000000000000000-0x000000000009d3ff] usable
Dec 16 22:04:44 re kernel: [    0.000000] BIOS-e820: [mem 0x000000000009d400-0x000000000009ffff] reserved
Dec 16 22:04:44 re kernel: [    0.000000] BIOS-e820: [mem 0x00000000000e0000-0x00000000000fffff] reserved
Dec 16 22:04:44 re kernel: [    0.000000] BIOS-e820: [mem 0x0000000000100000-0x00000000bb5a8fff] usable
Dec 16 22:04:44 re kernel: [    0.000000] BIOS-e820: [mem 0x00000000bb5a9000-0x00000000bb5f0fff] ACPI NVS
Dec 16 22:04:44 re kernel: [    0.000000] BIOS-e820: [mem 0x00000000bb5f1000-0x00000000bb5fafff] ACPI data
Dec 16 22:04:44 re kernel: [    0.000000] BIOS-e820: [mem 0x00000000bb5fb000-0x00000000bb5fdfff] ACPI NVS
Dec 16 22:04:44 re kernel: [    0.000000] BIOS-e820: [mem 0x00000000bb5fe000-0x00000000bb621fff] reserved
Dec 16 22:04:44 re kernel: [    0.000000] BIOS-e820: [mem 0x00000000bb622000-0x00000000bb62afff] ACPI NVS
Dec 16 22:04:44 re kernel: [    0.000000] BIOS-e820: [mem 0x00000000bb62b000-0x00000000bb62dfff] reserved
Dec 16 22:04:44 re kernel: [    0.000000] BIOS-e820: [mem 0x00000000bb62e000-0x00000000bb631fff] ACPI NVS
Dec 16 22:04:44 re kernel: [    0.000000] BIOS-e820: [mem 0x00000000bb632000-0x00000000bb651fff] reserved
Dec 16 22:04:44 re kernel: [    0.000000] BIOS-e820: [mem 0x00000000bb652000-0x00000000bb694fff] ACPI NVS
Dec 16 22:04:44 re kernel: [    0.000000] BIOS-e820: [mem 0x00000000bb695000-0x00000000bb7fffff] usable
Dec 16 22:04:44 re kernel: [    0.000000] BIOS-e820: [mem 0x00000000bde00000-0x00000000bfffffff] reserved
Dec 16 22:04:44 re kernel: [    0.000000] BIOS-e820: [mem 0x00000000e0000000-0x00000000efffffff] reserved
Dec 16 22:04:44 re kernel: [    0.000000] BIOS-e820: [mem 0x00000000fed1c000-0x00000000fed1ffff] reserved
Dec 16 22:04:44 re kernel: [    0.000000] BIOS-e820: [mem 0x00000000ff000000-0x00000000ffffffff] reserved
Dec 16 22:04:44 re kernel: [    0.000000] BIOS-e820: [mem 0x0000000100000000-0x0000000137ffffff] usable
Dec 16 22:04:44 re kernel: [    0.000000] NX (Execute Disable) protection: active
Dec 16 22:04:44 re kernel: [    0.000000] SMBIOS 2.6 present.
Dec 16 22:04:44 re kernel: [    0.000000] DMI: Dell Inc. Inspiron N5040/024DTD, BIOS A02 05/31/2011
Dec 16 22:04:44 re kernel: [    0.000000] e820: update [mem 0x00000000-0x00000fff] usable ==> reserved
Dec 16 22:04:44 re kernel: [    0.000000] e820: remove [mem 0x000a0000-0x000fffff] usable
Dec 16 22:04:44 re kernel: [    0.000000] last_pfn = 0x138000 max_arch_pfn = 0x400000000
Dec 16 22:04:44 re kernel: [    0.000000] MTRR default type: uncachable
Dec 16 22:04:44 re kernel: [    0.000000] MTRR fixed ranges enabled:
Dec 16 22:04:44 re kernel: [    0.000000]   00000-9FFFF write-back
Dec 16 22:04:44 re kernel: [    0.000000]   A0000-BFFFF uncachable
Dec 16 22:04:44 re kernel: [    0.000000]   C0000-D3FFF write-protect
Dec 16 22:04:44 re kernel: [    0.000000]   D4000-E7FFF uncachable
Dec 16 22:04:44 re kernel: [    0.000000]   E8000-FFFFF write-protect
Dec 16 22:04:44 re kernel: [    0.000000] MTRR variable ranges enabled:
Dec 16 22:04:44 re kernel: [    0.000000]   0 base 000000000 mask F00000000 write-back
Dec 16 22:04:44 re kernel: [    0.000000]   1 base 100000000 mask FC0000000 write-back
Dec 16 22:04:44 re kernel: [    0.000000]   2 base 0BC000000 mask FFC000000 uncachable
Dec 16 22:04:44 re kernel: [    0.000000]   3 base 0C0000000 mask FC0000000 uncachable
Dec 16 22:04:44 re kernel: [    0.000000]   4 base 138000000 mask FF8000000 uncachable
Dec 16 22:04:44 re kernel: [    0.000000]   5 disabled
Dec 16 22:04:44 re kernel: [    0.000000]   6 disabled
Dec 16 22:04:44 re kernel: [    0.000000]   7 disabled
Dec 16 22:04:44 re kernel: [    0.000000] x86/PAT: Configuration [0-7]: WB  WC  UC- UC  WB  WP  UC- WT  
Dec 16 22:04:44 re kernel: [    0.000000] e820: update [mem 0xbc000000-0xffffffff] usable ==> reserved
Dec 16 22:04:44 re kernel: [    0.000000] last_pfn = 0xbb800 max_arch_pfn = 0x400000000
Dec 16 22:04:44 re kernel: [    0.000000] found SMP MP-table at [mem 0x000fcd90-0x000fcd9f] mapped at [(____ptrval____)]
Dec 16 22:04:44 re kernel: [    0.000000] Base memory trampoline at [(____ptrval____)] 97000 size 24576
Dec 16 22:04:44 re kernel: [    0.000000] BRK [0x8aa4b000, 0x8aa4bfff] PGTABLE
Dec 16 22:04:44 re kernel: [    0.000000] BRK [0x8aa4c000, 0x8aa4cfff] PGTABLE
Dec 16 22:04:44 re kernel: [    0.000000] BRK [0x8aa4d000, 0x8aa4dfff] PGTABLE
Dec 16 22:04:44 re kernel: [    0.000000] BRK [0x8aa4e000, 0x8aa4efff] PGTABLE
Dec 16 22:04:44 re kernel: [    0.000000] BRK [0x8aa4f000, 0x8aa4ffff] PGTABLE
Dec 16 22:04:44 re kernel: [    0.000000] BRK [0x8aa50000, 0x8aa50fff] PGTABLE
Dec 16 22:04:44 re kernel: [    0.000000] RAMDISK: [mem 0x33837000-0x35c12fff]
Dec 16 22:04:44 re kernel: [    0.000000] ACPI: Early table checksum verification disabled
Dec 16 22:04:44 re kernel: [    0.000000] ACPI: RSDP 0x00000000000F0410 000024 (v03 DELL  )
Dec 16 22:04:44 re kernel: [    0.000000] ACPI: XSDT 0x00000000BB5F1080 000054 (v01 DELL   WN09     01072009 AMI  00010013)
Dec 16 22:04:44 re kernel: [    0.000000] ACPI: FACP 0x00000000BB5FABC8 0000F4 (v04 DELL   WN09     01072009 AMI  00010013)
Dec 16 22:04:44 re kernel: [    0.000000] ACPI: DSDT 0x00000000BB5F1168 009A5C (v02 DELL   WN09     00005040 INTL 20051117)
Dec 16 22:04:44 re kernel: [    0.000000] ACPI: FACS 0x00000000BB62EF40 000040
Dec 16 22:04:44 re kernel: [    0.000000] ACPI: FACS 0x00000000BB62EF80 000040
Dec 16 22:04:44 re kernel: [    0.000000] ACPI: APIC 0x00000000BB5FACC0 000072 (v01 DELL   WN09     01072009 AMI  00010013)
Dec 16 22:04:44 re kernel: [    0.000000] ACPI: SSDT 0x00000000BB5FAD38 00014E (v01 AMICPU PROC     00000001 MSFT 03000001)
Dec 16 22:04:44 re kernel: [    0.000000] ACPI: MCFG 0x00000000BB5FAE88 00003C (v01 DELL   WN09     01072009 MSFT 00000097)
Dec 16 22:04:44 re kernel: [    0.000000] ACPI: HPET 0x00000000BB5FAEC8 000038 (v01 DELL   WN09     01072009 AMI. 00000003)
Dec 16 22:04:44 re kernel: [    0.000000] ACPI: OSFR 0x00000000BB5FAF00 00008C (v01 DELL   M08      07DB051F ASL  00000061)
Dec 16 22:04:44 re kernel: [    0.000000] ACPI: Local APIC address 0xfee00000
Dec 16 22:04:44 re kernel: [    0.000000] No NUMA configuration found
Dec 16 22:04:44 re kernel: [    0.000000] Faking a node at [mem 0x0000000000000000-0x0000000137ffffff]
Dec 16 22:04:44 re kernel: [    0.000000] NODE_DATA(0) allocated [mem 0x137ff8000-0x137ffcfff]
Dec 16 22:04:44 re kernel: [    0.000000] tsc: Fast TSC calibration using PIT
Dec 16 22:04:44 re kernel: [    0.000000] Zone ranges:
Dec 16 22:04:44 re kernel: [    0.000000]   DMA      [mem 0x0000000000001000-0x0000000000ffffff]
Dec 16 22:04:44 re kernel: [    0.000000]   DMA32    [mem 0x0000000001000000-0x00000000ffffffff]
Dec 16 22:04:44 re kernel: [    0.000000]   Normal   [mem 0x0000000100000000-0x0000000137ffffff]
Dec 16 22:04:44 re kernel: [    0.000000]   Device   empty
Dec 16 22:04:44 re kernel: [    0.000000] Movable zone start for each node
Dec 16 22:04:44 re kernel: [    0.000000] Early memory node ranges
Dec 16 22:04:44 re kernel: [    0.000000]   node   0: [mem 0x0000000000001000-0x000000000009cfff]
Dec 16 22:04:44 re kernel: [    0.000000]   node   0: [mem 0x0000000000100000-0x00000000bb5a8fff]
Dec 16 22:04:44 re kernel: [    0.000000]   node   0: [mem 0x00000000bb695000-0x00000000bb7fffff]
Dec 16 22:04:44 re kernel: [    0.000000]   node   0: [mem 0x0000000100000000-0x0000000137ffffff]
Dec 16 22:04:44 re kernel: [    0.000000] Reserved but unavailable: 18768 pages
Dec 16 22:04:44 re kernel: [    0.000000] Initmem setup node 0 [mem 0x0000000000001000-0x0000000137ffffff]
Dec 16 22:04:44 re kernel: [    0.000000] On node 0 totalpages: 997040
Dec 16 22:04:44 re kernel: [    0.000000]   DMA zone: 64 pages used for memmap
Dec 16 22:04:44 re kernel: [    0.000000]   DMA zone: 21 pages reserved
Dec 16 22:04:44 re kernel: [    0.000000]   DMA zone: 3996 pages, LIFO batch:0
Dec 16 22:04:44 re kernel: [    0.000000]   DMA32 zone: 11933 pages used for memmap
Dec 16 22:04:44 re kernel: [    0.000000]   DMA32 zone: 763668 pages, LIFO batch:31
Dec 16 22:04:44 re kernel: [    0.000000]   Normal zone: 3584 pages used for memmap
Dec 16 22:04:44 re kernel: [    0.000000]   Normal zone: 229376 pages, LIFO batch:31
Dec 16 22:04:44 re kernel: [    0.000000] Reserving Intel graphics memory at [mem 0xbe000000-0xbfffffff]
Dec 16 22:04:44 re kernel: [    0.000000] ACPI: PM-Timer IO Port: 0x408
Dec 16 22:04:44 re kernel: [    0.000000] ACPI: Local APIC address 0xfee00000
Dec 16 22:04:44 re kernel: [    0.000000] ACPI: LAPIC_NMI (acpi_id[0xff] high edge lint[0x1])
Dec 16 22:04:44 re kernel: [    0.000000] IOAPIC[0]: apic_id 0, version 32, address 0xfec00000, GSI 0-23
Dec 16 22:04:44 re kernel: [    0.000000] ACPI: INT_SRC_OVR (bus 0 bus_irq 0 global_irq 2 dfl dfl)
Dec 16 22:04:44 re kernel: [    0.000000] ACPI: INT_SRC_OVR (bus 0 bus_irq 9 global_irq 9 high level)
Dec 16 22:04:44 re kernel: [    0.000000] ACPI: IRQ0 used by override.
Dec 16 22:04:44 re kernel: [    0.000000] ACPI: IRQ9 used by override.
Dec 16 22:04:44 re kernel: [    0.000000] Using ACPI (MADT) for SMP configuration information
Dec 16 22:04:44 re kernel: [    0.000000] ACPI: HPET id: 0x8086a701 base: 0xfed00000
Dec 16 22:04:44 re kernel: [    0.000000] smpboot: Allowing 4 CPUs, 0 hotplug CPUs
Dec 16 22:04:44 re kernel: [    0.000000] PM: Registered nosave memory: [mem 0x00000000-0x00000fff]
Dec 16 22:04:44 re kernel: [    0.000000] PM: Registered nosave memory: [mem 0x0009d000-0x0009dfff]
Dec 16 22:04:44 re kernel: [    0.000000] PM: Registered nosave memory: [mem 0x0009e000-0x0009ffff]
Dec 16 22:04:44 re kernel: [    0.000000] PM: Registered nosave memory: [mem 0x000a0000-0x000dffff]
Dec 16 22:04:44 re kernel: [    0.000000] PM: Registered nosave memory: [mem 0x000e0000-0x000fffff]
Dec 16 22:04:44 re kernel: [    0.000000] PM: Registered nosave memory: [mem 0xbb5a9000-0xbb5f0fff]
Dec 16 22:04:44 re kernel: [    0.000000] PM: Registered nosave memory: [mem 0xbb5f1000-0xbb5fafff]
Dec 16 22:04:44 re kernel: [    0.000000] PM: Registered nosave memory: [mem 0xbb5fb000-0xbb5fdfff]
Dec 16 22:04:44 re kernel: [    0.000000] PM: Registered nosave memory: [mem 0xbb5fe000-0xbb621fff]
Dec 16 22:04:44 re kernel: [    0.000000] PM: Registered nosave memory: [mem 0xbb622000-0xbb62afff]
Dec 16 22:04:44 re kernel: [    0.000000] PM: Registered nosave memory: [mem 0xbb62b000-0xbb62dfff]
Dec 16 22:04:44 re kernel: [    0.000000] PM: Registered nosave memory: [mem 0xbb62e000-0xbb631fff]
Dec 16 22:04:44 re kernel: [    0.000000] PM: Registered nosave memory: [mem 0xbb632000-0xbb651fff]
Dec 16 22:04:44 re kernel: [    0.000000] PM: Registered nosave memory: [mem 0xbb652000-0xbb694fff]
Dec 16 22:04:44 re kernel: [    0.000000] PM: Registered nosave memory: [mem 0xbb800000-0xbddfffff]
Dec 16 22:04:44 re kernel: [    0.000000] PM: Registered nosave memory: [mem 0xbde00000-0xbfffffff]
Dec 16 22:04:44 re kernel: [    0.000000] PM: Registered nosave memory: [mem 0xc0000000-0xdfffffff]
Dec 16 22:04:44 re kernel: [    0.000000] PM: Registered nosave memory: [mem 0xe0000000-0xefffffff]
Dec 16 22:04:44 re kernel: [    0.000000] PM: Registered nosave memory: [mem 0xf0000000-0xfed1bfff]
Dec 16 22:04:44 re kernel: [    0.000000] PM: Registered nosave memory: [mem 0xfed1c000-0xfed1ffff]
Dec 16 22:04:44 re kernel: [    0.000000] PM: Registered nosave memory: [mem 0xfed20000-0xfeffffff]
Dec 16 22:04:44 re kernel: [    0.000000] PM: Registered nosave memory: [mem 0xff000000-0xffffffff]
Dec 16 22:04:44 re kernel: [    0.000000] [mem 0xc0000000-0xdfffffff] available for PCI devices
Dec 16 22:04:44 re kernel: [    0.000000] Booting paravirtualized kernel on bare hardware
Dec 16 22:04:44 re kernel: [    0.000000] clocksource: refined-jiffies: mask: 0xffffffff max_cycles: 0xffffffff, max_idle_ns: 7645519600211568 ns
Dec 16 22:04:44 re kernel: [    0.000000] random: get_random_bytes called from start_kernel+0x94/0x52e with crng_init=0
Dec 16 22:04:44 re kernel: [    0.000000] setup_percpu: NR_CPUS:512 nr_cpumask_bits:512 nr_cpu_ids:4 nr_node_ids:1
Dec 16 22:04:44 re kernel: [    0.000000] percpu: Embedded 44 pages/cpu @(____ptrval____) s142744 r8192 d29288 u524288
Dec 16 22:04:44 re kernel: [    0.000000] pcpu-alloc: s142744 r8192 d29288 u524288 alloc=1*2097152
Dec 16 22:04:44 re kernel: [    0.000000] pcpu-alloc: [0] 0 1 2 3 
Dec 16 22:04:44 re kernel: [    0.000000] Built 1 zonelists, mobility grouping on.  Total pages: 981438
Dec 16 22:04:44 re kernel: [    0.000000] Policy zone: Normal
Dec 16 22:04:44 re kernel: [    0.000000] Kernel command line: BOOT_IMAGE=/boot/vmlinuz-4.18.0-kali2-amd64 root=UUID=0f4a6c80-be10-41d1-b10f-f1c6ca081b1c ro initrd=/install/gtk/initrd.gz quiet
Dec 16 22:04:44 re kernel: [    0.000000] Calgary: detecting Calgary via BIOS EBDA area
Dec 16 22:04:44 re kernel: [    0.000000] Calgary: Unable to locate Rio Grande table in EBDA - bailing!
Dec 16 22:04:44 re kernel: [    0.000000] Memory: 3798232K/3988160K available (10252K kernel code, 1223K rwdata, 3260K rodata, 1548K init, 656K bss, 189928K reserved, 0K cma-reserved)
Dec 16 22:04:44 re kernel: [    0.000000] SLUB: HWalign=64, Order=0-3, MinObjects=0, CPUs=4, Nodes=1
Dec 16 22:04:44 re kernel: [    0.000000] Kernel/User page tables isolation: enabled
Dec 16 22:04:44 re kernel: [    0.000000] ftrace: allocating 31267 entries in 123 pages
Dec 16 22:04:44 re kernel: [    0.000000] Hierarchical RCU implementation.
Dec 16 22:04:44 re kernel: [    0.000000] 	RCU restricting CPUs from NR_CPUS=512 to nr_cpu_ids=4.
Dec 16 22:04:44 re kernel: [    0.000000] RCU: Adjusting geometry for rcu_fanout_leaf=16, nr_cpu_ids=4
Dec 16 22:04:44 re kernel: [    0.000000] NR_IRQS: 33024, nr_irqs: 456, preallocated irqs: 16
Dec 16 22:04:44 re kernel: [    0.000000] Console: colour VGA+ 80x25
Dec 16 22:04:44 re kernel: [    0.000000] console [tty0] enabled
Dec 16 22:04:44 re kernel: [    0.000000] ACPI: Core revision 20180531
Dec 16 22:04:44 re kernel: [    0.000000] clocksource: hpet: mask: 0xffffffff max_cycles: 0xffffffff, max_idle_ns: 133484882848 ns
Dec 16 22:04:44 re kernel: [    0.000000] hpet clockevent registered
Dec 16 22:04:44 re kernel: [    0.000000] APIC: Switch to symmetric I/O mode setup
Dec 16 22:04:44 re kernel: [    0.000000] ..TIMER: vector=0x30 apic1=0 pin1=2 apic2=-1 pin2=-1
Dec 16 22:04:44 re kernel: [    0.020000] tsc: Fast TSC calibration using PIT
Dec 16 22:04:44 re kernel: [    0.024000] tsc: Detected 2526.708 MHz processor
Dec 16 22:04:44 re kernel: [    0.024000] clocksource: tsc-early: mask: 0xffffffffffffffff max_cycles: 0x246bc80db7c, max_idle_ns: 440795269324 ns
Dec 16 22:04:44 re kernel: [    0.024000] Calibrating delay loop (skipped), value calculated using timer frequency.. 5053.41 BogoMIPS (lpj=10106832)
Dec 16 22:04:44 re kernel: [    0.024000] pid_max: default: 32768 minimum: 301
Dec 16 22:04:44 re kernel: [    0.024000] Security Framework initialized
Dec 16 22:04:44 re kernel: [    0.024000] Yama: disabled by default; enable with sysctl kernel.yama.*
Dec 16 22:04:44 re kernel: [    0.024000] AppArmor: AppArmor initialized
Dec 16 22:04:44 re kernel: [    0.024000] Dentry cache hash table entries: 524288 (order: 10, 4194304 bytes)
Dec 16 22:04:44 re kernel: [    0.024000] Inode-cache hash table entries: 262144 (order: 9, 2097152 bytes)
Dec 16 22:04:44 re kernel: [    0.024000] Mount-cache hash table entries: 8192 (order: 4, 65536 bytes)
Dec 16 22:04:44 re kernel: [    0.024000] Mountpoint-cache hash table entries: 8192 (order: 4, 65536 bytes)
Dec 16 22:04:44 re kernel: [    0.024000] mce: CPU supports 9 MCE banks
Dec 16 22:04:44 re kernel: [    0.024000] CPU0: Thermal monitoring enabled (TM1)
Dec 16 22:04:44 re kernel: [    0.024000] process: using mwait in idle threads
Dec 16 22:04:44 re kernel: [    0.024000] Last level iTLB entries: 4KB 512, 2MB 7, 4MB 7
Dec 16 22:04:44 re kernel: [    0.024000] Last level dTLB entries: 4KB 512, 2MB 32, 4MB 32, 1GB 0
Dec 16 22:04:44 re kernel: [    0.024000] Spectre V2 : Mitigation: Full generic retpoline
Dec 16 22:04:44 re kernel: [    0.024000] Spectre V2 : Spectre v2 / SpectreRSB mitigation: Filling RSB on context switch
Dec 16 22:04:44 re kernel: [    0.024000] Spectre V2 : Spectre v2 mitigation: Enabling Indirect Branch Prediction Barrier
Dec 16 22:04:44 re kernel: [    0.024000] Spectre V2 : Enabling Restricted Speculation for firmware calls
Dec 16 22:04:44 re kernel: [    0.024000] Speculative Store Bypass: Mitigation: Speculative Store Bypass disabled via prctl and seccomp
Dec 16 22:04:44 re kernel: [    0.024000] Freeing SMP alternatives memory: 24K
Dec 16 22:04:44 re kernel: [    0.032000] smpboot: CPU0: Intel(R) Core(TM) i3 CPU       M 380  @ 2.53GHz (family: 0x6, model: 0x25, stepping: 0x5)
Dec 16 22:04:44 re kernel: [    0.032000] Performance Events: PEBS fmt1+, Westmere events, 16-deep LBR, Intel PMU driver.
Dec 16 22:04:44 re kernel: [    0.032000] core: CPUID marked event: 'bus cycles' unavailable
Dec 16 22:04:44 re kernel: [    0.032000] ... version:                3
Dec 16 22:04:44 re kernel: [    0.032000] ... bit width:              48
Dec 16 22:04:44 re kernel: [    0.032000] ... generic registers:      4
Dec 16 22:04:44 re kernel: [    0.032000] ... value mask:             0000ffffffffffff
Dec 16 22:04:44 re kernel: [    0.032000] ... max period:             000000007fffffff
Dec 16 22:04:44 re kernel: [    0.032000] ... fixed-purpose events:   3
Dec 16 22:04:44 re kernel: [    0.032000] ... event mask:             000000070000000f
Dec 16 22:04:44 re kernel: [    0.032000] Hierarchical SRCU implementation.
Dec 16 22:04:44 re kernel: [    0.032000] smp: Bringing up secondary CPUs ...
Dec 16 22:04:44 re kernel: [    0.032000] NMI watchdog: Enabled. Permanently consumes one hw-PMU counter.
Dec 16 22:04:44 re kernel: [    0.032000] x86: Booting SMP configuration:
Dec 16 22:04:44 re kernel: [    0.032000] .... node  #0, CPUs:      #1 #2 #3
Dec 16 22:04:44 re kernel: [    0.036091] smp: Brought up 1 node, 4 CPUs
Dec 16 22:04:44 re kernel: [    0.036091] smpboot: Max logical packages: 1
Dec 16 22:04:44 re kernel: [    0.036091] smpboot: Total of 4 processors activated (20213.66 BogoMIPS)
Dec 16 22:04:44 re kernel: [    0.040075] devtmpfs: initialized
Dec 16 22:04:44 re kernel: [    0.040076] x86/mm: Memory block size: 128MB
Dec 16 22:04:44 re kernel: [    0.040520] PM: Registering ACPI NVS region [mem 0xbb5a9000-0xbb5f0fff] (294912 bytes)
Dec 16 22:04:44 re kernel: [    0.040520] PM: Registering ACPI NVS region [mem 0xbb5fb000-0xbb5fdfff] (12288 bytes)
Dec 16 22:04:44 re kernel: [    0.040520] PM: Registering ACPI NVS region [mem 0xbb622000-0xbb62afff] (36864 bytes)
Dec 16 22:04:44 re kernel: [    0.040520] PM: Registering ACPI NVS region [mem 0xbb62e000-0xbb631fff] (16384 bytes)
Dec 16 22:04:44 re kernel: [    0.040520] PM: Registering ACPI NVS region [mem 0xbb652000-0xbb694fff] (274432 bytes)
Dec 16 22:04:44 re kernel: [    0.040520] clocksource: jiffies: mask: 0xffffffff max_cycles: 0xffffffff, max_idle_ns: 7645041785100000 ns
Dec 16 22:04:44 re kernel: [    0.040520] futex hash table entries: 1024 (order: 4, 65536 bytes)
Dec 16 22:04:44 re kernel: [    0.040520] pinctrl core: initialized pinctrl subsystem
Dec 16 22:04:44 re kernel: [    0.040520] NET: Registered protocol family 16
Dec 16 22:04:44 re kernel: [    0.040520] audit: initializing netlink subsys (disabled)
Dec 16 22:04:44 re kernel: [    0.040520] audit: type=2000 audit(1544969065.040:1): state=initialized audit_enabled=0 res=1
Dec 16 22:04:44 re kernel: [    0.040520] cpuidle: using governor ladder
Dec 16 22:04:44 re kernel: [    0.040520] cpuidle: using governor menu
Dec 16 22:04:44 re kernel: [    0.040520] ACPI: bus type PCI registered
Dec 16 22:04:44 re kernel: [    0.040520] acpiphp: ACPI Hot Plug PCI Controller Driver version: 0.5
Dec 16 22:04:44 re kernel: [    0.040520] PCI: MMCONFIG for domain 0000 [bus 00-ff] at [mem 0xe0000000-0xefffffff] (base 0xe0000000)
Dec 16 22:04:44 re kernel: [    0.040520] PCI: MMCONFIG at [mem 0xe0000000-0xefffffff] reserved in E820
Dec 16 22:04:44 re kernel: [    0.040520] pmd_set_huge: Cannot satisfy [mem 0xe0000000-0xe0200000] with a huge-page mapping due to MTRR override.
Dec 16 22:04:44 re kernel: [    0.040687] PCI: Using configuration type 1 for base access
Dec 16 22:04:44 re kernel: [    0.040898] HugeTLB registered 2.00 MiB page size, pre-allocated 0 pages
Dec 16 22:04:44 re kernel: [    0.040898] ACPI: Added _OSI(Module Device)
Dec 16 22:04:44 re kernel: [    0.040898] ACPI: Added _OSI(Processor Device)
Dec 16 22:04:44 re kernel: [    0.040898] ACPI: Added _OSI(3.0 _SCP Extensions)
Dec 16 22:04:44 re kernel: [    0.040898] ACPI: Added _OSI(Processor Aggregator Device)
Dec 16 22:04:44 re kernel: [    0.040898] ACPI: Added _OSI(Linux-Dell-Video)
Dec 16 22:04:44 re kernel: [    0.048007] ACPI: 2 ACPI AML tables successfully acquired and loaded
Dec 16 22:04:44 re kernel: [    0.048139] ACPI: [Firmware Bug]: BIOS _OSI(Linux) query ignored
Dec 16 22:04:44 re kernel: [    0.053149] ACPI: Dynamic OEM Table Load:
Dec 16 22:04:44 re kernel: [    0.053155] ACPI: SSDT 0xFFFF8FF6F2B57000 0003A4 (v01 AMI    IST      00000001 MSFT 03000001)
Dec 16 22:04:44 re kernel: [    0.053952] ACPI: Interpreter enabled
Dec 16 22:04:44 re kernel: [    0.053973] ACPI: (supports S0 S3 S4 S5)
Dec 16 22:04:44 re kernel: [    0.053974] ACPI: Using IOAPIC for interrupt routing
Dec 16 22:04:44 re kernel: [    0.054009] PCI: Using host bridge windows from ACPI; if necessary, use "pci=nocrs" and report a bug
Dec 16 22:04:44 re kernel: [    0.056055] ACPI: Enabled 9 GPEs in block 00 to 3F
Dec 16 22:04:44 re kernel: [    0.068512] ACPI: PCI Root Bridge [PCI0] (domain 0000 [bus 00-ff])
Dec 16 22:04:44 re kernel: [    0.068517] acpi PNP0A08:00: _OSC: OS supports [ExtendedConfig ASPM ClockPM Segments MSI]
Dec 16 22:04:44 re kernel: [    0.068653] acpi PNP0A08:00: _OSC: platform does not support [PME LTR]
Dec 16 22:04:44 re kernel: [    0.068779] acpi PNP0A08:00: _OSC: OS now controls [PCIeHotplug SHPCHotplug AER PCIeCapability]
Dec 16 22:04:44 re kernel: [    0.069010] PCI host bridge to bus 0000:00
Dec 16 22:04:44 re kernel: [    0.069013] pci_bus 0000:00: root bus resource [io  0x0000-0x0cf7 window]
Dec 16 22:04:44 re kernel: [    0.069014] pci_bus 0000:00: root bus resource [io  0x0d00-0xffff window]
Dec 16 22:04:44 re kernel: [    0.069016] pci_bus 0000:00: root bus resource [mem 0x000a0000-0x000bffff window]
Dec 16 22:04:44 re kernel: [    0.069018] pci_bus 0000:00: root bus resource [mem 0xc0000000-0xffffffff window]
Dec 16 22:04:44 re kernel: [    0.069020] pci_bus 0000:00: root bus resource [bus 00-ff]
Dec 16 22:04:44 re kernel: [    0.069029] pci 0000:00:00.0: [8086:0044] type 00 class 0x060000
Dec 16 22:04:44 re kernel: [    0.069053] DMAR: BIOS has allocated no shadow GTT; disabling IOMMU for graphics
Dec 16 22:04:44 re kernel: [    0.069129] pci 0000:00:02.0: [8086:0046] type 00 class 0x030000
Dec 16 22:04:44 re kernel: [    0.069140] pci 0000:00:02.0: reg 0x10: [mem 0xfb000000-0xfb3fffff 64bit]
Dec 16 22:04:44 re kernel: [    0.069146] pci 0000:00:02.0: reg 0x18: [mem 0xc0000000-0xcfffffff 64bit pref]
Dec 16 22:04:44 re kernel: [    0.069150] pci 0000:00:02.0: reg 0x20: [io  0xf080-0xf087]
Dec 16 22:04:44 re kernel: [    0.069268] pci 0000:00:16.0: [8086:3b64] type 00 class 0x078000
Dec 16 22:04:44 re kernel: [    0.069300] pci 0000:00:16.0: reg 0x10: [mem 0xfbf09000-0xfbf0900f 64bit]
Dec 16 22:04:44 re kernel: [    0.069394] pci 0000:00:16.0: PME# supported from D0 D3hot D3cold
Dec 16 22:04:44 re kernel: [    0.069488] pci 0000:00:1a.0: [8086:3b3c] type 00 class 0x0c0320
Dec 16 22:04:44 re kernel: [    0.069515] pci 0000:00:1a.0: reg 0x10: [mem 0xfbf08000-0xfbf083ff]
Dec 16 22:04:44 re kernel: [    0.069616] pci 0000:00:1a.0: PME# supported from D0 D3hot D3cold
Dec 16 22:04:44 re kernel: [    0.069706] pci 0000:00:1b.0: [8086:3b56] type 00 class 0x040300
Dec 16 22:04:44 re kernel: [    0.069736] pci 0000:00:1b.0: reg 0x10: [mem 0xfbf00000-0xfbf03fff 64bit]
Dec 16 22:04:44 re kernel: [    0.069843] pci 0000:00:1b.0: PME# supported from D0 D3hot D3cold
Dec 16 22:04:44 re kernel: [    0.069932] pci 0000:00:1c.0: [8086:3b42] type 01 class 0x060400
Dec 16 22:04:44 re kernel: [    0.070040] pci 0000:00:1c.0: PME# supported from D0 D3hot D3cold
Dec 16 22:04:44 re kernel: [    0.070149] pci 0000:00:1c.1: [8086:3b44] type 01 class 0x060400
Dec 16 22:04:44 re kernel: [    0.070257] pci 0000:00:1c.1: PME# supported from D0 D3hot D3cold
Dec 16 22:04:44 re kernel: [    0.070354] pci 0000:00:1c.2: [8086:3b46] type 01 class 0x060400
Dec 16 22:04:44 re kernel: [    0.070463] pci 0000:00:1c.2: PME# supported from D0 D3hot D3cold
Dec 16 22:04:44 re kernel: [    0.070565] pci 0000:00:1c.4: [8086:3b4a] type 01 class 0x060400
Dec 16 22:04:44 re kernel: [    0.070672] pci 0000:00:1c.4: PME# supported from D0 D3hot D3cold
Dec 16 22:04:44 re kernel: [    0.070779] pci 0000:00:1d.0: [8086:3b34] type 00 class 0x0c0320
Dec 16 22:04:44 re kernel: [    0.070806] pci 0000:00:1d.0: reg 0x10: [mem 0xfbf07000-0xfbf073ff]
Dec 16 22:04:44 re kernel: [    0.070906] pci 0000:00:1d.0: PME# supported from D0 D3hot D3cold
Dec 16 22:04:44 re kernel: [    0.070994] pci 0000:00:1e.0: [8086:2448] type 01 class 0x060401
Dec 16 22:04:44 re kernel: [    0.072118] pci 0000:00:1f.0: [8086:3b0b] type 00 class 0x060100
Dec 16 22:04:44 re kernel: [    0.072303] pci 0000:00:1f.2: [8086:3b2f] type 00 class 0x010601
Dec 16 22:04:44 re kernel: [    0.072329] pci 0000:00:1f.2: reg 0x10: [io  0xf070-0xf077]
Dec 16 22:04:44 re kernel: [    0.072340] pci 0000:00:1f.2: reg 0x14: [io  0xf060-0xf063]
Dec 16 22:04:44 re kernel: [    0.072350] pci 0000:00:1f.2: reg 0x18: [io  0xf050-0xf057]
Dec 16 22:04:44 re kernel: [    0.072361] pci 0000:00:1f.2: reg 0x1c: [io  0xf040-0xf043]
Dec 16 22:04:44 re kernel: [    0.072371] pci 0000:00:1f.2: reg 0x20: [io  0xf020-0xf03f]
Dec 16 22:04:44 re kernel: [    0.072382] pci 0000:00:1f.2: reg 0x24: [mem 0xfbf06000-0xfbf067ff]
Dec 16 22:04:44 re kernel: [    0.072442] pci 0000:00:1f.2: PME# supported from D3hot
Dec 16 22:04:44 re kernel: [    0.072527] pci 0000:00:1f.3: [8086:3b30] type 00 class 0x0c0500
Dec 16 22:04:44 re kernel: [    0.072554] pci 0000:00:1f.3: reg 0x10: [mem 0xfbf05000-0xfbf050ff 64bit]
Dec 16 22:04:44 re kernel: [    0.072583] pci 0000:00:1f.3: reg 0x20: [io  0xf000-0xf01f]
Dec 16 22:04:44 re kernel: [    0.072686] pci 0000:00:1f.6: [8086:3b32] type 00 class 0x118000
Dec 16 22:04:44 re kernel: [    0.072716] pci 0000:00:1f.6: reg 0x10: [mem 0xfbf04000-0xfbf04fff 64bit]
Dec 16 22:04:44 re kernel: [    0.072943] pci 0000:00:1c.0: PCI bridge to [bus 11]
Dec 16 22:04:44 re kernel: [    0.073056] pci 0000:12:00.0: [14e4:4727] type 00 class 0x028000
Dec 16 22:04:44 re kernel: [    0.073107] pci 0000:12:00.0: reg 0x10: [mem 0xfbe00000-0xfbe03fff 64bit]
Dec 16 22:04:44 re kernel: [    0.073191] pci 0000:12:00.0: enabling Extended Tags
Dec 16 22:04:44 re kernel: [    0.073311] pci 0000:12:00.0: supports D1 D2
Dec 16 22:04:44 re kernel: [    0.073312] pci 0000:12:00.0: PME# supported from D0 D3hot D3cold
Dec 16 22:04:44 re kernel: [    0.073464] pci 0000:00:1c.1: PCI bridge to [bus 12]
Dec 16 22:04:44 re kernel: [    0.073471] pci 0000:00:1c.1:   bridge window [mem 0xfbe00000-0xfbefffff]
Dec 16 22:04:44 re kernel: [    0.073573] pci 0000:13:00.0: [10ec:8136] type 00 class 0x020000
Dec 16 22:04:44 re kernel: [    0.073603] pci 0000:13:00.0: reg 0x10: [io  0xe000-0xe0ff]
Dec 16 22:04:44 re kernel: [    0.073630] pci 0000:13:00.0: reg 0x18: [mem 0xd0b04000-0xd0b04fff 64bit pref]
Dec 16 22:04:44 re kernel: [    0.073646] pci 0000:13:00.0: reg 0x20: [mem 0xd0b00000-0xd0b03fff 64bit pref]
Dec 16 22:04:44 re kernel: [    0.073746] pci 0000:13:00.0: supports D1 D2
Dec 16 22:04:44 re kernel: [    0.073748] pci 0000:13:00.0: PME# supported from D0 D1 D2 D3hot D3cold
Dec 16 22:04:44 re kernel: [    0.073862] pci 0000:00:1c.2: PCI bridge to [bus 13]
Dec 16 22:04:44 re kernel: [    0.073867] pci 0000:00:1c.2:   bridge window [io  0xe000-0xefff]
Dec 16 22:04:44 re kernel: [    0.073876] pci 0000:00:1c.2:   bridge window [mem 0xd0b00000-0xd0bfffff 64bit pref]
Dec 16 22:04:44 re kernel: [    0.073957] pci 0000:00:1c.4: PCI bridge to [bus 15]
Dec 16 22:04:44 re kernel: [    0.073961] pci 0000:00:1c.4:   bridge window [io  0xd000-0xdfff]
Dec 16 22:04:44 re kernel: [    0.073966] pci 0000:00:1c.4:   bridge window [mem 0xfb400000-0xfbdfffff]
Dec 16 22:04:44 re kernel: [    0.073972] pci 0000:00:1c.4:   bridge window [mem 0xd0000000-0xd09fffff 64bit pref]
Dec 16 22:04:44 re kernel: [    0.073998] pci_bus 0000:20: extended config space not accessible
Dec 16 22:04:44 re kernel: [    0.074056] pci 0000:00:1e.0: PCI bridge to [bus 20] (subtractive decode)
Dec 16 22:04:44 re kernel: [    0.074068] pci 0000:00:1e.0:   bridge window [io  0x0000-0x0cf7 window] (subtractive decode)
Dec 16 22:04:44 re kernel: [    0.074070] pci 0000:00:1e.0:   bridge window [io  0x0d00-0xffff window] (subtractive decode)
Dec 16 22:04:44 re kernel: [    0.074072] pci 0000:00:1e.0:   bridge window [mem 0x000a0000-0x000bffff window] (subtractive decode)
Dec 16 22:04:44 re kernel: [    0.074073] pci 0000:00:1e.0:   bridge window [mem 0xc0000000-0xffffffff window] (subtractive decode)
Dec 16 22:04:44 re kernel: [    0.074428] ACPI: PCI Interrupt Link [LNKA] (IRQs 3 4 5 6 7 10 *11 12 14 15)
Dec 16 22:04:44 re kernel: [    0.074484] ACPI: PCI Interrupt Link [LNKB] (IRQs 3 4 *5 6 7 10 11 12 14 15)
Dec 16 22:04:44 re kernel: [    0.074539] ACPI: PCI Interrupt Link [LNKC] (IRQs *3 4 5 6 10 11 12 14 15)
Dec 16 22:04:44 re kernel: [    0.074594] ACPI: PCI Interrupt Link [LNKD] (IRQs 3 *4 5 6 10 11 12 14 15)
Dec 16 22:04:44 re kernel: [    0.074649] ACPI: PCI Interrupt Link [LNKE] (IRQs 3 4 5 6 7 10 11 12 14 15) *0
Dec 16 22:04:44 re kernel: [    0.074704] ACPI: PCI Interrupt Link [LNKF] (IRQs 3 4 5 6 7 10 11 12 14 15) *0
Dec 16 22:04:44 re kernel: [    0.074760] ACPI: PCI Interrupt Link [LNKG] (IRQs 3 4 5 6 7 *10 11 12 14 15)
Dec 16 22:04:44 re kernel: [    0.074815] ACPI: PCI Interrupt Link [LNKH] (IRQs 3 4 5 6 *7 10 11 12 14 15)
Dec 16 22:04:44 re kernel: [    0.076021] pci 0000:00:02.0: vgaarb: setting as boot VGA device
Dec 16 22:04:44 re kernel: [    0.076021] pci 0000:00:02.0: vgaarb: VGA device added: decodes=io+mem,owns=io+mem,locks=none
Dec 16 22:04:44 re kernel: [    0.076021] pci 0000:00:02.0: vgaarb: bridge control possible
Dec 16 22:04:44 re kernel: [    0.076021] vgaarb: loaded
Dec 16 22:04:44 re kernel: [    0.076086] pps_core: LinuxPPS API ver. 1 registered
Dec 16 22:04:44 re kernel: [    0.076087] pps_core: Software ver. 5.3.6 - Copyright 2005-2007 Rodolfo Giometti <giometti@linux.it>
Dec 16 22:04:44 re kernel: [    0.076090] PTP clock support registered
Dec 16 22:04:44 re kernel: [    0.076096] EDAC MC: Ver: 3.0.0
Dec 16 22:04:44 re kernel: [    0.076186] PCI: Using ACPI for IRQ routing
Dec 16 22:04:44 re kernel: [    0.086613] PCI: Discovered peer bus ff
Dec 16 22:04:44 re kernel: [    0.086614] PCI: root bus ff: using default resources
Dec 16 22:04:44 re kernel: [    0.086615] PCI: Probing PCI hardware (bus ff)
Dec 16 22:04:44 re kernel: [    0.086640] PCI host bridge to bus 0000:ff
Dec 16 22:04:44 re kernel: [    0.086642] pci_bus 0000:ff: root bus resource [io  0x0000-0xffff]
Dec 16 22:04:44 re kernel: [    0.086644] pci_bus 0000:ff: root bus resource [mem 0x00000000-0xfffffffff]
Dec 16 22:04:44 re kernel: [    0.086646] pci_bus 0000:ff: No busn resource found for root bus, will use [bus ff-ff]
Dec 16 22:04:44 re kernel: [    0.086648] pci_bus 0000:ff: busn_res: can not insert [bus ff] under domain [bus 00-ff] (conflicts with (null) [bus 00-ff])
Dec 16 22:04:44 re kernel: [    0.086654] pci 0000:ff:00.0: [8086:2c62] type 00 class 0x060000
Dec 16 22:04:44 re kernel: [    0.086699] pci 0000:ff:00.1: [8086:2d01] type 00 class 0x060000
Dec 16 22:04:44 re kernel: [    0.086741] pci 0000:ff:02.0: [8086:2d10] type 00 class 0x060000
Dec 16 22:04:44 re kernel: [    0.086783] pci 0000:ff:02.1: [8086:2d11] type 00 class 0x060000
Dec 16 22:04:44 re kernel: [    0.086822] pci 0000:ff:02.2: [8086:2d12] type 00 class 0x060000
Dec 16 22:04:44 re kernel: [    0.086861] pci 0000:ff:02.3: [8086:2d13] type 00 class 0x060000
Dec 16 22:04:44 re kernel: [    0.086909] pci_bus 0000:ff: busn_res: [bus ff] end is updated to ff
Dec 16 22:04:44 re kernel: [    0.086911] pci_bus 0000:ff: busn_res: can not insert [bus ff] under domain [bus 00-ff] (conflicts with (null) [bus 00-ff])
Dec 16 22:04:44 re kernel: [    0.086914] PCI: pci_cache_line_size set to 64 bytes
Dec 16 22:04:44 re kernel: [    0.086976] e820: reserve RAM buffer [mem 0x0009d400-0x0009ffff]
Dec 16 22:04:44 re kernel: [    0.086978] e820: reserve RAM buffer [mem 0xbb5a9000-0xbbffffff]
Dec 16 22:04:44 re kernel: [    0.086980] e820: reserve RAM buffer [mem 0xbb800000-0xbbffffff]
Dec 16 22:04:44 re kernel: [    0.087100] hpet0: at MMIO 0xfed00000, IRQs 2, 8, 0, 0, 0, 0, 0, 0
Dec 16 22:04:44 re kernel: [    0.087100] hpet0: 8 comparators, 64-bit 14.318180 MHz counter
Dec 16 22:04:44 re kernel: [    0.089041] clocksource: Switched to clocksource tsc-early
Dec 16 22:04:44 re kernel: [    0.099864] VFS: Disk quotas dquot_6.6.0
Dec 16 22:04:44 re kernel: [    0.099887] VFS: Dquot-cache hash table entries: 512 (order 0, 4096 bytes)
Dec 16 22:04:44 re kernel: [    0.100012] AppArmor: AppArmor Filesystem Enabled
Dec 16 22:04:44 re kernel: [    0.100042] pnp: PnP ACPI init
Dec 16 22:04:44 re kernel: [    0.100222] system 00:00: [mem 0xfed14000-0xfed19fff] has been reserved
Dec 16 22:04:44 re kernel: [    0.100224] system 00:00: [mem 0xe0000000-0xefffffff] has been reserved
Dec 16 22:04:44 re kernel: [    0.100226] system 00:00: [mem 0xfed90000-0xfed93fff] has been reserved
Dec 16 22:04:44 re kernel: [    0.100228] system 00:00: [mem 0xfed20000-0xfed3ffff] has been reserved
Dec 16 22:04:44 re kernel: [    0.100230] system 00:00: [mem 0xfee00000-0xfee0ffff] has been reserved
Dec 16 22:04:44 re kernel: [    0.100237] system 00:00: Plug and Play ACPI device, IDs PNP0c01 (active)
Dec 16 22:04:44 re kernel: [    0.100283] pnp 00:01: Plug and Play ACPI device, IDs PNP0b00 (active)
Dec 16 22:04:44 re kernel: [    0.100341] system 00:02: [io  0x04d0-0x04d1] has been reserved
Dec 16 22:04:44 re kernel: [    0.100343] system 00:02: [mem 0xfe800000-0xfe8001ff] has been reserved
Dec 16 22:04:44 re kernel: [    0.100348] system 00:02: Plug and Play ACPI device, IDs PNP0c02 (active)
Dec 16 22:04:44 re kernel: [    0.100380] pnp 00:03: Plug and Play ACPI device, IDs DLL0505 SYN0600 SYN0002 PNP0f13 (active)
Dec 16 22:04:44 re kernel: [    0.100414] pnp 00:04: Plug and Play ACPI device, IDs PNP0303 (active)
Dec 16 22:04:44 re kernel: [    0.100567] system 00:05: [io  0x0400-0x047f] has been reserved
Dec 16 22:04:44 re kernel: [    0.100570] system 00:05: [io  0x1180-0x119f] has been reserved
Dec 16 22:04:44 re kernel: [    0.100571] system 00:05: [io  0x0500-0x057f] has been reserved
Dec 16 22:04:44 re kernel: [    0.100574] system 00:05: [mem 0xfed1c000-0xfed1ffff] has been reserved
Dec 16 22:04:44 re kernel: [    0.100576] system 00:05: [mem 0xfec00000-0xfecfffff] could not be reserved
Dec 16 22:04:44 re kernel: [    0.100577] system 00:05: [mem 0xfed08000-0xfed08fff] has been reserved
Dec 16 22:04:44 re kernel: [    0.100579] system 00:05: [mem 0xff000000-0xffffffff] has been reserved
Dec 16 22:04:44 re kernel: [    0.100584] system 00:05: Plug and Play ACPI device, IDs PNP0c01 (active)
Dec 16 22:04:44 re kernel: [    0.100855] pnp: PnP ACPI: found 6 devices
Dec 16 22:04:44 re kernel: [    0.107020] clocksource: acpi_pm: mask: 0xffffff max_cycles: 0xffffff, max_idle_ns: 2085701024 ns
Dec 16 22:04:44 re kernel: [    0.107039] pci 0000:00:1c.0: bridge window [io  0x1000-0x0fff] to [bus 11] add_size 1000
Dec 16 22:04:44 re kernel: [    0.107043] pci 0000:00:1c.0: bridge window [mem 0x00100000-0x000fffff 64bit pref] to [bus 11] add_size 200000 add_align 100000
Dec 16 22:04:44 re kernel: [    0.107045] pci 0000:00:1c.0: bridge window [mem 0x00100000-0x000fffff] to [bus 11] add_size 200000 add_align 100000
Dec 16 22:04:44 re kernel: [    0.107055] pci 0000:00:1c.1: bridge window [io  0x1000-0x0fff] to [bus 12] add_size 1000
Dec 16 22:04:44 re kernel: [    0.107058] pci 0000:00:1c.1: bridge window [mem 0x00100000-0x000fffff 64bit pref] to [bus 12] add_size 200000 add_align 100000
Dec 16 22:04:44 re kernel: [    0.107071] pci 0000:00:1c.2: bridge window [mem 0x00100000-0x000fffff] to [bus 13] add_size 400000 add_align 100000
Dec 16 22:04:44 re kernel: [    0.107097] pci 0000:00:1c.0: BAR 14: assigned [mem 0xd0c00000-0xd0dfffff]
Dec 16 22:04:44 re kernel: [    0.107102] pci 0000:00:1c.0: BAR 15: assigned [mem 0xd0e00000-0xd0ffffff 64bit pref]
Dec 16 22:04:44 re kernel: [    0.107106] pci 0000:00:1c.1: BAR 15: assigned [mem 0xd1000000-0xd11fffff 64bit pref]
Dec 16 22:04:44 re kernel: [    0.107108] pci 0000:00:1c.2: BAR 14: assigned [mem 0xd1200000-0xd15fffff]
Dec 16 22:04:44 re kernel: [    0.107110] pci 0000:00:1c.0: BAR 13: assigned [io  0x2000-0x2fff]
Dec 16 22:04:44 re kernel: [    0.107112] pci 0000:00:1c.1: BAR 13: assigned [io  0x3000-0x3fff]
Dec 16 22:04:44 re kernel: [    0.107116] pci 0000:00:1c.0: PCI bridge to [bus 11]
Dec 16 22:04:44 re kernel: [    0.107119] pci 0000:00:1c.0:   bridge window [io  0x2000-0x2fff]
Dec 16 22:04:44 re kernel: [    0.107125] pci 0000:00:1c.0:   bridge window [mem 0xd0c00000-0xd0dfffff]
Dec 16 22:04:44 re kernel: [    0.107129] pci 0000:00:1c.0:   bridge window [mem 0xd0e00000-0xd0ffffff 64bit pref]
Dec 16 22:04:44 re kernel: [    0.107136] pci 0000:00:1c.1: PCI bridge to [bus 12]
Dec 16 22:04:44 re kernel: [    0.107139] pci 0000:00:1c.1:   bridge window [io  0x3000-0x3fff]
Dec 16 22:04:44 re kernel: [    0.107145] pci 0000:00:1c.1:   bridge window [mem 0xfbe00000-0xfbefffff]
Dec 16 22:04:44 re kernel: [    0.107149] pci 0000:00:1c.1:   bridge window [mem 0xd1000000-0xd11fffff 64bit pref]
Dec 16 22:04:44 re kernel: [    0.107157] pci 0000:00:1c.2: PCI bridge to [bus 13]
Dec 16 22:04:44 re kernel: [    0.107160] pci 0000:00:1c.2:   bridge window [io  0xe000-0xefff]
Dec 16 22:04:44 re kernel: [    0.107165] pci 0000:00:1c.2:   bridge window [mem 0xd1200000-0xd15fffff]
Dec 16 22:04:44 re kernel: [    0.107169] pci 0000:00:1c.2:   bridge window [mem 0xd0b00000-0xd0bfffff 64bit pref]
Dec 16 22:04:44 re kernel: [    0.107176] pci 0000:00:1c.4: PCI bridge to [bus 15]
Dec 16 22:04:44 re kernel: [    0.107179] pci 0000:00:1c.4:   bridge window [io  0xd000-0xdfff]
Dec 16 22:04:44 re kernel: [    0.107184] pci 0000:00:1c.4:   bridge window [mem 0xfb400000-0xfbdfffff]
Dec 16 22:04:44 re kernel: [    0.107189] pci 0000:00:1c.4:   bridge window [mem 0xd0000000-0xd09fffff 64bit pref]
Dec 16 22:04:44 re kernel: [    0.107196] pci 0000:00:1e.0: PCI bridge to [bus 20]
Dec 16 22:04:44 re kernel: [    0.107211] pci_bus 0000:00: resource 4 [io  0x0000-0x0cf7 window]
Dec 16 22:04:44 re kernel: [    0.107213] pci_bus 0000:00: resource 5 [io  0x0d00-0xffff window]
Dec 16 22:04:44 re kernel: [    0.107214] pci_bus 0000:00: resource 6 [mem 0x000a0000-0x000bffff window]
Dec 16 22:04:44 re kernel: [    0.107216] pci_bus 0000:00: resource 7 [mem 0xc0000000-0xffffffff window]
Dec 16 22:04:44 re kernel: [    0.107217] pci_bus 0000:11: resource 0 [io  0x2000-0x2fff]
Dec 16 22:04:44 re kernel: [    0.107219] pci_bus 0000:11: resource 1 [mem 0xd0c00000-0xd0dfffff]
Dec 16 22:04:44 re kernel: [    0.107220] pci_bus 0000:11: resource 2 [mem 0xd0e00000-0xd0ffffff 64bit pref]
Dec 16 22:04:44 re kernel: [    0.107222] pci_bus 0000:12: resource 0 [io  0x3000-0x3fff]
Dec 16 22:04:44 re kernel: [    0.107223] pci_bus 0000:12: resource 1 [mem 0xfbe00000-0xfbefffff]
Dec 16 22:04:44 re kernel: [    0.107225] pci_bus 0000:12: resource 2 [mem 0xd1000000-0xd11fffff 64bit pref]
Dec 16 22:04:44 re kernel: [    0.107226] pci_bus 0000:13: resource 0 [io  0xe000-0xefff]
Dec 16 22:04:44 re kernel: [    0.107228] pci_bus 0000:13: resource 1 [mem 0xd1200000-0xd15fffff]
Dec 16 22:04:44 re kernel: [    0.107229] pci_bus 0000:13: resource 2 [mem 0xd0b00000-0xd0bfffff 64bit pref]
Dec 16 22:04:44 re kernel: [    0.107231] pci_bus 0000:15: resource 0 [io  0xd000-0xdfff]
Dec 16 22:04:44 re kernel: [    0.107232] pci_bus 0000:15: resource 1 [mem 0xfb400000-0xfbdfffff]
Dec 16 22:04:44 re kernel: [    0.107234] pci_bus 0000:15: resource 2 [mem 0xd0000000-0xd09fffff 64bit pref]
Dec 16 22:04:44 re kernel: [    0.107235] pci_bus 0000:20: resource 4 [io  0x0000-0x0cf7 window]
Dec 16 22:04:44 re kernel: [    0.107237] pci_bus 0000:20: resource 5 [io  0x0d00-0xffff window]
Dec 16 22:04:44 re kernel: [    0.107239] pci_bus 0000:20: resource 6 [mem 0x000a0000-0x000bffff window]
Dec 16 22:04:44 re kernel: [    0.107240] pci_bus 0000:20: resource 7 [mem 0xc0000000-0xffffffff window]
Dec 16 22:04:44 re kernel: [    0.107291] pci_bus 0000:ff: resource 4 [io  0x0000-0xffff]
Dec 16 22:04:44 re kernel: [    0.107293] pci_bus 0000:ff: resource 5 [mem 0x00000000-0xfffffffff]
Dec 16 22:04:44 re kernel: [    0.107331] NET: Registered protocol family 2
Dec 16 22:04:44 re kernel: [    0.107508] tcp_listen_portaddr_hash hash table entries: 2048 (order: 3, 32768 bytes)
Dec 16 22:04:44 re kernel: [    0.107527] TCP established hash table entries: 32768 (order: 6, 262144 bytes)
Dec 16 22:04:44 re kernel: [    0.107603] TCP bind hash table entries: 32768 (order: 7, 524288 bytes)
Dec 16 22:04:44 re kernel: [    0.107714] TCP: Hash tables configured (established 32768 bind 32768)
Dec 16 22:04:44 re kernel: [    0.107761] UDP hash table entries: 2048 (order: 4, 65536 bytes)
Dec 16 22:04:44 re kernel: [    0.107777] UDP-Lite hash table entries: 2048 (order: 4, 65536 bytes)
Dec 16 22:04:44 re kernel: [    0.107832] NET: Registered protocol family 1
Dec 16 22:04:44 re kernel: [    0.107847] pci 0000:00:02.0: Video device with shadowed ROM at [mem 0x000c0000-0x000dffff]
Dec 16 22:04:44 re kernel: [    0.238473] pci 0000:00:1a.0: quirk_usb_early_handoff+0x0/0x6b0 took 127549 usecs
Dec 16 22:04:44 re kernel: [    0.370471] pci 0000:00:1d.0: quirk_usb_early_handoff+0x0/0x6b0 took 128881 usecs
Dec 16 22:04:44 re kernel: [    0.370496] PCI: CLS mismatch (64 != 32), using 64 bytes
Dec 16 22:04:44 re kernel: [    0.370554] Unpacking initramfs...
Dec 16 22:04:44 re kernel: [    0.977862] Freeing initrd memory: 36720K
Dec 16 22:04:44 re kernel: [    0.977984] PCI-DMA: Using software bounce buffering for IO (SWIOTLB)
Dec 16 22:04:44 re kernel: [    0.977987] software IO TLB [mem 0xb75a9000-0xbb5a9000] (64MB) mapped at [(____ptrval____)-(____ptrval____)]
Dec 16 22:04:44 re kernel: [    0.978793] Initialise system trusted keyrings
Dec 16 22:04:44 re kernel: [    0.978868] workingset: timestamp_bits=40 max_order=20 bucket_order=0
Dec 16 22:04:44 re kernel: [    0.980199] zbud: loaded
Dec 16 22:04:44 re kernel: [    0.980460] pstore: using deflate compression
Dec 16 22:04:44 re kernel: [    1.389728] Key type asymmetric registered
Dec 16 22:04:44 re kernel: [    1.389730] Asymmetric key parser 'x509' registered
Dec 16 22:04:44 re kernel: [    1.389777] Block layer SCSI generic (bsg) driver version 0.4 loaded (major 248)
Dec 16 22:04:44 re kernel: [    1.389814] io scheduler noop registered
Dec 16 22:04:44 re kernel: [    1.389815] io scheduler deadline registered
Dec 16 22:04:44 re kernel: [    1.389859] io scheduler cfq registered (default)
Dec 16 22:04:44 re kernel: [    1.389860] io scheduler mq-deadline registered
Dec 16 22:04:44 re kernel: [    1.390813] pciehp 0000:00:1c.0:pcie004: Slot #0 AttnBtn- PwrCtrl- MRL- AttnInd- PwrInd- HotPlug+ Surprise+ Interlock- NoCompl+ LLActRep+
Dec 16 22:04:44 re kernel: [    1.390870] pciehp 0000:00:1c.1:pcie004: Slot #0 AttnBtn- PwrCtrl- MRL- AttnInd- PwrInd- HotPlug+ Surprise+ Interlock- NoCompl+ LLActRep+
Dec 16 22:04:44 re kernel: [    1.390911] pciehp 0000:00:1c.2:pcie004: Slot #0 AttnBtn- PwrCtrl- MRL- AttnInd- PwrInd- HotPlug+ Surprise+ Interlock- NoCompl+ LLActRep+
Dec 16 22:04:44 re kernel: [    1.390950] pciehp 0000:00:1c.4:pcie004: Slot #0 AttnBtn- PwrCtrl- MRL- AttnInd- PwrInd- HotPlug+ Surprise+ Interlock- NoCompl+ LLActRep+
Dec 16 22:04:44 re kernel: [    1.390994] shpchp: Standard Hot Plug PCI Controller Driver version: 0.4
Dec 16 22:04:44 re kernel: [    1.391008] intel_idle: MWAIT substates: 0x1120
Dec 16 22:04:44 re kernel: [    1.391009] intel_idle: v0.4.1 model 0x25
Dec 16 22:04:44 re kernel: [    1.391156] intel_idle: lapic_timer_reliable_states 0xffffffff
Dec 16 22:04:44 re kernel: [    1.391723] Serial: 8250/16550 driver, 4 ports, IRQ sharing enabled
Dec 16 22:04:44 re kernel: [    1.392206] Linux agpgart interface v0.103
Dec 16 22:04:44 re kernel: [    1.392307] AMD IOMMUv2 driver by Joerg Roedel <jroedel@suse.de>
Dec 16 22:04:44 re kernel: [    1.392308] AMD IOMMUv2 functionality not available on this system
Dec 16 22:04:44 re kernel: [    1.392683] i8042: PNP: PS/2 Controller [PNP0303:KBC,PNP0f13:PS2] at 0x60,0x64 irq 1,12
Dec 16 22:04:44 re kernel: [    1.422671] serio: i8042 KBD port at 0x60,0x64 irq 1
Dec 16 22:04:44 re kernel: [    1.422676] serio: i8042 AUX port at 0x60,0x64 irq 12
Dec 16 22:04:44 re kernel: [    1.422871] mousedev: PS/2 mouse device common for all mice
Dec 16 22:04:44 re kernel: [    1.423833] rtc_cmos 00:01: RTC can wake from S4
Dec 16 22:04:44 re kernel: [    1.424135] rtc_cmos 00:01: registered as rtc0
Dec 16 22:04:44 re kernel: [    1.424191] rtc_cmos 00:01: alarms up to one year, y3k, 114 bytes nvram, hpet irqs
Dec 16 22:04:44 re kernel: [    1.424632] ledtrig-cpu: registered to indicate activity on CPUs
Dec 16 22:04:44 re kernel: [    1.425165] NET: Registered protocol family 10
Dec 16 22:04:44 re kernel: [    1.430756] Segment Routing with IPv6
Dec 16 22:04:44 re kernel: [    1.430813] mip6: Mobile IPv6
Dec 16 22:04:44 re kernel: [    1.430817] NET: Registered protocol family 17
Dec 16 22:04:44 re kernel: [    1.430836] mpls_gso: MPLS GSO support
Dec 16 22:04:44 re kernel: [    1.431469] microcode: sig=0x20655, pf=0x10, revision=0x7
Dec 16 22:04:44 re kernel: [    1.431594] microcode: Microcode Update Driver: v2.2.
Dec 16 22:04:44 re kernel: [    1.431622] sched_clock: Marking stable (1431576999, 0)->(1524881899, -93304900)
Dec 16 22:04:44 re kernel: [    1.431894] registered taskstats version 1
Dec 16 22:04:44 re kernel: [    1.431895] Loading compiled-in X.509 certificates
Dec 16 22:04:44 re kernel: [    1.457677] input: AT Translated Set 2 keyboard as /devices/platform/i8042/serio0/input/input0
Dec 16 22:04:44 re kernel: [    1.484655] Loaded X.509 cert 'secure-boot-test-key-lfaraone: 97c1b25cddf9873ca78a58f3d73bf727d2cf78ff'
Dec 16 22:04:44 re kernel: [    1.484683] zswap: loaded using pool lzo/zbud
Dec 16 22:04:44 re kernel: [    1.484770] AppArmor: AppArmor sha1 policy hashing enabled
Dec 16 22:04:44 re kernel: [    1.485188] rtc_cmos 00:01: setting system clock to 2018-12-16 14:04:27 UTC (1544969067)
Dec 16 22:04:44 re kernel: [    1.487167] Freeing unused kernel image memory: 1548K
Dec 16 22:04:44 re kernel: [    1.524092] Write protecting the kernel read-only data: 16384k
Dec 16 22:04:44 re kernel: [    1.524880] Freeing unused kernel image memory: 2028K
Dec 16 22:04:44 re kernel: [    1.525199] Freeing unused kernel image memory: 836K
Dec 16 22:04:44 re kernel: [    1.534015] x86/mm: Checked W+X mappings: passed, no W+X pages found.
Dec 16 22:04:44 re kernel: [    1.534016] x86/mm: Checking user space page tables
Dec 16 22:04:44 re kernel: [    1.542301] x86/mm: Checked W+X mappings: passed, no W+X pages found.
Dec 16 22:04:44 re kernel: [    1.673916] r8169 Gigabit Ethernet driver 2.3LK-NAPI loaded
Dec 16 22:04:44 re kernel: [    1.674627] r8169 0000:13:00.0 eth0: RTL8105e, 18:03:73:78:2a:62, XID 40a00000, IRQ 28
Dec 16 22:04:44 re kernel: [    1.690621] thermal LNXTHERM:00: registered as thermal_zone0
Dec 16 22:04:44 re kernel: [    1.690623] ACPI: Thermal Zone [THM] (64 C)
Dec 16 22:04:44 re kernel: [    1.690672] i801_smbus 0000:00:1f.3: SMBus using PCI interrupt
Dec 16 22:04:44 re kernel: [    1.691027] ACPI: bus type USB registered
Dec 16 22:04:44 re kernel: [    1.691059] usbcore: registered new interface driver usbfs
Dec 16 22:04:44 re kernel: [    1.691079] usbcore: registered new interface driver hub
Dec 16 22:04:44 re kernel: [    1.691119] usbcore: registered new device driver usb
Dec 16 22:04:44 re kernel: [    1.692405] SCSI subsystem initialized
Dec 16 22:04:44 re kernel: [    1.692901] ehci_hcd: USB 2.0 'Enhanced' Host Controller (EHCI) Driver
Dec 16 22:04:44 re kernel: [    1.693556] ehci-pci: EHCI PCI platform driver
Dec 16 22:04:44 re kernel: [    1.693785] ehci-pci 0000:00:1a.0: EHCI Host Controller
Dec 16 22:04:44 re kernel: [    1.693796] ehci-pci 0000:00:1a.0: new USB bus registered, assigned bus number 1
Dec 16 22:04:44 re kernel: [    1.693814] ehci-pci 0000:00:1a.0: debug port 2
Dec 16 22:04:44 re kernel: [    1.697828] ehci-pci 0000:00:1a.0: cache line size of 64 is not supported
Dec 16 22:04:44 re kernel: [    1.697853] ehci-pci 0000:00:1a.0: irq 16, io mem 0xfbf08000
Dec 16 22:04:44 re kernel: [    1.703657] libata version 3.00 loaded.
Dec 16 22:04:44 re kernel: [    1.705305] ahci 0000:00:1f.2: version 3.0
Dec 16 22:04:44 re kernel: [    1.715727] ahci 0000:00:1f.2: AHCI 0001.0300 32 slots 6 ports 3 Gbps 0x3f impl SATA mode
Dec 16 22:04:44 re kernel: [    1.715731] ahci 0000:00:1f.2: flags: 64bit ncq sntf ilck pm led clo pio slum part ems sxs apst 
Dec 16 22:04:44 re kernel: [    1.716026] ehci-pci 0000:00:1a.0: USB 2.0 started, EHCI 1.00
Dec 16 22:04:44 re kernel: [    1.716117] usb usb1: New USB device found, idVendor=1d6b, idProduct=0002, bcdDevice= 4.18
Dec 16 22:04:44 re kernel: [    1.716119] usb usb1: New USB device strings: Mfr=3, Product=2, SerialNumber=1
Dec 16 22:04:44 re kernel: [    1.716121] usb usb1: Product: EHCI Host Controller
Dec 16 22:04:44 re kernel: [    1.716122] usb usb1: Manufacturer: Linux 4.18.0-kali2-amd64 ehci_hcd
Dec 16 22:04:44 re kernel: [    1.716123] usb usb1: SerialNumber: 0000:00:1a.0
Dec 16 22:04:44 re kernel: [    1.716287] hub 1-0:1.0: USB hub found
Dec 16 22:04:44 re kernel: [    1.716302] hub 1-0:1.0: 2 ports detected
Dec 16 22:04:44 re kernel: [    1.716623] ehci-pci 0000:00:1d.0: EHCI Host Controller
Dec 16 22:04:44 re kernel: [    1.716630] ehci-pci 0000:00:1d.0: new USB bus registered, assigned bus number 2
Dec 16 22:04:44 re kernel: [    1.716645] ehci-pci 0000:00:1d.0: debug port 2
Dec 16 22:04:44 re kernel: [    1.720681] ehci-pci 0000:00:1d.0: cache line size of 64 is not supported
Dec 16 22:04:44 re kernel: [    1.720703] ehci-pci 0000:00:1d.0: irq 23, io mem 0xfbf07000
Dec 16 22:04:44 re kernel: [    1.736111] ehci-pci 0000:00:1d.0: USB 2.0 started, EHCI 1.00
Dec 16 22:04:44 re kernel: [    1.736238] usb usb2: New USB device found, idVendor=1d6b, idProduct=0002, bcdDevice= 4.18
Dec 16 22:04:44 re kernel: [    1.736240] usb usb2: New USB device strings: Mfr=3, Product=2, SerialNumber=1
Dec 16 22:04:44 re kernel: [    1.736241] usb usb2: Product: EHCI Host Controller
Dec 16 22:04:44 re kernel: [    1.736243] usb usb2: Manufacturer: Linux 4.18.0-kali2-amd64 ehci_hcd
Dec 16 22:04:44 re kernel: [    1.736244] usb usb2: SerialNumber: 0000:00:1d.0
Dec 16 22:04:44 re kernel: [    1.736546] hub 2-0:1.0: USB hub found
Dec 16 22:04:44 re kernel: [    1.736563] hub 2-0:1.0: 2 ports detected
Dec 16 22:04:44 re kernel: [    1.780877] scsi host0: ahci
Dec 16 22:04:44 re kernel: [    1.781172] scsi host1: ahci
Dec 16 22:04:44 re kernel: [    1.781334] scsi host2: ahci
Dec 16 22:04:44 re kernel: [    1.781472] scsi host3: ahci
Dec 16 22:04:44 re kernel: [    1.781614] scsi host4: ahci
Dec 16 22:04:44 re kernel: [    1.781763] scsi host5: ahci
Dec 16 22:04:44 re kernel: [    1.781863] ata1: SATA max UDMA/133 abar m2048@0xfbf06000 port 0xfbf06100 irq 29
Dec 16 22:04:44 re kernel: [    1.781866] ata2: SATA max UDMA/133 abar m2048@0xfbf06000 port 0xfbf06180 irq 29
Dec 16 22:04:44 re kernel: [    1.781869] ata3: SATA max UDMA/133 abar m2048@0xfbf06000 port 0xfbf06200 irq 29
Dec 16 22:04:44 re kernel: [    1.781872] ata4: SATA max UDMA/133 abar m2048@0xfbf06000 port 0xfbf06280 irq 29
Dec 16 22:04:44 re kernel: [    1.781875] ata5: SATA max UDMA/133 abar m2048@0xfbf06000 port 0xfbf06300 irq 29
Dec 16 22:04:44 re kernel: [    1.781877] ata6: SATA max UDMA/133 abar m2048@0xfbf06000 port 0xfbf06380 irq 29
Dec 16 22:04:44 re kernel: [    1.788051] tsc: Refined TSC clocksource calibration: 2526.907 MHz
Dec 16 22:04:44 re kernel: [    1.788058] clocksource: tsc: mask: 0xffffffffffffffff max_cycles: 0x246c8393dff, max_idle_ns: 440795212878 ns
Dec 16 22:04:44 re kernel: [    1.788077] clocksource: Switched to clocksource tsc
Dec 16 22:04:44 re kernel: [    2.052098] usb 1-1: new high-speed USB device number 2 using ehci-pci
Dec 16 22:04:44 re kernel: [    2.072099] usb 2-1: new high-speed USB device number 2 using ehci-pci
Dec 16 22:04:44 re kernel: [    2.095602] ata4: SATA link down (SStatus 0 SControl 300)
Dec 16 22:04:44 re kernel: [    2.095634] ata3: SATA link down (SStatus 0 SControl 300)
Dec 16 22:04:44 re kernel: [    2.095669] ata2: SATA link up 1.5 Gbps (SStatus 113 SControl 300)
Dec 16 22:04:44 re kernel: [    2.095698] ata5: SATA link down (SStatus 0 SControl 300)
Dec 16 22:04:44 re kernel: [    2.095735] ata1: SATA link up 3.0 Gbps (SStatus 123 SControl 300)
Dec 16 22:04:44 re kernel: [    2.095757] ata6: SATA link down (SStatus 0 SControl 300)
Dec 16 22:04:44 re kernel: [    2.097381] ata1.00: ATA-8: WDC WD3200BPVT-00ZEST0, 01.01A01, max UDMA/133
Dec 16 22:04:44 re kernel: [    2.097384] ata1.00: 625142448 sectors, multi 16: LBA48 NCQ (depth 32), AA
Dec 16 22:04:44 re kernel: [    2.099180] ata1.00: configured for UDMA/133
Dec 16 22:04:44 re kernel: [    2.099433] scsi 0:0:0:0: Direct-Access     ATA      WDC WD3200BPVT-0 1A01 PQ: 0 ANSI: 5
Dec 16 22:04:44 re kernel: [    2.107213] ata2.00: ATAPI: TSSTcorp DVD+/-RW TS-L633J, D500, max UDMA/100
Dec 16 22:04:44 re kernel: [    2.120257] ata2.00: configured for UDMA/100
Dec 16 22:04:44 re kernel: [    2.127378] scsi 1:0:0:0: CD-ROM            TSSTcorp DVD+-RW TS-L633J D500 PQ: 0 ANSI: 5
Dec 16 22:04:44 re kernel: [    2.163785] sd 0:0:0:0: [sda] 625142448 512-byte logical blocks: (320 GB/298 GiB)
Dec 16 22:04:44 re kernel: [    2.163788] sd 0:0:0:0: [sda] 4096-byte physical blocks
Dec 16 22:04:44 re kernel: [    2.163798] sd 0:0:0:0: [sda] Write Protect is off
Dec 16 22:04:44 re kernel: [    2.163801] sd 0:0:0:0: [sda] Mode Sense: 00 3a 00 00
Dec 16 22:04:44 re kernel: [    2.163814] sd 0:0:0:0: [sda] Write cache: enabled, read cache: enabled, doesn't support DPO or FUA
Dec 16 22:04:44 re kernel: [    2.200454] sr 1:0:0:0: [sr0] scsi3-mmc drive: 24x/24x writer dvd-ram cd/rw xa/form2 cdda tray
Dec 16 22:04:44 re kernel: [    2.200458] cdrom: Uniform CD-ROM driver Revision: 3.20
Dec 16 22:04:44 re kernel: [    2.200876] sr 1:0:0:0: Attached scsi CD-ROM sr0
Dec 16 22:04:44 re kernel: [    2.212581] usb 1-1: New USB device found, idVendor=8087, idProduct=0020, bcdDevice= 0.00
Dec 16 22:04:44 re kernel: [    2.212587] usb 1-1: New USB device strings: Mfr=0, Product=0, SerialNumber=0
Dec 16 22:04:44 re kernel: [    2.212983] hub 1-1:1.0: USB hub found
Dec 16 22:04:44 re kernel: [    2.213067] hub 1-1:1.0: 6 ports detected
Dec 16 22:04:44 re kernel: [    2.229393] usb 2-1: New USB device found, idVendor=8087, idProduct=0020, bcdDevice= 0.00
Dec 16 22:04:44 re kernel: [    2.229399] usb 2-1: New USB device strings: Mfr=0, Product=0, SerialNumber=0
Dec 16 22:04:44 re kernel: [    2.229875] hub 2-1:1.0: USB hub found
Dec 16 22:04:44 re kernel: [    2.230082] hub 2-1:1.0: 8 ports detected
Dec 16 22:04:44 re kernel: [    2.242825]  sda: sda1 < sda5 sda6 > sda2
Dec 16 22:04:44 re kernel: [    2.243420] sd 0:0:0:0: [sda] Attached SCSI disk
Dec 16 22:04:44 re kernel: [    2.500087] usb 1-1.2: new full-speed USB device number 3 using ehci-pci
Dec 16 22:04:44 re kernel: [    2.507709] random: fast init done
Dec 16 22:04:44 re kernel: [    2.520088] usb 2-1.4: new low-speed USB device number 3 using ehci-pci
Dec 16 22:04:44 re kernel: [    2.613206] usb 1-1.2: New USB device found, idVendor=0a5c, idProduct=21bc, bcdDevice= 7.61
Dec 16 22:04:44 re kernel: [    2.613213] usb 1-1.2: New USB device strings: Mfr=1, Product=2, SerialNumber=3
Dec 16 22:04:44 re kernel: [    2.613216] usb 1-1.2: Product: Dell Wireless 1701 Bluetooth
Dec 16 22:04:44 re kernel: [    2.613220] usb 1-1.2: Manufacturer: Broadcom Corp
Dec 16 22:04:44 re kernel: [    2.613223] usb 1-1.2: SerialNumber: CCAF7897F188
Dec 16 22:04:44 re kernel: [    2.632100] usb 2-1.4: New USB device found, idVendor=0000, idProduct=0538, bcdDevice= 1.00
Dec 16 22:04:44 re kernel: [    2.632106] usb 2-1.4: New USB device strings: Mfr=0, Product=1, SerialNumber=0
Dec 16 22:04:44 re kernel: [    2.632110] usb 2-1.4: Product:  USB OPTICAL MOUSE
Dec 16 22:04:44 re kernel: [    2.634900] hidraw: raw HID events driver (C) Jiri Kosina
Dec 16 22:04:44 re kernel: [    2.637771] usbcore: registered new interface driver usbhid
Dec 16 22:04:44 re kernel: [    2.637772] usbhid: USB HID core driver
Dec 16 22:04:44 re kernel: [    2.638726] input:  USB OPTICAL MOUSE as /devices/pci0000:00/0000:00:1d.0/usb2/2-1/2-1.4/2-1.4:1.0/0003:0000:0538.0001/input/input3
Dec 16 22:04:44 re kernel: [    2.638809] hid-generic 0003:0000:0538.0001: input,hidraw0: USB HID v1.11 Mouse [ USB OPTICAL MOUSE] on usb-0000:00:1d.0-1.4/input0
Dec 16 22:04:44 re kernel: [    2.692090] usb 1-1.3: new high-speed USB device number 4 using ehci-pci
Dec 16 22:04:44 re kernel: [    2.820848] usb 1-1.3: New USB device found, idVendor=0bda, idProduct=0138, bcdDevice=38.82
Dec 16 22:04:44 re kernel: [    2.820853] usb 1-1.3: New USB device strings: Mfr=1, Product=2, SerialNumber=3
Dec 16 22:04:44 re kernel: [    2.820854] usb 1-1.3: Product: USB2.0-CRW
Dec 16 22:04:44 re kernel: [    2.820855] usb 1-1.3: Manufacturer: Generic
Dec 16 22:04:44 re kernel: [    2.820857] usb 1-1.3: SerialNumber: 20090516388200000
Dec 16 22:04:44 re kernel: [    2.826549] PM: Image not found (code -22)
Dec 16 22:04:44 re kernel: [    2.829266] usbcore: registered new interface driver usb-storage
Dec 16 22:04:44 re kernel: [    2.829886] usbcore: registered new interface driver uas
Dec 16 22:04:44 re kernel: [    2.830415] ums-realtek 1-1.3:1.0: USB Mass Storage device detected
Dec 16 22:04:44 re kernel: [    2.849838] scsi host6: usb-storage 1-1.3:1.0
Dec 16 22:04:44 re kernel: [    2.850108] usbcore: registered new interface driver ums-realtek
Dec 16 22:04:44 re kernel: [    2.863902] cryptd: max_cpu_qlen set to 1000
Dec 16 22:04:44 re kernel: [    2.979468] usb 1-1.3: USB disconnect, device number 4
Dec 16 22:04:44 re kernel: [    3.574295] input: AlpsPS/2 ALPS GlidePoint as /devices/platform/i8042/serio1/input/input2
Dec 16 22:04:44 re kernel: [    3.775224] EXT4-fs (sda5): mounted filesystem with ordered data mode. Opts: (null)
Dec 16 22:04:44 re kernel: [    8.221846] random: systemd: uninitialized urandom read (16 bytes read)
Dec 16 22:04:44 re kernel: [    8.221996] random: systemd: uninitialized urandom read (16 bytes read)
Dec 16 22:04:44 re kernel: [    8.222017] random: systemd: uninitialized urandom read (16 bytes read)
Dec 16 22:04:44 re kernel: [    9.245863] EXT4-fs (sda5): re-mounted. Opts: errors=remount-ro
Dec 16 22:04:44 re kernel: [   11.638373] random: crng init done
Dec 16 22:04:44 re kernel: [   11.638376] random: 7 urandom warning(s) missed due to ratelimiting
Dec 16 22:04:44 re kernel: [   12.553763] ACPI: AC Adapter [AC] (on-line)
Dec 16 22:04:44 re kernel: [   12.566595] input: Power Button as /devices/LNXSYSTM:00/LNXSYBUS:00/PNP0C0C:00/input/input4
Dec 16 22:04:44 re kernel: [   12.566614] ACPI: Power Button [PWRB]
Dec 16 22:04:44 re kernel: [   12.566694] input: Lid Switch as /devices/LNXSYSTM:00/LNXSYBUS:00/PNP0C0D:00/input/input5
Dec 16 22:04:44 re kernel: [   12.566717] ACPI: Lid Switch [LID0]
Dec 16 22:04:44 re kernel: [   12.566773] input: Sleep Button as /devices/LNXSYSTM:00/LNXSYBUS:00/PNP0C0E:01/input/input6
Dec 16 22:04:44 re kernel: [   12.566782] ACPI: Sleep Button [SBTN]
Dec 16 22:04:44 re kernel: [   12.566841] input: Power Button as /devices/LNXSYSTM:00/LNXPWRBN:00/input/input7
Dec 16 22:04:44 re kernel: [   12.566859] ACPI: Power Button [PWRF]
Dec 16 22:04:44 re kernel: [   12.592511] ACPI: Battery Slot [BAT0] (battery present)
Dec 16 22:04:44 re kernel: [   12.761839] wmi_bus wmi_bus-PNP0C14:00: WQBC data block query control method not found
Dec 16 22:04:44 re kernel: [   12.776543] sd 0:0:0:0: Attached scsi generic sg0 type 0
Dec 16 22:04:44 re kernel: [   12.776588] sr 1:0:0:0: Attached scsi generic sg1 type 5
Dec 16 22:04:44 re kernel: [   12.779967] intel ips 0000:00:1f.6: CPU TDP doesn't match expected value (found 25, expected 29)
Dec 16 22:04:44 re kernel: [   12.780248] intel ips 0000:00:1f.6: failed to get i915 symbols, graphics turbo disabled until i915 loads
Dec 16 22:04:44 re kernel: [   12.782114] intel ips 0000:00:1f.6: IPS driver initialized, MCP temp limit 90
Dec 16 22:04:44 re kernel: [   12.807593] input: PC Speaker as /devices/platform/pcspkr/input/input8
Dec 16 22:04:44 re kernel: [   12.835420] iTCO_vendor_support: vendor-support=0
Dec 16 22:04:44 re kernel: [   12.844843] iTCO_wdt: Intel TCO WatchDog Timer Driver v1.11
Dec 16 22:04:44 re kernel: [   12.844898] iTCO_wdt: Found a HM57 TCO device (Version=2, TCOBASE=0x0460)
Dec 16 22:04:44 re kernel: [   12.845019] iTCO_wdt: initialized. heartbeat=30 sec (nowayout=0)
Dec 16 22:04:44 re kernel: [   13.376959] dcdbas dcdbas: Dell Systems Management Base Driver (version 5.6.0-3.2)
Dec 16 22:04:44 re kernel: [   13.507639] bcma: bus0: Found chip with id 0x4313, rev 0x01 and package 0x08
Dec 16 22:04:44 re kernel: [   13.507670] bcma: bus0: Core 0 found: ChipCommon (manuf 0x4BF, id 0x800, rev 0x24, class 0x0)
Dec 16 22:04:44 re kernel: [   13.507694] bcma: bus0: Core 1 found: IEEE 802.11 (manuf 0x4BF, id 0x812, rev 0x18, class 0x0)
Dec 16 22:04:44 re kernel: [   13.507742] bcma: bus0: Core 2 found: PCIe (manuf 0x4BF, id 0x820, rev 0x11, class 0x0)
Dec 16 22:04:44 re kernel: [   13.514242] dell-smbios A80593CE-A997-11DA-B012-B622A1EF5492: WMI SMBIOS userspace interface not supported(0), try upgrading to a newer BIOS
Dec 16 22:04:44 re kernel: [   13.520059] bcma: bus0: Bus registered
Dec 16 22:04:44 re kernel: [   13.850106] input: Dell WMI hotkeys as /devices/platform/PNP0C14:00/wmi_bus/wmi_bus-PNP0C14:00/9DBB5994-A997-11DA-B012-B622A1EF5492/input/input9
Dec 16 22:04:44 re kernel: [   14.073275] pci 0000:00:00.0: Intel HD Graphics Chipset
Dec 16 22:04:44 re kernel: [   14.073305] pci 0000:00:00.0: detected gtt size: 2097152K total, 262144K mappable
Dec 16 22:04:44 re kernel: [   14.073820] pci 0000:00:00.0: detected 32768K stolen memory
Dec 16 22:04:44 re kernel: [   14.073908] [drm] Replacing VGA console driver
Dec 16 22:04:44 re kernel: [   14.076073] Console: switching to colour dummy device 80x25
Dec 16 22:04:44 re kernel: [   14.079161] i801_smbus 0000:00:1f.3: BIOS is accessing SMBus registers
Dec 16 22:04:44 re kernel: [   14.079163] i801_smbus 0000:00:1f.3: Driver SMBus register access inhibited
Dec 16 22:04:44 re kernel: [   14.079544] [drm] Supports vblank timestamp caching Rev 2 (21.10.2013).
Dec 16 22:04:44 re kernel: [   14.079545] [drm] Driver supports precise vblank timestamp query.
Dec 16 22:04:44 re kernel: [   14.080118] i915 0000:00:02.0: vgaarb: changed VGA decodes: olddecodes=io+mem,decodes=io+mem:owns=io+mem
Dec 16 22:04:44 re kernel: [   14.103926] [drm] RC6 disabled, disabling runtime PM support
Dec 16 22:04:44 re kernel: [   14.105620] [drm] Initialized i915 1.6.0 20180514 for 0000:00:02.0 on minor 0
Dec 16 22:04:44 re kernel: [   14.107523] ACPI: Video Device [GFX0] (multi-head: yes  rom: no  post: no)
Dec 16 22:04:44 re kernel: [   14.107805] acpi device:29: registered as cooling_device4
Dec 16 22:04:44 re kernel: [   14.107912] input: Video Bus as /devices/LNXSYSTM:00/LNXSYBUS:00/PNP0A08:00/LNXVIDEO:00/input/input10
Dec 16 22:04:44 re kernel: [   14.122430] fbcon: inteldrmfb (fb0) is primary device
Dec 16 22:04:44 re kernel: [   14.287564] kvm: VM_EXIT_LOAD_IA32_PERF_GLOBAL_CTRL does not work properly. Using workaround
Dec 16 22:04:44 re kernel: [   14.806001] Bluetooth: Core ver 2.22
Dec 16 22:04:44 re kernel: [   14.806028] NET: Registered protocol family 31
Dec 16 22:04:44 re kernel: [   14.806029] Bluetooth: HCI device and connection manager initialized
Dec 16 22:04:44 re kernel: [   14.806034] Bluetooth: HCI socket layer initialized
Dec 16 22:04:44 re kernel: [   14.806037] Bluetooth: L2CAP socket layer initialized
Dec 16 22:04:44 re kernel: [   14.806045] Bluetooth: SCO socket layer initialized
Dec 16 22:04:44 re kernel: [   15.014598] Console: switching to colour frame buffer device 170x48
Dec 16 22:04:44 re kernel: [   15.014734] snd_hda_intel 0000:00:1b.0: bound 0000:00:02.0 (ops i915_audio_component_bind_ops [i915])
Dec 16 22:04:44 re kernel: [   15.033673] i915 0000:00:02.0: fb0: inteldrmfb frame buffer device
Dec 16 22:04:44 re kernel: [   15.288415] snd_hda_codec_idt hdaudioC0D0: autoconfig for 92HD87B1/3: line_outs=1 (0xd/0x0/0x0/0x0/0x0) type:speaker
Dec 16 22:04:44 re kernel: [   15.288418] snd_hda_codec_idt hdaudioC0D0:    speaker_outs=0 (0x0/0x0/0x0/0x0/0x0)
Dec 16 22:04:44 re kernel: [   15.288420] snd_hda_codec_idt hdaudioC0D0:    hp_outs=1 (0xb/0x0/0x0/0x0/0x0)
Dec 16 22:04:44 re kernel: [   15.288421] snd_hda_codec_idt hdaudioC0D0:    mono: mono_out=0x0
Dec 16 22:04:44 re kernel: [   15.288423] snd_hda_codec_idt hdaudioC0D0:    inputs:
Dec 16 22:04:44 re kernel: [   15.288425] snd_hda_codec_idt hdaudioC0D0:      Internal Mic=0xc
Dec 16 22:04:44 re kernel: [   15.288426] snd_hda_codec_idt hdaudioC0D0:      Mic=0xa
Dec 16 22:04:44 re kernel: [   15.326298] usbcore: registered new interface driver btusb
Dec 16 22:04:44 re kernel: [   15.446275] input: HDA Digital PCBeep as /devices/pci0000:00/0000:00:1b.0/sound/card0/input11
Dec 16 22:04:44 re kernel: [   15.446964] input: HDA Intel MID Mic as /devices/pci0000:00/0000:00:1b.0/sound/card0/input12
Dec 16 22:04:44 re kernel: [   15.447044] input: HDA Intel MID Headphone as /devices/pci0000:00/0000:00:1b.0/sound/card0/input13
Dec 16 22:04:44 re kernel: [   15.447124] input: HDA Intel MID HDMI/DP,pcm=3 as /devices/pci0000:00/0000:00:1b.0/sound/card0/input14
Dec 16 22:04:44 re kernel: [   16.624404] Support for cores revisions 0x17 and 0x18 disabled by module param allhwsupport=0. Try b43.allhwsupport=1
Dec 16 22:04:44 re kernel: [   16.624496] b43: probe of bcma0:1 failed with error -524
Dec 16 22:04:44 re kernel: [   16.624521] Broadcom 43xx driver loaded [ Features: PNLS ]
Dec 16 22:04:44 re kernel: [   16.640255] Adding 3986428k swap on /dev/sda6.  Priority:-2 extents:1 across:3986428k FS
Dec 16 22:04:44 re kernel: [   17.503750] brcmsmac bcma0:1: mfg 4bf core 812 rev 24 class 0 irq 17
Dec 16 22:04:44 re kernel: [   17.665210] ieee80211 phy0: Selected rate control algorithm 'minstrel_ht'
Dec 16 22:04:44 re kernel: [   18.084362] intel ips 0000:00:1f.6: i915 driver attached, reenabling gpu turbo
Dec 16 22:04:52 re kernel: [   26.662240] IPv6: ADDRCONF(NETDEV_UP): eth0: link is not ready
Dec 16 22:04:53 re kernel: [   27.043963] r8169 0000:13:00.0: firmware: direct-loading firmware rtl_nic/rtl8105e-1.fw
Dec 16 22:04:53 re kernel: [   27.269983] r8169 0000:13:00.0 eth0: link down
Dec 16 22:04:53 re kernel: [   27.269986] r8169 0000:13:00.0 eth0: link down
Dec 16 22:04:53 re kernel: [   27.270088] IPv6: ADDRCONF(NETDEV_UP): eth0: link is not ready
Dec 16 22:04:53 re kernel: [   27.275098] IPv6: ADDRCONF(NETDEV_UP): wlan0: link is not ready
Dec 16 22:04:54 re kernel: [   28.880771] r8169 0000:13:00.0 eth0: link up
Dec 16 22:04:54 re kernel: [   28.880791] IPv6: ADDRCONF(NETDEV_CHANGE): eth0: link becomes ready
Dec 16 22:04:55 re kernel: [   29.830690] PPP generic driver version 2.4.2
Dec 16 22:04:55 re kernel: [   29.974945] NET: Registered protocol family 24
Dec 16 22:05:42 re kernel: [   76.665669] fuse init (API version 7.27)
Dec 16 22:05:48 re kernel: [   82.306696] rfkill: input handler disabled
Dec 16 22:06:00 re kernel: [   94.642114] r8169 0000:13:00.0 eth0: link down
kern (143,108 bytes)
Xorg (6,844 bytes)
[    31.082] (--) Log file renamed from "/var/log/Xorg.pid-602.log" to "/var/log/Xorg.0.log"
[    31.197] 
X.Org X Server 1.20.3
X Protocol Version 11, Revision 0
[    31.197] Build Operating System: Linux 4.9.0-8-amd64 x86_64 Debian
[    31.197] Current Operating System: Linux re 4.18.0-kali3-amd64 #1 SMP Debian 4.18.20-2kali2 (2018-11-30) x86_64
[    31.197] Kernel command line: BOOT_IMAGE=/boot/vmlinuz-4.18.0-kali3-amd64 root=UUID=0f4a6c80-be10-41d1-b10f-f1c6ca081b1c ro initrd=/install/gtk/initrd.gz quiet
[    31.197] Build Date: 25 October 2018  06:15:23PM
[    31.197] xorg-server 2:1.20.3-1 (https://www.debian.org/support) 
[    31.197] Current version of pixman: 0.34.0
[    31.197] 	Before reporting problems, check http://wiki.x.org
	to make sure that you have the latest version.
[    31.197] Markers: (--) probed, (**) from config file, (==) default setting,
	(++) from command line, (!!) notice, (II) informational,
	(WW) warning, (EE) error, (NI) not implemented, (??) unknown.
[    31.197] (==) Log file: "/var/log/Xorg.0.log", Time: Sun Dec 16 21:59:07 2018
[    31.322] (==) Using system config directory "/usr/share/X11/xorg.conf.d"
[    31.573] (==) No Layout section.  Using the first Screen section.
[    31.573] (==) No screen section available. Using defaults.
[    31.573] (**) |-->Screen "Default Screen Section" (0)
[    31.573] (**) |   |-->Monitor "<default monitor>"
[    31.594] (==) No monitor specified for screen "Default Screen Section".
	Using a default monitor configuration.
[    31.594] (==) Automatically adding devices
[    31.594] (==) Automatically enabling devices
[    31.594] (==) Automatically adding GPU devices
[    31.594] (==) Max clients allowed: 256, resource mask: 0x1fffff
[    31.671] (WW) The directory "/usr/share/fonts/X11/cyrillic" does not exist.
[    31.671] 	Entry deleted from font path.
[    31.671] (WW) The directory "/usr/share/fonts/X11/100dpi/" does not exist.
[    31.671] 	Entry deleted from font path.
[    31.671] (WW) The directory "/usr/share/fonts/X11/75dpi/" does not exist.
[    31.671] 	Entry deleted from font path.
[    31.671] (WW) The directory "/usr/share/fonts/X11/100dpi" does not exist.
[    31.671] 	Entry deleted from font path.
[    31.671] (WW) The directory "/usr/share/fonts/X11/75dpi" does not exist.
[    31.671] 	Entry deleted from font path.
[    31.671] (==) FontPath set to:
	/usr/share/fonts/X11/misc,
	/usr/share/fonts/X11/Type1,
	built-ins
[    31.671] (==) ModulePath set to "/usr/lib/xorg/modules"
[    31.671] (II) The server relies on udev to provide the list of input devices.
	If no devices become available, reconfigure udev or disable AutoAddDevices.
[    31.671] (II) Loader magic: 0x55a33211ee20
[    31.671] (II) Module ABI versions:
[    31.671] 	X.Org ANSI C Emulation: 0.4
[    31.671] 	X.Org Video Driver: 24.0
[    31.671] 	X.Org XInput driver : 24.1
[    31.671] 	X.Org Server Extension : 10.0
[    31.672] (++) using VT number 1

[    31.674] (II) systemd-logind: took control of session /org/freedesktop/login1/session/c1
[    31.677] (--) PCI:*(0@0:2:0) 8086:0046:1028:0505 rev 2, Mem @ 0xfb000000/4194304, 0xc0000000/268435456, I/O @ 0x0000f080/8, BIOS @ 0x????????/131072
[    31.677] (II) LoadModule: "glx"
[    31.783] (II) Loading /usr/lib/xorg/modules/extensions/libglx.so
[    32.031] (II) Module glx: vendor="X.Org Foundation"
[    32.031] 	compiled for 1.20.3, module version = 1.0.0
[    32.031] 	ABI class: X.Org Server Extension, version 10.0
[    32.031] (==) Matched modesetting as autoconfigured driver 0
[    32.031] (==) Matched fbdev as autoconfigured driver 1
[    32.031] (==) Matched vesa as autoconfigured driver 2
[    32.031] (==) Assigned the driver to the xf86ConfigLayout
[    32.031] (II) LoadModule: "modesetting"
[    32.110] (II) Loading /usr/lib/xorg/modules/drivers/modesetting_drv.so
[    32.190] (II) Module modesetting: vendor="X.Org Foundation"
[    32.191] 	compiled for 1.20.3, module version = 1.20.3
[    32.191] 	Module class: X.Org Video Driver
[    32.191] 	ABI class: X.Org Video Driver, version 24.0
[    32.191] (II) LoadModule: "fbdev"
[    32.191] (II) Loading /usr/lib/xorg/modules/drivers/fbdev_drv.so
[    32.215] (II) Module fbdev: vendor="X.Org Foundation"
[    32.215] 	compiled for 1.20.0, module version = 0.5.0
[    32.215] 	Module class: X.Org Video Driver
[    32.215] 	ABI class: X.Org Video Driver, version 24.0
[    32.215] (II) LoadModule: "vesa"
[    32.215] (II) Loading /usr/lib/xorg/modules/drivers/vesa_drv.so
[    32.392] (II) Module vesa: vendor="X.Org Foundation"
[    32.393] 	compiled for 1.20.1, module version = 2.4.0
[    32.393] 	Module class: X.Org Video Driver
[    32.393] 	ABI class: X.Org Video Driver, version 24.0
[    32.393] (II) modesetting: Driver for Modesetting Kernel Drivers: kms
[    32.393] (II) FBDEV: driver for framebuffer: fbdev
[    32.393] (II) VESA: driver for VESA chipsets: vesa
[    32.393] (EE) open /dev/dri/card0: No such file or directory
[    32.393] (WW) Falling back to old probe method for modesetting
[    32.393] (EE) open /dev/dri/card0: No such file or directory
[    32.393] (II) Loading sub module "fbdevhw"
[    32.393] (II) LoadModule: "fbdevhw"
[    32.393] (II) Loading /usr/lib/xorg/modules/libfbdevhw.so
[    32.419] (II) Module fbdevhw: vendor="X.Org Foundation"
[    32.419] 	compiled for 1.20.3, module version = 0.0.2
[    32.419] 	ABI class: X.Org Video Driver, version 24.0
[    32.419] (EE) Unable to find a valid framebuffer device
[    32.419] (WW) Falling back to old probe method for fbdev
[    32.419] (II) Loading sub module "fbdevhw"
[    32.419] (II) LoadModule: "fbdevhw"
[    32.419] (II) Loading /usr/lib/xorg/modules/libfbdevhw.so
[    32.419] (II) Module fbdevhw: vendor="X.Org Foundation"
[    32.419] 	compiled for 1.20.3, module version = 0.0.2
[    32.419] 	ABI class: X.Org Video Driver, version 24.0
[    32.419] (EE) open /dev/fb0: No such file or directory
[    32.419] vesa: Ignoring device with a bound kernel driver
[    32.419] (EE) Screen 0 deleted because of no matching config section.
[    32.419] (II) UnloadModule: "modesetting"
[    32.419] (EE) Screen 0 deleted because of no matching config section.
[    32.419] (II) UnloadModule: "fbdev"
[    32.419] (II) UnloadSubModule: "fbdevhw"
[    32.419] (EE) Screen 0 deleted because of no matching config section.
[    32.419] (II) UnloadModule: "vesa"
[    32.419] (EE) Device(s) detected, but none match those in the config file.
[    32.419] (EE) 
Fatal server error:
[    32.419] (EE) no screens found(EE) 
[    32.420] (EE) 
Please consult the The X.Org Foundation support 
	 at http://wiki.x.org
 for help. 
[    32.420] (EE) Please also check the log file at "/var/log/Xorg.0.log" for additional information.
[    32.420] (EE) 
[    32.421] (EE) Server terminated with error (1). Closing log file.
Xorg (6,844 bytes)

sbrun

2018-12-20 08:59

manager   ~0010124

duplicate of 5141

Issue History

Date Modified Username Field Change
2018-12-17 08:35 l0gin.an New Issue
2018-12-17 08:35 l0gin.an File Added: kern
2018-12-17 08:35 l0gin.an File Added: Xorg
2018-12-20 08:59 sbrun Relationship added duplicate of 0005141
2018-12-20 08:59 sbrun Assigned To => sbrun
2018-12-20 08:59 sbrun Status new => closed
2018-12-20 08:59 sbrun Resolution open => duplicate
2018-12-20 08:59 sbrun Note Added: 0010124